[[{"header":{"parameterUnit":"m.s-1","parameterCategory":1,"la1":31.0,"la2":29.5877,"lo1":-88.7671,"lo2":-86.6584,"dy":0.0162,"dx":0.0185,"nx":115,"ny":88,"refTime":"2023-08-30T06:00:00:Z","depth":0,"parameterNumber":2,"parameterNumberName":"U-component_of_WINDS"},"data":[0.0,0.0,0.0,0.0,0.0,0.0,0.0,0.0,0.0,0.0,0.0,0.0,0.0,0.0,0.0,0.0,0.0,0.0,0.0,0.0,0.0,0.0,0.0,0.0,0.0,0.0,0.0,0.0,0.0,0.0,0.0,0.0,0.0,0.0,0.0,0.0,0.0,0.0,0.0,0.0,0.0,0.0,0.0,0.0,0.0,0.0,0.0,0.0,0.0,0.0,0.0,0.0,0.0,0.0,0.0,0.0,0.0,0.0,0.0,0.0,0.0,0.0,0.0,0.0,0.0,0.0,0.0,0.0,0.0,0.0,0.0,0.0,0.0,0.0,0.0,0.0,0.0,0.0,0.0,0.0,0.0,0.0,0.0,0.0,0.0,0.0,0.0,0.0,0.0,0.0,0.0,0.0,0.0,0.0,0.0,0.0,0.0,0.0,0.0,0.0,0.0,0.0,0.0,0.0,0.0,0.0,0.0,0.0,0.0,0.0,0.0,0.0,0.0,0.0,0.0,0.0,0.0,0.0,0.0,0.0,0.0,0.0,0.0,0.0,0.0,0.0,0.0,0.0,0.0,0.0,0.0,0.0,0.0,0.0,0.0,0.0,0.0,0.0,0.0,0.0,0.0,0.0,0.0,0.0,0.0,0.0,0.0,0.0,0.0,0.0,0.0,0.0,0.0,0.0,0.0,0.0,0.0,0.0,0.0,0.0,0.0,0.0,0.0,0.0,0.0,0.0,0.0,0.0,0.0,0.0,0.0,0.0,0.0,0.0,0.0,0.0,0.0,0.0,0.0,0.0,0.0,0.0,0.0,0.0,0.0,0.0,0.0,0.0,0.0,0.0,0.0,0.0,0.0,0.0,0.0,0.0,0.0,0.0,0.0,0.0,0.0,0.0,0.0,0.0,0.0,0.0,0.0,0.0,0.0,0.0,0.0,0.0,0.0,0.0,0.0,0.0,0.0,0.0,0.0,0.0,0.0,0.0,0.0,0.0,0.0,0.0,0.0,0.0,0.0,0.0,0.0,0.0,0.0,0.0,0.0,0.0,0.0,0.0,0.0,0.0,0.0,0.0,0.0,0.0,0.0,0.0,0.0,0.0,0.0,0.0,0.0,0.0,0.0,0.0,0.0,0.0,0.0,0.0,0.0,0.0,0.0,0.0,0.0,0.0,0.0,0.0,0.0,0.0,0.0,0.0,0.0,0.0,0.0,0.0,0.0,0.0,0.0,0.0,0.0,0.0,0.0,0.0,0.0,0.0,0.0,0.0,0.0,0.0,0.0,0.0,0.0,0.0,0.0,0.0,0.0,0.0,0.0,0.0,0.0,0.0,0.0,0.0,0.0,0.0,0.0,0.0,0.0,0.0,0.0,0.0,0.0,0.0,0.0,0.0,0.0,0.0,0.0,0.0,0.0,0.0,0.0,0.0,0.0,0.0,0.0,0.0,0.0,0.0,0.0,0.0,0.0,0.0,0.0,0.0,0.0,0.0,0.0,0.0,0.0,0.0,0.0,0.0,0.0,0.0,0.0,0.0,0.0,0.0,0.0,0.0,0.0,0.0,0.0,0.0,0.0,0.0,0.0,0.0,0.0,0.0,0.0,0.0,0.0,0.0,0.0,0.0,0.0,0.0,0.0,0.0,0.0,0.0,0.0,0.0,0.0,0.0,0.0,0.0,0.0,0.0,0.0,0.0,0.0,0.0,0.0,0.0,0.0,0.0,0.0,0.0,0.0,0.0,0.0,0.0,0.0,0.0,0.0,0.0,0.0,0.0,0.0,0.0,0.0,0.0,0.0,0.0,0.0,0.0,0.0,0.0,0.0,0.0,0.0,0.0,0.0,0.0,0.0,0.0,0.0,0.0,0.0,0.0,0.0,0.0,0.0,0.0,0.0,0.0,0.0,0.0,0.0,0.0,0.0,0.0,0.0,0.0,0.0,0.0,0.0,0.0,0.0,0.0,0.0,0.0,0.0,0.0,0.0,0.0,0.0,0.0,0.0,0.0,0.0,0.0,0.0,0.0,0.0,0.0,0.0,0.0,0.0,0.0,0.0,0.0,0.0,0.0,0.0,0.0,0.0,0.0,0.0,0.0,0.0,0.0,0.0,0.0,0.0,0.0,0.0,0.0,0.0,0.0,0.0,0.0,0.0,0.0,0.0,0.0,0.0,0.0,0.0,0.0,0.0,0.0,0.0,0.0,0.0,0.0,0.0,0.0,0.0,0.0,0.0,0.0,0.0,0.0,0.0,0.0,0.0,0.0,0.0,0.0,0.0,0.0,0.0,0.0,0.0,0.0,0.0,0.0,0.0,0.0,0.0,0.0,0.0,0.0,0.0,0.0,0.0,0.0,0.0,0.0,0.0,0.0,0.0,0.0,0.0,0.0,0.0,0.0,0.0,0.0,0.0,0.0,0.0,0.0,0.0,0.0,0.0,0.0,0.0,0.0,0.0,0.0,0.0,0.0,0.0,0.0,0.0,0.0,0.0,0.0,0.0,0.0,0.0,0.0,0.0,0.0,0.0,0.0,0.0,0.0,0.0,0.0,0.0,0.0,0.0,0.0,0.0,0.0,0.0,0.0,0.0,0.0,0.0,0.0,0.0,0.0,0.0,0.0,0.0,0.0,0.0,0.0,0.0,0.0,0.0,0.0,0.0,0.0,0.0,0.0,0.0,0.0,0.0,0.0,0.0,0.0,0.0,0.0,0.0,0.0,0.0,0.0,0.0,0.0,0.0,0.0,0.0,0.0,0.0,0.0,0.0,0.0,0.0,0.0,0.0,0.0,0.0,0.0,0.0,0.0,0.0,0.0,0.0,0.0,0.0,0.0,0.0,0.0,0.0,0.0,0.0,0.0,0.0,0.0,0.0,0.0,0.0,0.0,0.0,0.0,0.0,0.0,0.0,0.0,0.0,0.0,0.0,0.0,0.0,0.0,0.0,0.0,0.0,0.0,0.0,0.0,0.0,0.0,0.0,0.0,0.0,0.0,0.0,0.0,0.0,0.0,0.0,0.0,0.0,0.0,0.0,0.0,0.0,0.0,0.0,0.0,0.0,0.0,0.0,0.0,0.0,0.0,0.0,0.0,0.0,0.0,0.0,0.0,0.0,0.0,0.0,0.0,0.0,0.0,0.0,0.0,0.0,0.0,0.0,0.0,0.0,0.0,0.0,0.0,0.0,0.0,0.0,0.0,0.0,0.0,0.0,0.0,0.0,0.0,0.0,0.0,0.0,0.0,0.0,0.0,0.0,0.0,0.0,0.0,0.0,0.0,0.0,0.0,0.0,0.0,0.0,0.0,0.0,0.0,0.0,0.0,0.0,0.0,0.0,0.0,0.0,0.0,0.0,0.0,0.0,0.0,0.0,0.0,0.0,0.0,0.0,0.0,0.0,0.0,0.0,0.0,0.0,0.0,0.0,0.0,0.0,0.0,0.0,0.0,0.0,0.0,0.0,0.0,0.0,0.0,0.0,0.0,0.0,0.0,0.0,0.0,0.0,0.0,0.0,0.0,0.0,0.0,0.0,0.0,0.0,0.0,0.0,0.0,0.0,0.0,0.0,0.0,0.0,0.0,0.0,0.0,0.0,0.0,0.0,0.0,0.0,0.0,0.0,0.0,0.0,0.0,0.0,0.0,0.0,0.0,0.0,0.0,0.0,0.0,0.0,0.0,0.0,0.0,0.0,0.0,0.0,0.0,0.0,0.0,0.0,0.0,0.0,0.0,0.0,0.0,0.0,0.0,0.0,0.0,0.0,0.0,0.0,0.0,0.0,0.0,0.0,0.0,0.0,0.0,0.0,0.0,0.0,0.0,0.0,0.0,0.0,0.0,0.0,0.0,0.0,0.0,0.0,0.0,0.0,0.0,0.0,0.0,0.0,0.0,0.0,0.0,0.0,0.0,0.0,0.0,0.0,0.0,0.0,0.0,0.0,0.0,0.0,0.0,0.0,0.0,0.0,0.0,0.0,0.0,0.0,0.0,0.0,0.0,0.0,0.0,0.0,0.0,0.0,0.0,0.0,0.0,0.0,0.0,0.0,0.0,0.0,0.0,0.0,0.0,0.0,0.0,0.0,0.0,0.0,0.0,0.0,0.0,0.0,0.0,0.0,0.0,0.0,0.0,0.0,0.0,0.0,0.0,0.0,0.0,0.0,0.0,0.0,0.0,0.0,0.0,0.0,0.0,0.0,0.0,0.0,0.0,0.0,0.0,0.0,0.0,0.0,0.0,0.0,0.0,0.0,0.0,0.0,0.0,0.0,0.0,0.0,0.0,0.0,0.0,0.4803,0.0,0.0,0.0,0.0,0.0,0.0,0.0,0.0,0.0,0.0,0.0,0.0,0.0,0.0,0.0,0.0,0.0,0.0,0.0,0.0,0.0,0.0,0.0,0.0,0.0,0.0,0.0,0.0,0.0,0.0,0.0,0.0,0.0,0.0,0.0,0.0,0.0,0.0,0.0,0.0,0.0,0.0,0.0,0.0,0.0,0.0,0.0,0.0,0.0,0.0,0.0,0.0,0.0,0.0,0.0,0.0,0.0,0.0,0.0,0.0,0.0,0.0,0.0,0.0,0.0,0.0,0.0,0.0,0.0,0.0,0.0,0.0,0.0,0.0,0.0,0.0,0.0,0.0,0.0,0.0,0.0,0.0,0.0,0.0,0.0,0.0,0.0,0.0,0.0,0.0,0.0,0.0,0.0,0.0,0.0,0.0,0.0,0.0,0.0,0.0,0.0,0.0,0.0,0.0,0.0,0.0,0.0,0.0,0.0,0.0,0.5243,0.5098,0.5039,0.4921,0.4755,0.0,0.0,0.0,0.0,0.0,0.0,0.0,0.0,0.0,0.0,0.0,0.0,0.0,0.0,0.0,0.0,0.0,0.0,0.0,0.0,0.0,0.0,0.0,0.0,0.0,0.0,0.0,0.0,0.0,0.0,0.0,0.0,0.0,0.0,0.0,0.0,0.0,0.0,0.0,0.0,0.0,0.0,0.0,0.0,0.0,0.0,0.0,0.0,0.0,0.0,0.0,0.0,0.0,0.0,0.0,0.0,0.0,0.0,0.0,0.0,0.0,0.0,0.0,0.0,0.0,0.0,0.0,0.0,0.0,0.0,0.0,0.0,0.0,0.0,0.0,0.0,0.0,0.0,0.0,0.0,0.0,0.0,0.0,0.0,0.0,0.0,0.0,0.0,0.0,0.0,0.0,0.0,0.0,0.0,0.0,0.0,0.0,0.0,0.0,0.0,0.0,0.0,0.0,0.0,0.0,0.0,0.0,0.0,0.0,0.0,0.0,0.0,0.5039,0.4892,0.4658,0.0,0.0,0.0,0.0,0.0,0.0,0.0,0.0,0.0,0.0,0.0,0.0,0.0,0.0,0.0,0.0,0.0,0.0,0.0,0.0,0.0,0.0,0.0,0.0,0.0,0.0,0.0,0.0,0.0,0.0,0.0,0.0,0.0,0.0,0.0,0.0,0.0,0.0,0.0,0.0,0.0,0.0,0.0,0.0,0.0,0.0,0.0,0.0,0.0,0.0,0.0,0.0,0.0,0.0,0.0,0.0,0.0,0.0,0.0,0.0,0.0,0.0,0.0,0.0,0.0,0.0,0.0,0.0,0.0,0.0,0.0,0.0,0.0,0.0,0.0,0.0,0.0,0.0,0.0,0.0,0.0,0.0,0.0,0.0,0.0,0.0,0.0,0.0,0.0,0.0,0.0,0.0,0.0,0.0,0.0,0.0,0.0,0.0,0.0,0.0,0.0,0.0,0.0,0.0,0.0,0.0,0.0,0.0,0.0,0.0,0.5137,0.501,0.5,0.0,0.4509,0.0,0.0,0.0,0.0,0.0,0.0,0.0,0.0,0.0,0.0,0.0,0.0,0.0,0.0,0.0,0.0,0.0,0.0,0.0,0.0,0.0,0.0,0.0,0.0,0.0,0.0,0.0,0.0,0.0,0.0,0.0,0.0,0.0,0.0,0.0,0.0,0.0,0.0,0.0,0.0,0.0,0.0,0.0,0.0,0.0,0.0,0.0,0.0,0.0,0.0,0.0,0.0,0.0,0.0,0.0,0.0,0.0,0.0,0.0,0.0,0.0,0.0,0.0,0.0,0.0,0.0,0.0,0.0,0.0,0.0,0.0,0.0,0.0,0.0,0.0,0.0,0.0,0.0,0.0,0.0,0.0,0.0,0.0,0.0,0.0,0.0,0.0,0.0,0.0,0.0,0.0,0.0,0.0,0.0,0.0,0.0,0.0,0.0,0.0,0.0,0.0,0.0,0.0,0.0,0.0,0.0,0.0,0.0,0.0,0.0,0.5146,0.5,0.4881,0.4712,0.0,0.0,0.0,0.0,0.0,0.0,0.0,0.0,0.0,0.0,0.0,0.0,0.0,0.0,0.0,0.0,0.0,0.0,0.0,0.0,0.0,0.0,0.0,0.0,0.0,0.0,0.0,0.0,0.0,0.0,0.0,0.0,0.0,0.0,0.0,0.0,0.0,0.0,0.0,0.0,0.0,0.0,0.0,0.0,0.0,0.0,0.0,0.0,0.0,0.0,0.0,0.0,0.0,0.0,0.0,0.0,0.0,0.0,0.0,0.0,0.0,0.0,0.0,0.0,0.0,0.0,0.0,0.0,0.0,0.0,0.0,0.0,0.0,0.0,0.0,0.0,0.0,0.0,0.0,0.0,0.0,0.0,0.0,0.0,0.0,0.0,0.0,0.0,0.0,0.0,0.0,0.0,0.0,0.0,0.0,0.0,0.0,0.0,0.0,0.0,0.0,0.0,0.0,0.0,0.0,0.0,0.0,0.0,0.0,0.0,0.5185,0.5098,0.4951,0.4743,0.4563,0.4372,0.0,0.0,0.0,0.0,0.0,0.0,0.0,0.0,0.0,0.0,0.0,0.0,0.0,0.0,0.0,0.0,0.0,0.0,0.0,0.0,0.0,0.0,0.0,0.0,0.0,0.0,0.0,0.0,0.0,0.0,0.0,0.0,0.0,0.0,0.0,0.0,0.0,0.0,0.0,0.0,0.0,0.0,0.0,0.0,0.0,0.0,0.0,0.0,0.0,0.0,0.0,0.0,0.0,0.0,0.0,0.0,0.0,0.0,0.0,0.0,0.0,0.0,0.0,0.0,0.0,0.0,0.0,0.0,0.0,0.0,0.0,0.0,0.0,0.0,0.0,0.0,0.0,0.0,0.0,0.0,0.0,0.0,0.0,0.0,0.0,0.0,0.0,0.0,0.0,0.0,0.0,0.0,0.0,0.0,0.0,0.0,0.0,0.0,0.0,0.0,0.0,0.0,0.0,0.0,0.0,0.0,0.0,0.0,0.5185,0.5127,0.5019,0.4822,0.4615,0.4436,0.0,0.0,0.0,0.0,0.0,0.0,0.0,0.0,0.0,0.0,0.0,0.0,0.0,0.0,0.0,0.0,0.0,0.0,0.0,0.0,0.0,0.0,0.0,0.0,0.0,0.0,0.0,0.0,0.0,0.0,0.0,0.0,0.0,0.0,0.0,0.0,0.0,0.0,0.0,0.0,0.0,0.0,0.0,0.0,0.0,0.0,0.0,0.0,0.0,0.0,0.0,0.0,0.0,0.0,0.0,0.0,0.0,0.0,0.0,0.0,0.0,0.0,0.0,0.0,0.0,0.0,0.0,0.0,0.0,0.0,0.0,0.0,0.0,0.0,0.0,0.0,0.0,0.0,0.0,0.0,0.0,0.0,0.0,0.0,0.0,0.0,0.0,0.0,0.0,0.0,0.0,0.0,0.0,0.0,0.0,0.0,0.0,0.0,0.0,0.0,0.0,0.0,0.0,0.0,0.0,0.0,0.0,0.0,0.0,0.5078,0.497,0.4832,0.4664,0.4514,0.4362,0.0,0.0,0.0,0.0,0.0,0.0,0.0,0.0,0.0,0.0,0.0,0.0,0.0,0.0,0.0,0.0,0.0,0.0,0.0,0.0,0.0,0.0,0.0,0.0,0.0,0.0,0.0,0.0,0.0,0.0,0.0,0.0,0.0,0.0,0.0,0.0,0.0,0.0,0.0,0.0,0.0,0.0,0.0,0.0,0.0,0.0,0.0,0.0,0.0,0.0,0.0,0.0,0.0,0.0,0.0,0.0,0.0,0.0,0.0,0.0,0.0,0.0,0.0,0.0,0.0,0.0,0.0,0.0,0.0,0.0,0.0,0.0,0.0,0.0,0.0,0.0,0.0,0.0,0.0,0.0,0.0,0.0,0.0,0.0,0.0,0.0,0.0,0.0,0.0,0.0,0.0,0.0,0.0,0.0,0.0,0.0,0.0,0.0,0.0,0.0,0.0,0.0,0.0,0.0,0.0,0.0,0.0,0.0,0.0,0.4901,0.0,0.4664,0.0,0.4382,0.4268,0.0,0.0,0.0,0.0,0.0,0.0,0.0,0.0,0.0,0.0,0.0,0.0,0.0,0.0,0.0,0.0,0.0,0.0,0.0,0.0,0.0,0.0,0.0,0.0,0.0,0.0,0.0,0.0,0.0,0.0,0.0,0.0,0.0,0.0,0.0,0.0,0.0,0.0,0.0,0.0,0.0,0.0,0.0,0.0,0.0,0.0,0.0,0.0,0.0,0.0,0.0,0.0,0.0,0.0,0.0,0.0,0.0,0.0,0.0,0.0,0.0,0.0,0.0,0.0,0.0,0.0,0.0,0.0,0.0,0.0,0.0,0.0,0.0,0.0,0.0,0.0,0.0,0.0,0.0,0.0,0.0,0.0,0.0,0.0,0.0,0.0,0.0,0.0,0.0,0.0,0.0,0.0,0.0,0.0,0.0,0.0,0.0,0.0,0.0,0.0,0.0,0.0,0.0,0.0,0.0,0.0,0.0,0.0,0.4812,0.4701,0.464,0.4519,0.4311,0.4244,0.412,0.0,0.0,0.0,0.0,0.0,0.0,0.0,0.0,0.0,0.0,0.0,0.0,0.0,0.0,0.0,0.0,0.0,0.0,0.0,0.0,0.0,0.0,0.0,0.0,0.0,0.0,0.0,0.0,0.0,0.0,0.0,0.0,0.0,0.0,0.0,0.0,0.0,0.0,0.0,0.0,0.0,0.0,0.0,0.0,0.0,0.0,0.0,0.0,0.0,0.0,0.0,0.0,0.0,0.0,0.0,0.0,0.0,0.0,0.0,0.0,0.0,0.0,0.0,0.0,0.0,0.0,0.0,0.0,0.0,0.0,0.0,0.0,0.0,0.0,0.0,0.0,0.0,0.0,0.0,0.0,0.0,0.0,0.0,0.0,0.0,0.0,0.0,0.0,0.0,0.0,0.0,0.0,0.0,0.0,0.0,0.0,0.0,0.0,0.0,0.0,0.0,0.0,0.0,0.0,0.0,0.0,0.0,0.0,0.0,0.444,0.4592,0.4595,0.4444,0.4365,0.4253,0.0,0.0,0.0,0.0,0.0,0.0,0.0,0.0,0.0,0.0,0.0,0.0,0.0,0.0,0.0,0.0,0.0,0.0,0.0,0.0,0.0,0.0,0.0,0.0,0.0,0.0,0.0,0.0,0.0,0.0,0.0,0.0,0.0,0.0,0.0,0.0,0.0,0.0,0.0,0.0,0.0,0.0,0.0,0.0,0.0,0.0,0.0,0.0,0.0,0.0,0.0,0.0,0.0,0.0,0.0,0.0,0.0,0.0,0.0,0.0,0.0,0.0,0.0,0.0,0.0,0.0,0.0,0.0,0.0,0.0,0.0,0.0,0.0,0.0,0.0,0.0,0.0,0.0,0.0,0.0,0.0,0.0,0.0,0.0,0.0,0.0,0.0,0.0,0.0,0.0,0.0,0.0,0.0,0.0,0.0,0.0,0.0,0.0,0.0,0.0,0.0,0.0,0.0,0.0,0.0,0.0,0.0,0.0,0.0,0.418,0.4533,0.4657,0.449,0.4373,0.4202,0.4054,0.0,0.0,0.0,0.0,0.0,0.0,0.0,0.0,0.0,0.0,0.0,0.0,0.0,0.0,0.0,0.0,0.0,0.0,0.0,0.0,0.0,0.0,0.0,0.0,0.0,0.0,0.0,0.0,0.0,0.0,0.0,0.0,0.0,0.0,0.0,0.0,0.0,0.0,0.0,0.0,0.0,0.0,0.0,0.0,0.0,0.0,0.0,0.0,0.0,0.0,0.0,0.0,0.0,0.0,0.0,0.0,0.0,0.0,0.0,0.0,0.0,0.0,0.0,0.0,0.0,0.0,0.0,0.0,0.0,0.0,0.0,0.0,0.0,0.0,0.0,0.0,0.0,0.0,0.0,0.0,0.0,0.0,0.0,0.0,0.0,0.0,0.0,0.0,0.0,0.0,0.0,0.0,0.0,0.0,0.0,0.0,0.0,0.0,0.0,0.0,0.0,0.0,0.0,0.0,0.0,0.0,0.0,0.0,0.3912,0.4474,0.468,0.4501,0.4248,0.4043,0.0,0.0,0.0,0.0,0.0,0.0,0.0,0.0,0.0,0.0,0.0,0.0,0.0,0.0,0.0,0.0,0.0,0.0,0.0,0.0,0.0,0.0,0.0,0.0,0.0,0.0,0.0,0.0,0.0,0.0,0.0,0.0,0.0,0.0,0.0,0.0,0.0,0.0,0.0,0.0,0.0,0.0,0.0,0.0,0.0,0.0,0.0,0.0,0.0,0.0,0.0,0.0,0.0,0.0,0.0,0.0,0.0,0.0,0.0,0.0,0.0,0.0,0.0,0.0,0.0,0.0,0.0,0.0,0.0,0.0,0.0,0.0,0.0,0.0,0.0,0.0,0.0,0.0,0.0,0.0,0.0,0.0,0.0,0.0,0.0,0.0,0.0,0.0,0.0,0.0,0.0,0.0,0.0,0.0,0.0,0.0,0.0,0.0,0.0,0.0,0.0,0.0,0.0,0.0,0.0,0.0,0.0,0.0,0.0,0.4117,0.4427,0.4529,0.4418,0.4419,0.4259,0.0,0.0,0.0,0.0,0.0,0.0,0.0,0.0,0.0,0.0,0.0,0.0,0.0,0.0,0.0,0.0,0.0,0.0,0.0,0.0,0.0,0.0,0.0,0.0,0.0,0.0,0.0,0.0,0.0,0.0,0.0,0.0,0.0,0.0,0.0,0.0,0.0,0.0,0.0,0.0,0.0,0.0,0.0,0.0,0.0,0.0,0.0,0.0,0.0,0.0,0.0,0.0,0.0,0.0,0.0,0.0,0.0,0.0,0.0,0.0,0.0,0.0,0.0,0.0,0.0,0.0,0.0,0.0,0.0,0.0,0.0,0.0,0.0,0.0,0.0,0.0,0.0,0.0,0.0,0.0,0.0,0.0,0.0,0.0,0.0,0.0,0.0,0.0,0.0,0.0,0.0,0.0,0.0,0.0,0.0,0.0,0.0,0.0,0.0,0.0,0.0,0.0,0.0,0.0,0.0,0.0,0.0,0.0,0.3902,0.3981,0.4209,0.4295,0.4236,0.4258,0.4202,0.0,0.0,0.0,0.0,0.0,0.0,0.0,0.0,0.0,0.0,0.0,0.0,0.0,0.0,0.0,0.0,0.0,0.0,0.0,0.0,0.0,0.0,0.0,0.0,0.0,0.0,0.0,0.0,0.0,0.0,0.0,0.0,0.0,0.0,0.0,0.0,0.0,0.0,0.0,0.0,0.0,0.0,0.0,0.0,0.0,0.0,0.0,0.0,0.0,0.0,0.0,0.0,0.0,0.0,0.0,0.0,0.0,0.0,0.0,0.0,0.0,0.0,0.0,0.0,0.0,0.0,0.0,0.0,0.0,0.0,0.0,0.0,0.0,0.0,0.0,0.0,0.0,0.0,0.0,0.0,0.0,0.0,0.0,0.0,0.0,0.0,0.0,0.0,0.0,0.0,0.0,0.0,0.0,0.0,0.0,0.0,0.0,0.0,0.0,0.0,0.0,0.0,0.0,0.0,0.0,0.0,0.0,0.0,0.3699,0.37,0.3898,0.4014,0.3965,0.4001,0.3952,0.0,0.0,0.0,0.0,0.0,0.0,0.0,0.0,0.0,0.0,0.0,0.0,0.0,0.0,0.0,0.0,0.0,0.0,0.0,0.0,0.0,0.0,0.0,0.0,0.0,0.0,0.0,0.0,0.0,0.0,0.0,0.0,0.0,0.0,0.0,0.0,0.0,0.0,0.0,0.0,0.0,0.0,0.0,0.0,0.0,0.0,0.0,0.0,0.0,0.0,0.0,0.0,0.0,0.0,0.0,0.0,0.0,0.0,0.0,0.0,0.0,0.0,0.0,0.0,0.0,0.0,0.0,0.0,0.0,0.0,0.0,0.0,0.0,0.0,0.0,0.0,0.0,0.0,0.0,0.0,0.0,0.0,0.0,0.0,0.0,0.0,0.0,0.0,0.0,0.0,0.0,0.0,0.0,0.0,0.0,0.0,0.0,0.0,0.0,0.0,0.0,0.0,0.0,0.0,0.0,0.0,0.0,0.0,0.3359,0.3599,0.3566,0.3618,0.375,0.3911,0.385,0.0,0.0,0.0,0.0,0.0,0.0,0.0,0.0,0.0,0.0,0.0,0.0,0.0,0.0,0.0,0.0,0.0,0.0,0.0,0.0,0.0,0.0,0.0,0.0,0.0,0.0,0.0,0.0,0.0,0.0,0.0,0.0,0.0,0.0,0.0,0.0,0.0,0.0,0.0,0.0,0.0,0.0,0.0,0.0,0.0,0.0,0.0,0.0,-0.083,0.0,0.0,0.0,0.0,0.0,0.0,0.0,0.0,0.0,0.0,0.0,0.0,0.0,0.0,0.0,0.0,0.0,0.0,0.0,0.0,0.0,0.0,0.0,0.0,0.0,0.0,0.0,0.0,0.0,0.0,0.0,0.0,0.0,0.0,0.0,0.0,0.0,0.0,0.0,0.0,0.0,0.0,0.0,0.0,0.0,0.0,0.0,0.0,0.0,0.0,0.0,0.0,0.0,0.0,0.0,0.0,0.0,0.0,0.0,0.3149,0.3434,0.3339,0.3305,0.3421,0.3568,0.3592,0.0,0.0,0.0,0.0,0.0,0.0,0.0,0.0,0.0,0.0,0.0,0.0,0.0,0.0,0.0,0.0,0.0,0.0,0.0,0.0,0.0,0.0,0.0,0.0,0.0,0.0,0.0,0.0,0.0,0.0,0.0,0.0,0.0,0.0,0.0,0.0,0.0,0.0,0.0,0.0,0.0,0.0,0.0,0.0,0.0,0.0,0.0,0.0,0.0,0.0,0.0,0.0,0.0,0.0,0.0,0.0,0.0,0.0,0.0,0.0,0.0,0.0,0.0,0.0,0.0,0.0,0.0,0.0,0.0,0.0,0.0,0.0,0.0,0.0,0.0,0.0,0.0,0.0,0.0,0.0,0.0,0.0,0.0,0.0,0.0,0.0,0.0,0.0,0.0,0.0,0.0,0.0,0.0,0.0,0.0,0.0,0.0,0.0,0.0,0.0,0.0,0.0,0.0,0.0,0.0,0.0,0.0,0.2851,0.2926,0.3152,0.3048,0.3001,0.302,0.3119,0.3204,0.3248,0.0,0.0,0.0,0.0,0.0,0.0,0.0,0.0,0.0,0.0,0.0,0.0,0.0,0.0,0.0,0.0,0.0,0.0,0.0,0.0,0.0,0.0,0.0,0.0,0.0,0.0,0.0,0.0,0.0,0.0,0.0,0.0,0.0,0.0,0.0,0.0,0.0,0.0,-0.0056,-0.0281,0.0,0.0,0.0,0.0,0.0,0.0,0.0,0.0,-0.149,0.0,0.0,0.0,0.0,0.0,0.0,0.0,0.0,0.0,0.0,0.0,0.0,0.0,0.0,0.0,0.0,0.0,0.0,0.0,0.0,0.0,0.0,0.0,0.0,0.0,0.0,0.0,0.0,0.0,0.0,0.0,0.0,0.0,0.0,0.0,0.0,0.0,0.0,0.0,0.0,0.0,0.0,0.0,0.0,0.0,0.0,0.0,0.0,0.0,0.0,0.0,0.0,0.0,0.0,0.0,0.0,0.2498,0.2498,0.2501,0.2564,0.2534,0.2568,0.267,0.2648,0.2634,0.2657,0.0,0.0,0.0,0.0,0.0,0.0,0.0,0.0,0.0,0.0,0.0,0.0,0.0,0.0,0.0,0.0,0.0,0.0,0.0,0.0,0.0,0.0,0.0,0.0,0.0,0.0,0.0,0.0,0.0,0.0,0.0,0.0,0.0,0.0,0.0,0.0,0.0,0.0,0.0,-0.0518,-0.0663,0.0,0.0,0.0,0.0,0.0,0.0,0.0,0.0,-0.1972,0.0,0.0,0.0,0.0,0.0,0.0,0.0,0.0,0.0,0.0,0.0,0.0,0.0,0.0,0.0,0.0,0.0,0.0,0.0,0.0,0.0,0.0,0.0,0.0,0.0,0.0,0.0,0.0,0.0,0.0,0.0,0.0,0.0,0.0,0.0,0.0,0.0,0.0,0.0,0.0,0.0,0.0,0.0,0.0,0.0,0.0,0.0,0.0,0.0,0.0,0.0,0.0,0.0,0.0,0.0,0.2255,0.2164,0.2133,0.2139,0.2105,0.2132,0.2165,0.2189,0.2172,0.0,0.0,0.0,0.0,0.0,0.0,0.0,0.0,0.0,0.0,0.0,0.0,0.0,0.0,0.0,0.0,0.0,0.0,0.0,0.0,0.0,0.0,0.0,0.0,0.0,0.0,0.0,0.0,0.0,0.0,0.0,0.0,0.0,0.0,0.0,0.0,0.0,0.0,0.0,0.0,-0.075,-0.0911,-0.109,0.0,0.0,0.0,0.0,0.0,0.0,-0.2221,-0.2351,0.0,0.0,0.0,0.0,0.0,0.0,0.0,0.0,0.0,0.0,0.0,0.0,0.0,0.0,0.0,0.0,0.0,0.0,0.0,0.0,0.0,0.0,0.0,0.0,0.0,0.0,0.0,0.0,0.0,0.0,0.0,0.0,0.0,0.0,0.0,0.0,0.0,0.0,0.0,0.0,0.0,0.0,0.0,0.0,0.0,0.0,0.0,0.0,0.0,0.0,0.0,0.0,0.0,0.0,0.0,0.1945,0.1814,0.1716,0.1679,0.1628,0.1594,0.1594,0.1701,0.1739,0.0,0.0,0.0,0.0,0.0,0.0,0.0,0.0,0.0,0.0,0.0,0.0,0.0,0.0,0.0,0.0,0.0,0.0,0.0,0.0,0.0,0.0,0.0,0.0,0.0,0.0,0.0,0.0,0.0,0.0,0.0,0.0,0.0,0.0,0.0,0.0,0.0,0.0,0.0,0.0,0.0,-0.1283,-0.153,-0.1695,0.0,0.0,0.0,0.0,-0.2524,-0.259,0.0,0.0,0.0,0.0,0.0,0.0,0.0,0.0,0.0,0.0,0.0,0.0,0.0,0.0,0.0,0.0,0.0,0.0,0.0,0.0,0.0,0.0,0.0,0.0,0.0,0.0,0.0,0.0,0.0,0.0,0.0,0.0,0.0,0.0,0.0,0.0,0.0,0.0,0.0,0.0,0.0,0.0,0.0,0.0,0.0,0.0,0.0,0.0,0.0,0.0,0.0,0.0,0.0,0.0,0.0,0.0,0.1388,0.1276,0.1097,0.0933,0.0916,0.0916,0.0916,0.1086,0.1201,0.0,0.0,0.0,0.0,0.0,0.0,0.0,0.0,0.0,0.0,0.0,0.0,0.0,0.0,0.0,0.0,0.0,0.0,0.0,0.0,0.0,0.0,0.0,0.0,0.0,0.0,0.0,0.0,0.0,0.0,0.0,0.0,0.0,0.0,0.0,0.0,0.0,0.0,0.0,0.0,0.0,-0.1873,-0.2086,-0.2327,-0.2526,0.0,0.0,-0.3,-0.3006,-0.3072,0.0,0.0,0.0,0.0,0.0,0.0,0.0,0.0,0.0,0.0,0.0,0.0,0.0,0.0,0.0,0.0,0.0,0.0,0.0,0.0,0.0,0.0,0.0,0.0,0.0,0.0,0.0,0.0,0.0,0.0,0.0,0.0,0.0,0.0,0.0,0.0,0.0,0.0,0.0,0.0,0.0,0.0,0.0,0.0,0.0,0.0,0.0,0.0,0.0,0.0,0.0,0.0,0.0,0.0,0.0,0.1085,0.0844,0.0686,0.052,0.0421,0.0353,0.037,0.0403,0.0487,0.0589,0.0,0.0,0.0,0.0,0.0,0.0,0.0,0.0,0.0,0.0,0.0,0.0,0.0,0.0,0.0,0.0,0.0,0.0,0.0,0.0,0.0,0.0,0.0,0.0,0.0,0.0,0.0,0.0,0.0,0.0,0.0,0.0,0.0,0.0,0.0,0.0,0.0,0.0,0.0,0.0,0.0,0.0,-0.2615,-0.2783,0.0,0.0,0.0,-0.3389,-0.3368,0.0,0.0,0.0,0.0,0.0,0.0,0.0,0.0,0.0,0.0,0.0,0.0,0.0,0.0,0.0,0.0,0.0,0.0,0.0,0.0,0.0,0.0,0.0,0.0,0.0,0.0,0.0,0.0,0.0,0.0,0.0,0.0,0.0,0.0,0.0,0.0,0.0,0.0,0.0,0.0,0.0,0.0,0.0,0.0,0.0,0.0,0.0,0.0,0.0,0.0,0.0,0.0,0.0,0.0,0.0,0.0,0.0,0.0279,0.0092,-0.0054,-0.0155,-0.0186,-0.0185,-0.0134,-0.0101,0.0,0.0,0.0,0.0,0.0,0.0,0.0,0.0,0.0,0.0,0.0,0.0,0.0,0.0,0.0,0.0,0.0,0.0,0.0,0.0,0.0,0.0,0.0,0.0,0.0,0.0,0.0,-0.0056,0.0,0.0,0.0,0.0,0.0,0.0,0.0,0.0,0.0,0.0,0.0,0.0,0.0,0.0,-0.2865,-0.3183,-0.3297,-0.3429,0.0,0.0,-0.3777,-0.3777,-0.3874,-0.4,0.0,0.0,0.0,0.0,0.0,0.0,0.0,0.0,0.0,0.0,0.0,0.0,0.0,0.0,0.0,0.0,0.0,0.0,0.0,0.0,0.0,0.0,0.0,0.0,0.0,0.0,0.0,0.0,0.0,0.0,0.0,0.0,0.0,0.0,0.0,0.0,0.0,0.0,0.0,0.0,0.0,0.0,0.0,0.0,0.0,0.0,0.0,0.0,0.0,0.0,0.0,0.0,0.0,0.0,0.0,-0.0351,-0.0485,-0.0637,-0.0815,-0.0777,-0.074,-0.074,-0.0673,-0.0588,0.0,0.0,0.0,0.0,0.0,0.0,0.0,0.0,0.0,0.0,0.0,0.0,0.0,0.0,0.0,0.0,0.0,0.0,0.0,0.0,0.0,0.0,0.0,0.0,0.0,0.0,0.0,0.0,0.0,0.0,0.0,0.0,0.0,0.0,0.0,0.0,0.0,0.0,0.0,0.0,0.0,-0.3524,-0.3802,-0.3957,-0.4092,0.0,0.0,-0.4248,-0.4248,-0.4408,-0.4545,-0.4564,0.0,0.0,0.0,0.0,0.0,0.0,0.0,0.0,0.0,0.0,0.0,0.0,0.0,0.0,0.0,0.0,0.0,0.0,0.0,0.0,0.0,0.0,0.0,0.0,0.0,0.0,0.0,0.0,0.0,0.0,0.0,0.0,0.0,0.0,0.0,0.0,0.0,0.0,0.0,0.0,0.0,0.0,0.0,0.0,0.0,0.0,0.0,0.0,0.0,0.0,0.0,0.0,0.0,-0.0821,-0.1023,-0.1192,-0.1314,-0.1383,-0.1329,-0.1274,-0.1223,-0.1243,-0.1208,0.0,0.0,0.0,0.0,0.0,0.0,0.0,0.0,0.0,0.0,0.0,0.0,0.0,0.0,0.0,0.0,0.0,0.0,0.0,0.0,0.0,0.0,0.0,0.0,0.0,0.0,0.0,0.0,-0.2583,-0.2846,-0.3112,0.0,0.0,0.0,0.0,0.0,0.0,0.0,0.0,0.0,0.0,-0.4145,-0.4248,-0.4344,0.0,0.0,-0.4758,-0.4858,-0.4864,-0.5051,-0.5252,-0.5317,-0.5408,0.0,0.0,0.0,0.0,0.0,0.0,0.0,0.0,0.0,0.0,0.0,0.0,0.0,0.0,0.0,0.0,0.0,0.0,0.0,0.0,0.0,0.0,0.0,0.0,0.0,0.0,0.0,0.0,0.0,0.0,0.0,0.0,0.0,0.0,0.0,0.0,0.0,0.0,0.0,0.0,0.0,0.0,0.0,0.0,0.0,0.0,0.0,0.0,0.0,0.0,0.0,0.0,-0.1476,-0.1668,-0.1842,-0.1969,-0.1998,-0.1904,-0.1821,-0.1767,-0.1789,-0.179,0.0,0.0,0.0,0.0,0.0,0.0,0.0,0.0,0.0,0.0,0.0,0.0,0.0,0.0,0.0,0.0,0.0,0.0,0.0,0.0,0.0,0.0,0.0,0.0,0.0,0.0,0.0,0.0,-0.3509,-0.3756,-0.3918,0.0,0.0,0.0,0.0,0.0,0.0,0.0,0.0,0.0,0.0,-0.4717,-0.4669,-0.4828,-0.4981,-0.5092,-0.5324,-0.55,-0.5517,-0.5713,-0.59,-0.5953,0.0,0.0,0.0,0.0,0.0,0.0,0.0,0.0,0.0,0.0,0.0,0.0,0.0,0.0,0.0,0.0,0.0,0.0,0.0,0.0,0.0,0.0,0.0,0.0,0.0,0.0,0.0,0.0,0.0,0.0,0.4596,0.0,0.0,0.0,0.0,0.0,0.0,0.0,0.0,0.0,0.0,0.0,0.0,0.0,0.0,0.0,0.0,0.0,0.0,0.0,0.0,0.0,0.0,-0.2142,-0.2297,-0.2413,-0.255,-0.2667,-0.2479,-0.2373,-0.2388,-0.2321,-0.2305,-0.2289,0.0,0.0,0.0,0.0,0.0,0.0,0.0,0.0,0.0,0.0,0.0,0.0,0.0,0.0,0.0,0.0,0.0,0.0,0.0,0.0,0.0,0.0,0.0,0.0,0.0,0.0,-0.379,-0.4152,-0.4466,0.0,0.0,0.0,0.0,0.0,0.0,0.0,0.0,0.0,0.0,-0.5091,-0.5217,-0.5042,-0.5432,-0.578,-0.577,-0.6019,-0.6189,-0.6189,-0.6361,-0.6435,0.0,0.0,0.0,0.0,0.0,0.0,0.0,0.0,0.0,0.0,0.0,0.0,0.0,0.0,0.0,0.0,0.0,0.0,0.0,0.0,0.0,0.0,0.0,0.0,0.0,0.0,0.0,0.4181,0.3989,0.0,0.0,0.0,0.0,0.0,0.0,0.0,0.0,0.0,0.0,0.0,-0.0388,-0.0932,0.0,0.0,0.0,0.0,0.0,0.0,0.0,0.0,0.0,0.0,0.0,0.0,-0.2857,-0.3158,-0.3125,-0.3161,-0.3299,-0.3073,-0.2936,-0.2933,-0.29,-0.298,-0.3155,0.0,0.0,0.0,0.0,0.0,0.0,0.0,0.0,0.0,0.0,0.0,0.0,0.0,0.0,0.0,0.0,0.0,0.0,0.0,0.0,0.0,0.0,0.0,0.0,0.0,-0.4581,0.0,0.0,0.0,0.0,0.0,0.0,0.0,0.0,0.0,0.0,0.0,-0.5847,-0.5805,-0.6097,-0.6216,-0.6029,-0.6247,-0.6467,0.0,0.0,0.0,0.0,0.0,0.0,0.0,0.0,0.0,0.0,0.0,0.0,0.0,0.0,-0.6844,-0.6583,-0.6668,-0.6924,-0.736,0.0,0.0,0.0,0.0,0.0,0.0,0.0,0.0,0.0,0.0,0.0,0.0,0.0,0.0,0.331,0.0,0.3336,0.0,0.0,0.0,0.0,0.0,0.0,0.0,0.0,-0.0478,-0.1031,-0.156,-0.2088,-0.246,0.0,-0.3026,-0.2905,0.0,0.0,0.0,0.0,0.0,0.0,0.0,0.0,-0.3684,-0.395,-0.3864,-0.3845,-0.3879,-0.3661,-0.3554,-0.355,-0.3673,-0.3814,-0.3976,-0.4139,-0.4164,0.0,0.0,0.0,0.0,0.0,0.0,0.0,0.0,0.0,0.0,0.0,0.0,0.0,0.0,0.0,0.0,0.0,0.0,0.0,0.0,0.0,0.0,0.0,-0.5744,0.0,0.0,0.0,0.0,0.0,0.0,0.0,0.0,0.0,-0.6252,-0.6444,-0.6617,-0.664,-0.6894,-0.7001,-0.6808,0.0,0.0,0.0,0.0,0.0,0.0,0.0,-0.7865,-0.7878,-0.7759,-0.7669,-0.7662,-0.7627,-0.76,-0.7579,0.0,0.0,-0.7267,-0.731,-0.7594,-0.8214,-0.8318,-0.8444,-0.8897,-0.9059,-0.9113,0.0,0.0,0.0,0.0,0.0,0.0,0.0,0.0,0.2684,0.2536,0.0,0.2414,0.0,0.0,0.0,0.0,0.0,0.0177,0.0,0.0,-0.1593,-0.2143,-0.2654,-0.3141,-0.3506,-0.3749,-0.4111,-0.434,-0.4457,-0.3815,0.0,0.0,0.0,0.0,0.0,0.0,-0.4629,-0.464,-0.4629,-0.4561,-0.4443,-0.4295,-0.4218,-0.4225,-0.4611,-0.4795,-0.4742,-0.5056,-0.5152,-0.4963,-0.4772,0.0,0.0,0.0,0.0,0.0,0.0,0.0,0.0,0.0,0.0,0.0,0.0,0.0,0.0,0.0,0.0,0.0,0.0,0.0,0.0,-0.6634,0.0,0.0,0.0,0.0,0.0,0.0,0.0,0.0,0.0,0.0,-0.7105,-0.7161,-0.7265,-0.7324,0.0,0.0,0.0,0.0,-0.7942,-0.7934,-0.8218,-0.8406,-0.8414,-0.8311,-0.8229,-0.8237,0.0,0.0,-0.8062,-0.8041,-0.8041,-0.7953,-0.8324,-0.8525,-0.8239,-0.8158,-0.8379,-0.9013,-0.9152,-0.9252,-0.9523,-0.975,-0.9795,0.0339,0.0,0.0,0.0,0.0,0.1577,0.1458,0.1384,0.1214,0.1075,0.1011,0.0987,0.0,0.0,0.0,0.0,0.0,0.0,-0.1629,-0.2224,-0.2711,-0.3221,-0.3761,-0.4236,-0.4582,-0.4857,-0.5198,-0.5363,-0.5418,-0.5308,-0.5039,-0.4644,0.0,0.0,0.0,0.0,-0.5382,-0.5403,-0.5381,-0.5323,-0.5188,-0.4974,-0.4831,-0.4766,-0.5158,-0.5402,-0.5487,-0.5892,-0.6068,-0.5906,-0.597,0.0,0.0,0.0,0.0,0.0,0.0,0.0,0.0,0.0,0.0,0.0,0.0,0.0,0.0,0.0,0.0,0.0,0.0,0.0,-0.7247,-0.7706,-0.7861,0.0,0.0,0.0,0.0,0.0,0.0,0.0,0.0,0.0,-0.8206,-0.7959,-0.7846,0.0,0.0,-0.8374,-0.8383,-0.8556,-0.8683,-0.8674,-0.8767,0.0,-0.8842,-0.8793,-0.8814,-0.8895,-0.8926,-0.893,-0.8938,-0.8886,-0.8805,-0.8712,-0.8989,-0.9297,-0.9418,-0.9263,-0.9367,-1.0008,-1.0232,-1.0467,-1.0947,-1.1024,-1.0958,-0.1519,-0.0601,0.0153,0.0452,0.0376,0.0226,0.0075,-0.005,-0.0176,-0.0278,-0.0308,-0.0308,-0.0388,-0.0526,-0.0868,0.0,0.0,0.0,-0.2734,-0.332,-0.3788,-0.426,-0.4759,-0.5195,-0.5527,-0.575,-0.6077,-0.6241,-0.6245,-0.6381,-0.6268,-0.5991,0.0,0.0,-0.6029,-0.6228,-0.6292,-0.6299,-0.6302,-0.6166,-0.5886,-0.556,-0.538,-0.5402,-0.5758,-0.5995,-0.6085,-0.6515,-0.6764,-0.6736,-0.6939,-0.6985,0.0,0.0,0.0,0.0,0.0,0.0,0.0,0.0,0.0,0.0,0.0,-0.5154,-0.5368,0.0,0.0,0.0,-0.7255,-0.7744,-0.8061,-0.8532,0.0,0.0,0.0,0.0,0.0,0.0,0.0,-0.8585,-0.8672,-0.8773,-0.8898,-0.8728,-0.8626,-0.8744,-0.8866,-0.9007,-0.9145,0.0,-0.9286,-0.9274,-0.9286,-0.9266,-0.9266,-0.9266,-0.9306,-0.9386,-0.9426,-0.9457,-0.9457,-0.9426,-0.9337,-0.9229,-0.9549,-0.9947,-1.0089,-1.0284,-1.0547,-1.0955,-1.1096,-1.1305,-1.1758,-1.1828,-1.1794,-0.3142,-0.2901,-0.1463,-0.0914,-0.0988,-0.1115,-0.1292,-0.1445,-0.1521,-0.1549,-0.1545,-0.1573,-0.1656,-0.1789,-0.2155,0.0,-0.3044,-0.3347,-0.379,-0.4319,-0.4759,-0.523,-0.5704,-0.6105,-0.6372,-0.649,-0.682,-0.6982,-0.6982,-0.7112,-0.7241,-0.7369,-0.6993,-0.6869,-0.6977,-0.7177,-0.7251,-0.7254,-0.7254,-0.7032,-0.6567,-0.6168,-0.5983,-0.6103,-0.6398,-0.6565,-0.6587,-0.6997,-0.7284,-0.7424,-0.7697,-0.8056,-0.842,0.0,0.0,0.0,0.0,0.0,0.0,0.0,0.0,0.0,0.0,0.0,0.0,0.0,0.0,0.0,-0.8824,0.0,-0.8719,-0.925,0.0,0.0,0.0,-0.975,-0.9735,-0.9551,-0.9459,-0.9567,0.0,0.0,-0.9392,-0.9486,-0.9478,-0.9379,-0.9359,-0.9428,-0.9693,-0.9703,-0.9713,-0.9713,-0.9723,-0.9723,-0.9703,-0.9693,-0.9713,-0.9733,-0.9742,-0.9762,-0.9762,-0.9742,-0.9605,-0.9448,-1.0,-1.0512,-1.04,-1.1173,-1.1902,-1.1776,-1.1785,-1.1868,-1.2135,-1.2249,-1.2283,-0.4145,-0.4069,-0.344,-0.2889,-0.2425,-0.2638,-0.2724,-0.2674,-0.2864,-0.2852,-0.2705,-0.2874,-0.3051,-0.3267,-0.3378,-0.3685,-0.4128,-0.4325,-0.4708,-0.5289,-0.5586,-0.6,-0.6458,-0.6858,-0.7106,-0.7246,-0.7536,-0.7664,-0.7664,-0.7717,-0.7797,-0.7969,-0.7889,-0.7729,-0.7536,-0.7803,-0.786,-0.7658,-0.7772,-0.7597,-0.7204,-0.7165,-0.7146,-0.7069,-0.7106,-0.7159,-0.7276,-0.7475,-0.7561,-0.7567,-0.8052,-0.8302,-0.8201,-0.8352,0.0,0.0,0.0,0.0,0.0,0.0,0.0,0.0,0.0,-0.7277,-0.7702,0.0,-0.8507,0.0,-0.9996,-1.0465,-1.0339,-1.0517,0.0,0.0,-1.02,-1.0191,-1.0086,-1.0212,-1.0285,-1.033,-1.0252,-1.0185,-1.0206,-1.0009,-0.9873,-0.9902,-0.9794,-0.9744,-0.9902,-0.9931,-0.9931,-0.9931,-0.9921,-0.9931,-0.9931,-0.998,-0.999,-1.001,-1.0088,-1.0157,-1.0157,-1.0069,-0.999,-0.9969,-1.0529,-1.096,-1.099,-1.1729,-1.2325,-1.2431,-1.2455,-1.2529,-1.2686,-1.2661,-1.2612,-0.4895,-0.4883,-0.477,-0.4465,-0.407,-0.3818,-0.3707,-0.3741,-0.3852,-0.3827,-0.3741,-0.3885,-0.4135,-0.4377,-0.4377,-0.4653,-0.5066,-0.5175,-0.5532,-0.6082,-0.6305,-0.663,-0.7058,-0.7408,-0.7649,-0.7821,-0.8017,-0.8117,-0.8117,-0.8117,-0.8209,-0.8374,-0.8395,-0.8321,-0.8215,-0.8315,-0.8298,-0.8146,-0.812,-0.7978,-0.7768,-0.7653,-0.7589,-0.7522,-0.7493,-0.7577,-0.7761,-0.7897,-0.807,-0.8296,-0.8732,-0.902,-0.9121,-0.9264,-0.9298,0.0,0.0,0.0,0.0,0.0,0.0,0.0,0.0,0.0,0.0,0.0,-0.9392,-0.9904,-1.0647,-1.1069,-1.0999,-1.1202,-1.1268,-1.1049,-1.1088,-1.1157,-1.1125,-1.1121,-1.1095,-1.1173,-1.1004,-1.0892,-1.0892,-1.0807,-1.0736,-1.0767,-1.0726,-1.054,-1.0204,-1.0137,-1.0137,-1.0127,-1.0127,-1.0137,-1.0127,-1.0166,-1.0186,-1.0205,-1.0264,-1.0322,-1.0303,-1.0244,-1.0244,-1.0426,-1.0903,-1.1354,-1.1499,-1.2077,-1.2593,-1.2676,-1.2759,-1.2832,-1.2891,-1.2832,-1.2783,-0.5558,-0.5568,-0.5632,-0.5664,-0.5625,-0.477,-0.4512,-0.4656,-0.4629,-0.4629,-0.4656,-0.4798,-0.4987,-0.5211,-0.5234,-0.5477,-0.5855,-0.5914,-0.6213,-0.6756,-0.6928,-0.7198,-0.7542,-0.7848,-0.8088,-0.8268,-0.8374,-0.8454,-0.8454,-0.8454,-0.8527,-0.8626,-0.8633,-0.8685,-0.8778,-0.8685,-0.8626,-0.8626,-0.8383,-0.8284,-0.8277,-0.7924,-0.7771,-0.783,-0.7822,-0.7898,-0.8174,-0.8244,-0.8553,-0.9105,-0.9398,-0.9773,-1.0214,-1.0299,-1.0172,0.0,-0.9731,0.0,0.0,0.0,0.0,0.0,0.0,0.0,0.0,-1.0086,-1.03,-1.0667,-1.1125,-1.134,-1.1283,-1.1644,-1.186,-1.1808,-1.202,-1.22,-1.2314,-1.2038,-1.1879,-1.1997,-1.172,-1.1508,-1.1553,-1.1611,-1.1618,-1.1591,-1.1667,-1.142,-1.0735,-1.0577,-1.0557,-1.0449,-1.0371,-1.0332,-1.0332,-1.0332,-1.0332,-1.0361,-1.0361,-1.0341,-1.0341,-1.0361,-1.0459,-1.0799,-1.1184,-1.1586,-1.1918,-1.2411,-1.2764,-1.2774,-1.2871,-1.292,-1.2905,-1.2881,-1.2856,-0.6453,-0.6423,-0.6145,-0.6074,-0.6139,-0.5788,-0.5559,-0.5399,-0.5403,-0.5371,-0.5399,-0.5532,-0.5696,-0.5837,-0.5937,-0.61,-0.63,-0.6458,-0.6707,-0.7031,-0.7375,-0.7622,-0.7842,-0.8262,-0.8494,-0.8527,-0.8672,-0.8725,-0.8725,-0.8725,-0.8725,-0.8752,-0.8752,-0.8778,-0.8778,0.0,0.0,0.0,-0.8698,-0.8691,-0.8691,-0.8619,-0.8586,-0.8579,-0.8385,0.0,-0.8493,-0.8379,-0.8459,-0.8771,-0.9113,0.0,0.0,0.0,0.0,0.0,0.0,0.0,0.0,0.0,0.0,0.0,-1.0633,-1.0608,-1.0676,-1.1199,-1.161,-1.1774,-1.2089,-1.2258,-1.2243,-1.2334,-1.2357,-1.2366,-1.2408,-1.2431,-1.2455,-1.2477,-1.2512,-1.2527,-1.2246,-1.209,-1.2174,-1.1965,-1.1832,-1.1949,-1.1942,-1.1871,-1.173,-1.1649,-1.1497,-1.1196,-1.0795,-1.0564,-1.0554,-1.0544,-1.0525,-1.0544,-1.0544,-1.0525,-1.0525,-1.0525,-1.0704,-1.1135,-1.1524,-1.1941,-1.2367,-1.2809,-1.3108,-1.3108,-1.3122,-1.3094,-1.2929,-1.2905,-1.2915,-0.7085,0.0,-0.6831,-0.6714,0.0,-0.6534,-0.6395,-0.6223,-0.5996,-0.5946,-0.6005,-0.605,-0.6245,-0.644,-0.6517,-0.6652,-0.6847,-0.6955,-0.7166,-0.7494,-0.7708,-0.7943,-0.8262,-0.8501,-0.8633,-0.8718,-0.8752,-0.8778,-0.8778,-0.8778,-0.8831,-0.891,-0.891,-0.8936,-0.9008,-0.8982,-0.8929,-0.8778,-0.8778,-0.8831,-0.8903,-0.891,-0.8936,-0.9008,-0.8865,0.0,0.0,0.0,0.0,0.0,0.0,0.0,0.0,-0.9865,0.0,-1.0367,-1.02,-1.0297,-1.0753,-1.0675,-1.0803,-1.1251,-1.1477,-1.1528,-1.1402,-1.1828,-1.215,-1.2298,-1.248,-1.2578,-1.2603,-1.2652,-1.27,-1.271,-1.27,-1.27,-1.27,-1.2759,-1.2798,-1.2788,-1.2719,-1.2667,-1.2718,-1.2633,-1.2506,-1.2587,-1.2701,-1.2781,-1.2728,-1.2324,-1.1833,-1.1368,-1.1126,-1.0854,-1.0652,-1.0582,-1.0602,-1.0582,-1.0582,-1.0582,-1.0582,-1.0582,-1.0803,-1.1428,-1.1781,-1.2091,-1.2745,-1.3067,-1.3218,-1.3218,-1.3218,-1.317,-1.3079,-1.3045,-1.3045,-0.7582,-0.7547,-0.7539,-0.7441,-0.7247,-0.7169,-0.706,-0.6982,0.0,0.0,0.0,-0.6549,-0.6712,-0.696,-0.7014,-0.7149,-0.7365,-0.7392,-0.7607,-0.7955,-0.8008,-0.8235,-0.86,-0.8626,-0.8692,-0.8778,-0.8778,-0.8811,-0.8831,-0.8831,-0.8883,-0.9008,-0.9035,-0.908,-0.9185,-0.9178,-0.9113,-0.891,-0.891,-0.8936,-0.9035,-0.9035,-0.908,-0.9185,-0.9211,-0.923,-0.9263,-0.929,-0.942,-0.9673,-0.9692,-0.9862,-1.0265,-1.0316,-1.0411,-1.0675,-1.0624,-1.0744,-1.1124,-1.1074,-1.1276,-1.1778,-1.215,-1.2258,-1.1968,-1.2224,-1.2431,-1.2529,-1.2661,-1.2725,-1.2735,-1.2822,-1.2915,-1.2915,-1.2915,-1.2905,-1.2905,-1.2929,-1.2929,-1.2929,-1.3017,-1.3148,-1.3152,-1.3198,-1.329,-1.3328,-1.3467,-1.3681,-1.3588,-1.2884,-1.2177,-1.1859,-1.1706,-1.1409,-1.0971,-1.0879,-1.0789,-1.0756,-1.0727,-1.0708,-1.0708,-1.0727,-1.1053,-1.1889,-1.203,-1.2418,-1.3128,-1.3375,-1.3348,-1.3348,-1.3362,-1.3338,-1.3338,-1.3348,-1.3314,-0.8081,-0.8104,-0.8075,-0.8133,-0.8193,-0.7762,-0.7505,-0.7413,-0.709,-0.6977,-0.7004,-0.7117,-0.7209,-0.7236,-0.7365,-0.7494,-0.7649,-0.7768,-0.7955,-0.8168,-0.8395,-0.8547,-0.86,-0.8718,-0.8778,-0.8778,-0.8785,-0.8857,-0.8956,-0.8962,-0.9035,-0.9166,-0.9166,-0.9192,-0.9178,-0.9178,-0.9237,-0.9309,-0.9178,-0.9159,-0.9159,-0.9185,-0.9159,-0.9211,-0.9316,-0.9439,-0.9536,-0.9655,-0.9792,-0.9947,-0.994,-1.0058,-1.029,-1.0316,-1.0419,-1.0675,-1.0794,-1.0972,-1.1251,-1.1469,-1.1769,-1.2175,-1.248,-1.2529,-1.2283,-1.248,-1.2661,-1.2676,-1.2808,-1.2856,-1.2856,-1.2881,-1.2915,-1.2915,-1.2915,-1.2915,-1.2915,-1.3002,-1.3051,-1.3085,-1.3142,-1.3218,-1.3334,-1.3467,-1.3597,-1.3702,-1.3868,-1.3975,-1.3984,-1.3552,-1.3156,-1.2985,-1.2668,-1.2246,-1.1803,-1.1707,-1.1529,-1.1181,-1.1109,-1.1099,-1.1099,-1.1141,-1.1478,-1.232,-1.2499,-1.289,-1.3678,-1.3892,-1.3868,-1.3868,-1.3844,-1.3858,-1.3834,-1.3844,-1.3716,-0.863,-0.8646,-0.8637,-0.864,-0.8642,-0.8481,-0.8372,-0.8321,-0.8315,-0.7899,-0.7333,-0.7461,-0.7574,-0.7634,-0.7794,-0.7949,-0.8082,-0.8284,-0.8467,-0.865,-0.8963,-0.9139,-0.9223,-0.9334,-0.939,-0.939,-0.9501,-0.9584,-0.9618,-0.9466,-0.9436,-0.9583,-0.9566,-0.9558,-0.9629,-0.9636,-0.9655,-0.9732,-0.9439,-0.9394,-0.9532,-0.9532,-0.9558,-0.9629,-0.9784,-0.9914,-0.9991,-1.0102,-1.0205,-1.0257,-1.0257,-1.0342,-1.0496,-1.0573,-1.0744,-1.0998,-1.115,-1.1377,-1.1694,-1.2051,-1.2332,-1.2505,-1.271,-1.2749,-1.2627,-1.2735,-1.2808,-1.2798,-1.2881,-1.2915,-1.2915,-1.2915,-1.2915,-1.2915,-1.2915,-1.2929,-1.3002,-1.3061,-1.3123,-1.3176,-1.33,-1.3443,-1.3481,-1.3692,-1.3868,-1.3999,-1.4197,-1.4372,-1.4511,-1.4301,-1.3981,-1.3585,-1.3325,-1.3011,-1.2577,-1.2243,-1.2038,-1.1811,-1.1532,-1.1392,-1.1392,-1.1573,-1.2039,-1.2644,-1.2979,-1.3454,-1.4123,-1.4221,-1.4221,-1.4197,-1.4221,-1.4197,-1.415,-1.4046,-1.3868,-0.9177,-0.9177,-0.921,-0.9158,-0.9095,-0.913,-0.9124,-0.9091,-0.923,-0.8761,-0.799,-0.8036,-0.8124,-0.8239,-0.8375,-0.8511,-0.8651,-0.8871,-0.9024,-0.9225,-0.9471,-0.9686,-0.9802,-0.9911,-0.9962,-0.9991,-1.0142,-1.0228,-1.0222,-1.0009,-0.9993,-1.013,-1.0059,-1.0061,-1.0191,-1.0122,-1.0102,-1.012,-0.9829,-0.9758,-0.9903,-0.9955,-1.0007,-1.0128,-1.0283,-1.0401,-1.0445,-1.0573,-1.0641,-1.0701,-1.0667,-1.0752,-1.0871,-1.0998,-1.1192,-1.1498,-1.1684,-1.1998,-1.2484,-1.2814,-1.2941,-1.2894,-1.2968,-1.3003,-1.2915,-1.2915,-1.2915,-1.2915,-1.2915,-1.2915,-1.2915,-1.2915,-1.2905,-1.2929,-1.2954,-1.3002,-1.3099,-1.3138,-1.32,-1.33,-1.3515,-1.3668,-1.3763,-1.3939,-1.415,-1.4326,-1.4546,-1.4708,-1.4834,-1.4891,-1.4654,-1.4295,-1.4016,-1.3751,-1.3309,-1.2957,-1.2693,-1.2569,-1.2207,-1.2053,-1.2053,-1.2326,-1.2671,-1.3093,-1.3477,-1.3905,-1.4368,-1.4477,-1.4477,-1.4477,-1.4477,-1.4454,-1.4384,-1.4291,-1.4067,-0.974,-0.9734,-0.983,-0.98,-0.9628,-0.9651,-0.9522,-0.9333,-0.9295,-0.9276,-0.916,-0.9154,-0.9154,-0.916,-0.917,-0.925,-0.9349,-0.9437,-0.9588,-0.9784,-0.9862,-0.9969,-1.017,-1.0185,-1.0171,-1.0192,-1.0235,-1.0343,-1.048,-1.0487,-1.0685,-1.0931,-1.0689,-1.0609,-1.0709,-1.0428,-1.0401,-1.065,-1.059,-1.0496,-1.0265,-1.036,-1.0445,-1.0437,-1.0598,-1.0726,-1.0837,-1.0964,-1.1099,-1.12,-1.1234,-1.1276,-1.1402,-1.1452,-1.1668,-1.2166,-1.2435,-1.2947,-1.37,-1.3874,-1.3707,-1.3471,-1.3457,-1.3291,-1.2974,-1.2925,-1.2915,-1.2915,-1.2915,-1.2915,-1.2915,-1.2905,-1.2954,-1.3051,-1.3051,-1.3113,-1.3204,-1.329,-1.342,-1.3549,-1.3716,-1.3868,-1.4082,-1.4291,-1.4477,-1.4696,-1.4834,-1.4937,-1.5062,-1.5142,-1.5255,-1.5185,-1.4994,-1.4508,-1.4048,-1.3892,-1.361,-1.3285,-1.3161,-1.3047,-1.3044,-1.3125,-1.3342,-1.3721,-1.3981,-1.4261,-1.4575,-1.4776,-1.4765,-1.4799,-1.4799,-1.4753,-1.473,-1.4707,-1.4522,-1.0203,-1.0223,-1.0053,-1.0084,-1.0238,-1.0443,-1.0468,-1.0377,-1.0346,-1.0346,-1.0377,-1.0377,-1.0007,-0.946,-0.9592,-0.9673,-0.9758,-1.0007,-1.0201,-1.031,-1.0507,-1.0658,-1.0711,-1.0809,-1.09,-1.1044,-1.1105,-1.1225,-1.1346,-1.1351,-1.1328,-1.1326,-1.1316,-1.1371,-1.1493,-1.1223,-1.114,-1.1237,-1.1183,-1.1124,-1.1023,-1.0922,-1.0905,-1.0964,-1.1099,-1.12,-1.1276,-1.1377,-1.1469,-1.1545,-1.1772,-1.1946,-1.2092,-1.2393,-1.2706,-1.3056,-1.3323,-1.3611,-1.398,-1.4034,-1.3992,-1.3851,-1.3851,-1.3665,-1.3301,-1.3252,-1.3154,-1.2954,-1.2915,-1.2915,-1.2905,-1.2978,-1.3027,-1.3109,-1.3138,-1.3238,-1.3443,-1.3467,-1.3586,-1.3797,-1.4033,-1.4197,-1.4339,-1.4628,-1.4869,-1.5063,-1.5176,-1.5255,-1.5334,-1.5379,-1.5424,-1.548,-1.5323,-1.5152,-1.4864,-1.4576,-1.4346,-1.4148,-1.3891,-1.3729,-1.3755,-1.3995,-1.4205,-1.437,-1.4612,-1.4842,-1.5152,-1.521,-1.521,-1.5199,-1.5131,-1.5085,-1.5085,-1.5017,-1.4823,-1.0889,-1.0883,-1.0653,-1.0698,-1.0996,-1.1254,-1.1343,-1.1343,-1.1343,-1.1343,-1.1336,-1.1259,-1.0822,-1.0194,-1.0198,-1.0246,-1.0274,-1.0595,-1.0784,-1.0897,-1.1117,-1.1279,-1.1373,-1.1466,-1.1591,-1.1747,-1.1856,-1.205,-1.2251,-1.2162,-1.2027,-1.1999,-1.2065,-1.2166,-1.2293,-1.2047,-1.1915,-1.1951,-1.1896,-1.1894,-1.1903,-1.1791,-1.161,-1.1453,-1.1502,-1.1578,-1.1678,-1.1876,-1.2005,-1.2099,-1.248,-1.275,-1.2873,-1.3238,-1.3551,-1.3854,-1.417,-1.4365,-1.4382,-1.4437,-1.4397,-1.4299,-1.4289,-1.4104,-1.376,-1.361,-1.3429,-1.3189,-1.3047,-1.2983,-1.2954,-1.3036,-1.3109,-1.3162,-1.3262,-1.342,-1.3586,-1.3668,-1.381,-1.408,-1.4267,-1.4466,-1.4628,-1.4949,-1.5244,-1.5323,-1.548,-1.558,-1.5603,-1.5647,-1.5691,-1.568,-1.5691,-1.5625,-1.5512,-1.5176,-1.4928,-1.4879,-1.4622,-1.4469,-1.4417,-1.4749,-1.4926,-1.4971,-1.5305,-1.5433,-1.5401,-1.5446,-1.5491,-1.548,-1.5435,-1.5345,-1.5323,-1.5255,-1.5176,-1.1751,-1.188,-1.19,-1.1865,-1.1934,-1.1947,-1.1954,-1.1979,-1.1974,-1.1954,-1.1924,-1.1645,-1.1577,-1.1628,-1.1262,-1.1048,-1.1073,-1.1097,-1.126,-1.1516,-1.1545,-1.1747,-1.2034,-1.2065,-1.2073,-1.2166,-1.229,-1.2483,-1.2752,-1.275,-1.2926,-1.3184,-1.2903,-1.2896,-1.3047,-1.2793,-1.2712,-1.2813,-1.2814,-1.2869,-1.2978,-1.3095,-1.267,-1.1887,-1.1729,-1.1906,-1.2124,-1.2452,-1.2774,-1.3006,-1.3438,-1.3719,-1.3755,-1.3774,-1.4048,-1.4503,-1.4907,-1.5177,-1.5255,-1.5254,-1.5146,-1.4862,-1.4784,-1.457,-1.4167,-1.3959,-1.3763,-1.3644,-1.3377,-1.3182,-1.3123,-1.3123,-1.321,-1.3348,-1.3491,-1.3644,-1.3787,-1.3939,-1.4104,-1.4314,-1.4419,-1.4651,-1.5017,-1.5311,-1.5468,-1.5536,-1.5681,-1.5792,-1.5814,-1.5991,-1.61,-1.6113,-1.6078,-1.6013,-1.5625,-1.5496,-1.5474,-1.5414,-1.5362,-1.5357,-1.5407,-1.5444,-1.5454,-1.5465,-1.5567,-1.5591,-1.5536,-1.5513,-1.5558,-1.558,-1.5603,-1.5558,-1.5614,-1.5536,-1.5457,-1.2192,-1.2187,-1.2323,-1.2465,-1.2567,-1.2668,-1.2702,-1.2702,-1.2695,-1.2695,-1.268,-1.2569,-1.2558,-1.2624,-1.2439,-1.2084,-1.1613,-1.1685,-1.1817,-1.1903,-1.1903,-1.2172,-1.2577,-1.2608,-1.2735,-1.2917,-1.2972,-1.3039,-1.3111,-1.3208,-1.3368,-1.3601,-1.3609,-1.362,-1.3647,-1.3407,-1.3353,-1.3495,-1.3378,-1.3368,-1.3523,-1.3585,-1.3426,-1.3085,-1.3057,-1.3083,-1.3197,-1.3338,-1.3457,-1.3537,-1.3955,-1.4201,-1.4331,-1.4646,-1.4906,-1.509,-1.5255,-1.5362,-1.5381,-1.542,-1.539,-1.5378,-1.5377,-1.5236,-1.4942,-1.4747,-1.4483,-1.3972,-1.3756,-1.3585,-1.3443,-1.3344,-1.3358,-1.3515,-1.3644,-1.3858,-1.4104,-1.4244,-1.4372,-1.4604,-1.4754,-1.5017,-1.5356,-1.5614,-1.5748,-1.5802,-1.5935,-1.6035,-1.6057,-1.6156,-1.621,-1.6222,-1.62,-1.6134,-1.6025,-1.5947,-1.5935,-1.5935,-1.5932,-1.5896,-1.5901,-1.5891,-1.5888,-1.5854,-1.5869,-1.5869,-1.5859,-1.5859,-1.5846,-1.5869,-1.5881,-1.5859,-1.5947,-1.5824,-1.5758,-1.296,-1.289,-1.3014,-1.3221,-1.3366,-1.3462,-1.3538,-1.3565,-1.3599,-1.3565,-1.3592,-1.3491,-1.3471,-1.3481,-1.3388,-1.3107,-1.26,-1.2584,-1.2577,-1.2664,-1.2672,-1.2932,-1.3259,-1.338,-1.3542,-1.3752,-1.3856,-1.3906,-1.3918,-1.3873,-1.3974,-1.4183,-1.4171,-1.4181,-1.4195,-1.4107,-1.4123,-1.4192,-1.4073,-1.4054,-1.4183,-1.4239,-1.4266,-1.4266,-1.4285,-1.4168,-1.3884,-1.398,-1.4074,-1.4168,-1.4495,-1.4773,-1.4906,-1.5196,-1.542,-1.542,-1.541,-1.5439,-1.5478,-1.5507,-1.5575,-1.574,-1.5759,-1.5667,-1.5499,-1.5394,-1.5026,-1.4566,-1.418,-1.4014,-1.3938,-1.3762,-1.3644,-1.3739,-1.3881,-1.4104,-1.435,-1.4488,-1.4616,-1.488,-1.5131,-1.5413,-1.5681,-1.5792,-1.5925,-1.6044,-1.6188,-1.6253,-1.6275,-1.6275,-1.6297,-1.6297,-1.6297,-1.6318,-1.6253,-1.6253,-1.6166,-1.6156,-1.6122,-1.6188,-1.6231,-1.621,-1.621,-1.621,-1.6222,-1.6222,-1.6222,-1.621,-1.621,-1.621,-1.6144,-1.6057,-1.61,-1.61,-1.6013,-1.4101,-1.4137,-1.4129,-1.4253,-1.4433,-1.4469,-1.4505,-1.4613,-1.4581,-1.4585,-1.4538,-1.4318,-1.4263,-1.431,-1.4117,-1.4032,-1.4082,-1.3725,-1.3644,-1.3761,-1.381,-1.3933,-1.4206,-1.4354,-1.4485,-1.4551,-1.4804,-1.4991,-1.5065,-1.4746,-1.4711,-1.4816,-1.4668,-1.4584,-1.4706,-1.4805,-1.4942,-1.4914,-1.4886,-1.4924,-1.5029,-1.5051,-1.509,-1.5119,-1.5216,-1.4886,-1.4096,-1.4424,-1.4645,-1.4806,-1.5128,-1.54,-1.5332,-1.541,-1.542,-1.542,-1.542,-1.5517,-1.5643,-1.5711,-1.573,-1.5885,-1.5924,-1.5923,-1.5869,-1.5698,-1.5533,-1.5452,-1.4956,-1.4574,-1.4581,-1.4254,-1.3986,-1.402,-1.4197,-1.435,-1.4477,-1.465,-1.488,-1.5119,-1.5435,-1.5715,-1.5814,-1.5935,-1.6066,-1.6188,-1.6306,-1.6392,-1.6392,-1.6414,-1.6479,-1.6479,-1.6448,-1.6426,-1.647,-1.6491,-1.6362,-1.6287,-1.6253,-1.6253,-1.6275,-1.6297,-1.6297,-1.6297,-1.6297,-1.6297,-1.6297,-1.6297,-1.6297,-1.6275,-1.6253,-1.6253,-1.6253,-1.6231,-1.621,-1.4956,-1.5439,-1.5485,-1.5552,-1.5694,-1.5686,-1.5723,-1.5728,-1.5524,-1.5418,-1.5381,-1.5054,-1.4969,-1.5101,-1.5055,-1.5178,-1.5472,-1.5308,-1.4951,-1.4405,-1.4338,-1.4605,-1.5025,-1.5152,-1.5261,-1.5318,-1.5206,-1.5287,-1.5495,-1.5433,-1.5377,-1.5359,-1.531,-1.5115,-1.493,-1.497,-1.5039,-1.5117,-1.5127,-1.5176,-1.5274,-1.5303,-1.5332,-1.5332,-1.5381,-1.5235,-1.4992,-1.5089,-1.5186,-1.5205,-1.5342,-1.542,-1.542,-1.542,-1.542,-1.542,-1.5546,-1.5604,-1.5701,-1.5808,-1.5904,-1.6038,-1.6173,-1.6288,-1.6353,-1.637,-1.6231,-1.6012,-1.5541,-1.521,-1.4958,-1.4644,-1.4404,-1.4291,-1.435,-1.4558,-1.4834,-1.5085,-1.5311,-1.548,-1.5659,-1.5814,-1.5935,-1.6098,-1.6262,-1.6318,-1.6414,-1.6479,-1.6479,-1.6479,-1.6513,-1.6513,-1.6513,-1.6513,-1.6513,-1.6513,-1.6448,-1.6383,-1.6362,-1.634,-1.6362,-1.6362,-1.6383,-1.6371,-1.6371,-1.6371,-1.6392,-1.6392,-1.6383,-1.6405,-1.6405,-1.6405,-1.6392,-1.6371,-1.634,-1.5878,-1.631,-1.6387,-1.6531,-1.6674,-1.6666,-1.6712,-1.6762,-1.6558,-1.6456,-1.6442,-1.6209,-1.6077,-1.6055,-1.6021,-1.6077,-1.6184,-1.6167,-1.5869,-1.5314,-1.5195,-1.541,-1.5815,-1.5961,-1.6131,-1.6274,-1.6142,-1.6156,-1.6369,-1.6221,-1.6113,-1.6088,-1.5992,-1.5706,-1.5365,-1.5367,-1.5379,-1.5293,-1.5293,-1.5303,-1.5391,-1.542,-1.542,-1.542,-1.542,-1.542,-1.542,-1.542,-1.542,-1.542,-1.542,-1.542,-1.542,-1.5478,-1.5517,-1.5536,-1.5662,-1.5788,-1.5875,-1.6029,-1.6144,-1.6296,-1.6449,-1.6591,-1.6712,-1.6825,-1.6749,-1.6618,-1.6266,-1.5891,-1.5546,-1.5206,-1.4919,-1.4674,-1.4674,-1.4834,-1.5198,-1.5458,-1.5592,-1.5715,-1.5836,-1.5969,-1.6132,-1.6262,-1.6392,-1.6436,-1.6457,-1.6513,-1.6513,-1.6513,-1.6513,-1.6513,-1.6513,-1.6513,-1.6513,-1.6513,-1.6513,-1.6491,-1.6491,-1.647,-1.647,-1.647,-1.647,-1.647,-1.647,-1.6448,-1.6457,-1.6457,-1.647,-1.6513,-1.6513,-1.6491,-1.6457,-1.6457,-1.6436,-1.6771,-1.6826,-1.7016,-1.7258,-1.738,-1.7389,-1.75,-1.7636,-1.7574,-1.7528,-1.7519,-1.7422,-1.7273,-1.7043,-1.6945,-1.6803,-1.6475,-1.6518,-1.6569,-1.6505,-1.6409,-1.6366,-1.6454,-1.6688,-1.6929,-1.7111,-1.7282,-1.7394,-1.73,-1.7025,-1.6949,-1.683,-1.6616,-1.6324,-1.5977,-1.6043,-1.5868,-1.5537,-1.5459,-1.5449,-1.543,-1.542,-1.542,-1.542,-1.542,-1.542,-1.542,-1.542,-1.542,-1.542,-1.542,-1.542,-1.5449,-1.5604,-1.5682,-1.5701,-1.5817,-1.5961,-1.6095,-1.6278,-1.6449,-1.6599,-1.6751,-1.6864,-1.7011,-1.7095,-1.7207,-1.7357,-1.7024,-1.6643,-1.6314,-1.5898,-1.5565,-1.5211,-1.5142,-1.5244,-1.5468,-1.5637,-1.5748,-1.5848,-1.5969,-1.611,-1.634,-1.6392,-1.6436,-1.6457,-1.65,-1.65,-1.6513,-1.6513,-1.6513,-1.6513,-1.6513,-1.6513,-1.6513,-1.6513,-1.6513,-1.6513,-1.6513,-1.6513,-1.6513,-1.6513,-1.6513,-1.6513,-1.6513,-1.6513,-1.6513,-1.6513,-1.6513,-1.6513,-1.6513,-1.6513,-1.65,-1.65,-1.6479,-1.7757,-1.8184,-1.8232,-1.8272,-1.8311,-1.8342,-1.8342,-1.8385,-1.8092,-1.8024,-1.7941,-1.7692,-1.7653,-1.7584,-1.7742,-1.7652,-1.7467,-1.7526,-1.7437,-1.7282,-1.7229,-1.7185,-1.7194,-1.7289,-1.7367,-1.7426,-1.7505,-1.7554,-1.7647,-1.7523,-1.7398,-1.7251,-1.7197,-1.6928,-1.6558,-1.6521,-1.6318,-1.5987,-1.5919,-1.5723,-1.5459,-1.5439,-1.542,-1.542,-1.542,-1.542,-1.542,-1.542,-1.542,-1.542,-1.542,-1.5478,-1.5604,-1.5701,-1.5769,-1.5875,-1.598,-1.6124,-1.6306,-1.6467,-1.6655,-1.687,-1.706,-1.7239,-1.7357,-1.7479,-1.7617,-1.7693,-1.7478,-1.7242,-1.7108,-1.6553,-1.601,-1.5643,-1.5549,-1.557,-1.5703,-1.5859,-1.5957,-1.6078,-1.6197,-1.6306,-1.6371,-1.6436,-1.6479,-1.65,-1.6513,-1.6513,-1.6513,-1.6513,-1.6513,-1.6513,-1.6513,-1.6513,-1.6513,-1.6513,-1.6513,-1.6513,-1.6513,-1.6513,-1.6513,-1.6513,-1.6513,-1.6513,-1.6513,-1.6513,-1.6513,-1.6513,-1.6513,-1.6513,-1.6513,-1.6513,-1.6513,-1.65,-1.65,-1.8588,-1.8962,-1.9051,-1.913,-1.9201,-1.921,-1.921,-1.9164,-1.8955,-1.8836,-1.8782,-1.8656,-1.8522,-1.8442,-1.8536,-1.8462,-1.8234,-1.8305,-1.8209,-1.8045,-1.791,-1.7729,-1.7586,-1.7564,-1.7598,-1.7598,-1.7666,-1.7769,-1.7828,-1.7818,-1.775,-1.7672,-1.7646,-1.7422,-1.6999,-1.6992,-1.6787,-1.6426,-1.6338,-1.6133,-1.5723,-1.5743,-1.5645,-1.5605,-1.5575,-1.5604,-1.5604,-1.5604,-1.5604,-1.5536,-1.5536,-1.5604,-1.5759,-1.5836,-1.5933,-1.6087,-1.6249,-1.641,-1.6573,-1.6751,-1.6948,-1.7145,-1.7351,-1.7534,-1.77,-1.7838,-1.7947,-1.8135,-1.7989,-1.7859,-1.7576,-1.6928,-1.6419,-1.6188,-1.6025,-1.5893,-1.5903,-1.6013,-1.6132,-1.6253,-1.634,-1.6392,-1.6436,-1.6479,-1.65,-1.6513,-1.6513,-1.6513,-1.6513,-1.6513,-1.6513,-1.6513,-1.6513,-1.6513,-1.6513,-1.6513,-1.6513,-1.6513,-1.6513,-1.6513,-1.6513,-1.6513,-1.6513,-1.6513,-1.6513,-1.6513,-1.6513,-1.6513,-1.6513,-1.6513,-1.6513,-1.6513,-1.6513,-1.6513,-1.6513,-1.9201,-1.9381,-1.9557,-1.9715,-1.9863,-1.9912,-1.9833,-1.9863,-1.9795,-1.9795,-1.9777,-1.9844,-1.9541,-1.9364,-1.9307,-1.9165,-1.8795,-1.8869,-1.8802,-1.8667,-1.8545,-1.8293,-1.7919,-1.7793,-1.7759,-1.7759,-1.7906,-1.7974,-1.7974,-1.7974,-1.8008,-1.7939,-1.7959,-1.7803,-1.7543,-1.7474,-1.7239,-1.6907,-1.6882,-1.6687,-1.6364,-1.6356,-1.6228,-1.5909,-1.5818,-1.5856,-1.5856,-1.5856,-1.5827,-1.5749,-1.573,-1.5798,-1.5914,-1.6056,-1.621,-1.6392,-1.6563,-1.6694,-1.6874,-1.7127,-1.7351,-1.7434,-1.7629,-1.7865,-1.8084,-1.8166,-1.8275,-1.8545,-1.864,-1.8372,-1.7938,-1.7242,-1.6954,-1.6864,-1.6563,-1.6279,-1.6162,-1.6181,-1.6253,-1.6405,-1.6392,-1.6436,-1.6479,-1.6513,-1.6513,-1.6513,-1.6513,-1.6513,-1.6513,-1.6513,-1.6513,-1.6513,-1.6513,-1.6513,-1.6513,-1.6513,-1.6513,-1.6513,-1.6513,-1.6513,-1.6513,-1.6513,-1.6513,-1.6513,-1.6513,-1.6513,-1.6513,-1.6513,-1.6513,-1.6513,-1.6513,-1.6513,-1.6513,-1.6513,-1.6513,-1.9754,-1.9784,-1.9824,-1.9863,-1.9912,-1.9912,-1.9902,-1.9902,-1.9902,-1.9942,-1.9912,-1.9912,-1.9846,-1.979,-1.9907,-1.9813,-1.9439,-1.9531,-1.9471,-1.9168,-1.9146,-1.9049,-1.875,-1.8339,-1.7988,-1.7988,-1.7993,-1.8027,-1.8047,-1.8105,-1.8018,-1.8037,-1.81,-1.7969,-1.7905,-1.7971,-1.7889,-1.7513,-1.7531,-1.7408,-1.7089,-1.7061,-1.688,-1.6426,-1.6124,-1.5963,-1.5914,-1.5914,-1.5933,-1.599,-1.5961,-1.5972,-1.6095,-1.6249,-1.642,-1.6581,-1.6797,-1.6994,-1.7183,-1.7379,-1.7617,-1.7877,-1.7975,-1.8139,-1.8452,-1.8491,-1.8572,-1.8732,-1.8827,-1.877,-1.8441,-1.8288,-1.7922,-1.7602,-1.7228,-1.6973,-1.6888,-1.6588,-1.6417,-1.6457,-1.6479,-1.6479,-1.6513,-1.6513,-1.6513,-1.6513,-1.6513,-1.6513,-1.6513,-1.6513,-1.6513,-1.6513,-1.6513,-1.6513,-1.6513,-1.6513,-1.6513,-1.6513,-1.6513,-1.6513,-1.6513,-1.6513,-1.6513,-1.6513,-1.6513,-1.6513,-1.6513,-1.6513,-1.6513,-1.6513,-1.6513,-1.6513,-1.6513,-1.6513,-1.6513,-1.9981,-2.0059,-2.0108,-2.0137,-2.0216,-2.0206,-2.0206,-2.0216,-2.0216,-2.0206,-2.0206,-2.0216,-2.0216,-2.0216,-2.0362,-2.0265,-2.0158,-2.0177,-2.0107,-1.9873,-1.9717,-1.959,-1.9482,-1.8984,-1.8613,-1.8613,-1.8623,-1.8613,-1.8603,-1.8564,-1.857,-1.8449,-1.8429,-1.8355,-1.8241,-1.8357,-1.8251,-1.8115,-1.8111,-1.7999,-1.7658,-1.7725,-1.7554,-1.711,-1.6777,-1.6572,-1.6366,-1.6335,-1.6363,-1.6381,-1.6363,-1.6335,-1.6353,-1.6506,-1.6676,-1.692,-1.7032,-1.7256,-1.7434,-1.7673,-1.7877,-1.8084,-1.8247,-1.8491,-1.8694,-1.8801,-1.8893,-1.9052,-1.9146,-1.9117,-1.8989,-1.8733,-1.8524,-1.8326,-1.7913,-1.7695,-1.7535,-1.6948,-1.6436,-1.6479,-1.6513,-1.65,-1.6513,-1.6651,-1.6588,-1.6613,-1.6575,-1.6575,-1.6513,-1.6513,-1.6513,-1.6513,-1.6513,-1.6513,-1.6513,-1.6513,-1.6513,-1.6513,-1.6513,-1.6513,-1.6513,-1.6513,-1.6513,-1.6513,-1.6513,-1.6513,-1.6513,-1.6513,-1.6513,-1.6513,-1.6513,-1.6513,-1.6513,-1.6513,-1.6513,-2.0185,-2.0439,-2.0371,-2.045,-2.0566,-2.0566,-2.0566,-2.0566,-2.0615,-2.0527,-2.0615,-2.0615,-2.0527,-2.0576,-2.0566,-2.0605,-2.0595,-2.0576,-2.0478,-2.0429,-2.0146,-2.0077,-1.9997,-1.9752,-1.9593,-1.9546,-1.9357,-1.9281,-1.9272,-1.9367,-1.9225,-1.9078,-1.9048,-1.8919,-1.8702,-1.8684,-1.8711,-1.86,-1.866,-1.8614,-1.832,-1.8464,-1.8291,-1.7856,-1.7469,-1.7267,-1.6963,-1.6892,-1.6864,-1.6874,-1.6902,-1.6864,-1.6807,-1.6835,-1.6987,-1.7295,-1.7407,-1.7573,-1.7767,-1.8002,-1.8193,-1.822,-1.8479,-1.8747,-1.8972,-1.9052,-1.9158,-1.9289,-1.9382,-1.9408,-1.9423,-1.923,-1.9033,-1.8871,-1.8583,-1.8356,-1.8141,-1.7378,-1.6977,-1.6876,-1.7039,-1.7102,-1.7036,-1.7061,-1.6886,-1.6738,-1.6726,-1.6676,-1.6651,-1.6613,-1.6688,-1.6538,-1.6513,-1.6513,-1.6513,-1.6513,-1.6513,-1.6513,-1.6513,-1.6513,-1.6513,-1.6513,-1.6513,-1.6513,-1.6513,-1.6513,-1.6513,-1.6513,-1.6513,-1.6513,-1.6513,-1.6513,-1.6513,-1.6513,-1.655,-2.0712,-2.1014,-2.0683,-2.0566,-2.0615,-2.0615,-2.0615,-2.0615,-2.0615,-2.0615,-2.0615,-2.0615,-2.0615,-2.0615,-2.0615,-2.0615,-2.0615,-2.0615,-2.0605,-2.0654,-2.0517,-2.0526,-2.0602,-2.0551,-2.0617,-2.0574,-2.0138,-1.9687,-1.9694,-1.9683,-1.9835,-1.9777,-1.9736,-1.9561,-1.9353,-1.9359,-1.938,-1.9176,-1.9291,-1.933,-1.9227,-1.9284,-1.9147,-1.8633,-1.8167,-1.7776,-1.7539,-1.7294,-1.7172,-1.7222,-1.7323,-1.7368,-1.7329,-1.7295,-1.7351,-1.7507,-1.7755,-1.7931,-1.8057,-1.8329,-1.8545,-1.8679,-1.8801,-1.8972,-1.9131,-1.9263,-1.9342,-1.9408,-1.9512,-1.9617,-1.9734,-1.9583,-1.9609,-1.9497,-1.9208,-1.887,-1.8732,-1.8343,-1.794,-1.7892,-1.7915,-1.7777,-1.7626,-1.7551,-1.7526,-1.7466,-1.7478,-1.734,-1.725,-1.7162,-1.7099,-1.6848,-1.6513,-1.6513,-1.6513,-1.6513,-1.6513,-1.6513,-1.6513,-1.6513,-1.6513,-1.6513,-1.6513,-1.6513,-1.6513,-1.6513,-1.6513,-1.6513,-1.6513,-1.6513,-1.6513,-1.6513,-1.6638,-1.676,-1.6726,-2.0732,-2.0859,-2.0693,-2.0615,-2.0615,-2.0615,-2.0615,-2.0615,-2.0615,-2.0615,-2.0615,-2.0615,-2.0615,-2.0615,-2.0615,-2.0615,-2.0605,-2.0731,-2.0741,-2.078,-2.0858,-2.0935,-2.1061,-2.1061,-2.1089,-2.1046,-2.0742,-2.0474,-2.0439,-2.0534,-2.0548,-2.0512,-2.0518,-2.0365,-2.0203,-2.0334,-2.0152,-1.9904,-1.9989,-1.9994,-1.9823,-1.9911,-1.977,-1.9406,-1.9041,-1.861,-1.8111,-1.7975,-1.7733,-1.7601,-1.7634,-1.7728,-1.7783,-1.7838,-1.7822,-1.7865,-1.8002,-1.8193,-1.8329,-1.8587,-1.8732,-1.8893,-1.9052,-1.921,-1.9368,-1.946,-1.9512,-1.9591,-1.963,-1.9734,-1.9785,-1.9798,-1.9798,-1.9761,-1.9547,-1.9434,-1.9334,-1.9121,-1.8983,-1.8832,-1.8442,-1.8191,-1.8091,-1.8078,-1.8154,-1.8204,-1.8229,-1.8066,-1.7852,-1.7739,-1.7639,-1.7388,-1.7099,-1.6974,-1.6914,-1.6814,-1.681,-1.6782,-1.6757,-1.6744,-1.6694,-1.6779,-1.6635,-1.6513,-1.6513,-1.6766,-1.6525,-1.6525,-1.6513,-1.655,-1.6613,-1.6722,-1.6898,-1.6999,-1.7071,-2.0654,-2.0732,-2.0644,-2.0615,-2.0615,-2.0615,-2.0615,-2.0615,-2.0615,-2.0615,-2.0615,-2.0615,-2.0615,-2.0615,-2.0654,-2.0693,-2.0683,-2.0858,-2.0945,-2.0984,-2.1089,-2.1205,-2.1244,-2.132,-2.1359,-2.1492,-2.1545,-2.154,-2.1275,-2.1314,-2.136,-2.1389,-2.136,-2.1314,-2.1232,-2.1243,-2.0944,-2.0814,-2.0668,-2.0509,-2.0282,-2.0334,-2.0426,-2.0146,-2.0107,-1.9674,-1.9138,-1.8936,-1.8606,-1.8311,-1.8185,-1.8226,-1.8255,-1.8356,-1.8383,-1.8302,-1.8275,-1.8398,-1.8614,-1.8813,-1.8946,-1.9105,-1.9223,-1.9394,-1.9512,-1.9617,-1.9682,-1.9773,-1.9798,-1.9798,-1.9811,-1.9798,-1.9798,-1.9798,-1.9786,-1.9786,-1.9736,-1.9648,-1.9597,-1.9321,-1.8844,-1.8706,-1.8706,-1.8769,-1.8894,-1.8894,-1.8895,-1.8644,-1.8468,-1.838,-1.8254,-1.8028,-1.7802,-1.7601,-1.7463,-1.7265,-1.731,-1.7377,-1.7352,-1.7374,-1.7248,-1.7147,-1.7049,-1.7122,-1.7194,-1.7356,-1.6973,-1.6735,-1.6948,-1.7036,-1.6898,-1.7046,-1.7456,-1.7642,-1.7715,-2.0791,-2.1123,-2.0762,-2.0615,-2.0615,-2.0615,-2.0615,-2.0615,-2.0615,-2.0615,-2.0605,-2.0615,-2.0615,-2.0693,-2.0819,-2.0867,-2.0945,-2.1051,-2.1167,-2.1205,-2.1282,-2.1387,-2.1512,-2.1655,-2.1807,-2.1949,-2.2138,-2.2073,-2.1921,-2.1959,-2.209,-2.2162,-2.2163,-2.2157,-2.1984,-2.2121,-2.2002,-2.1737,-2.1452,-2.1173,-2.0888,-2.0884,-2.0955,-2.0888,-2.0738,-2.0507,-2.0236,-1.9971,-1.9633,-1.9207,-1.9153,-1.8975,-1.865,-1.856,-1.8721,-1.8813,-1.8813,-1.8759,-1.8934,-1.9052,-1.9184,-1.9303,-1.9473,-1.9539,-1.9604,-1.9708,-1.9773,-1.9798,-1.9798,-1.9798,-1.9798,-1.9798,-1.9798,-1.9798,-1.9798,-1.9798,-1.9798,-1.9798,-1.9798,-1.9773,-1.9309,-1.9397,-1.9484,-1.956,-1.9635,-1.9623,-1.9522,-1.9246,-1.9058,-1.897,-1.8906,-1.8717,-1.8439,-1.8237,-1.8095,-1.7895,-1.7804,-1.7923,-1.7923,-1.7933,-1.7854,-1.7788,-1.8086,-1.8137,-1.8124,-1.7979,-1.7723,-1.7592,-1.7599,-1.7609,-1.7627,-1.7865,-1.8228,-1.8316,-1.8365,-2.0723,-2.083,-2.0674,-2.0615,-2.0615,-2.0615,-2.0615,-2.0615,-2.0615,-2.0615,-2.0644,-2.0741,-2.0819,-2.0925,-2.1051,-2.1061,-2.1099,-2.1282,-2.1425,-2.1578,-2.1655,-2.1797,-2.1987,-2.2101,-2.2252,-2.2402,-2.2542,-2.2665,-2.2553,-2.2515,-2.2553,-2.274,-2.2852,-2.2962,-2.2834,-2.3075,-2.2941,-2.268,-2.24,-2.2144,-2.1895,-2.1765,-2.1681,-2.1509,-2.137,-2.1155,-2.0892,-2.0693,-2.0352,-1.991,-1.9667,-1.9472,-1.9245,-1.9111,-1.9025,-1.9172,-1.9184,-1.9158,-1.9237,-1.9302,-1.9394,-1.9499,-1.9591,-1.963,-1.9708,-1.9747,-1.9798,-1.9798,-1.9798,-1.9798,-1.9798,-1.9798,-1.9798,-1.9798,-1.9798,-1.9798,-1.9798,-1.9798,-1.9798,-1.9798,-1.9798,-1.9798,-1.9798,-1.9773,-1.9736,-1.9723,-1.9698,-1.9572,-1.9497,-1.9497,-1.946,-1.9409,-1.9105,-1.8814,-1.8719,-1.8565,-1.8372,-1.8405,-1.8416,-1.8416,-1.8439,-1.8513,-1.8825,-1.8763,-1.8475,-1.8392,-1.8376,-1.8325,-1.8236,-1.8312,-1.8425,-1.8665,-1.8917,-1.8993,-1.9107,-2.0644,-2.0644,-2.0644,-2.0615,-2.0615,-2.0615,-2.0644,-2.0693,-2.0683,-2.0731,-2.077,-2.0896,-2.1061,-2.1215,-2.1282,-2.1397,-2.1387,-2.1617,-2.1807,-2.1959,-2.2101,-2.2252,-2.2402,-2.2515,-2.2665,-2.2863,-2.2953,-2.3113,-2.3261,-2.3224,-2.315,-2.3161,-2.3335,-2.3508,-2.374,-2.3843,-2.376,-2.3362,-2.3236,-2.3021,-2.2765,-2.2628,-2.2411,-2.2171,-2.1941,-2.1747,-2.1432,-2.1391,-2.1141,-2.0722,-2.0457,-2.027,-1.9867,-1.9633,-1.946,-1.9468,-1.942,-1.9434,-1.946,-1.9486,-1.9539,-1.9617,-1.9668,-1.9708,-1.9773,-1.9798,-1.9798,-1.9798,-1.9798,-1.9798,-1.9798,-1.9798,-1.9798,-1.9798,-1.9798,-1.9798,-1.9798,-1.9798,-1.9798,-1.9798,-1.9798,-1.9798,-1.9798,-1.9798,-1.9798,-1.9798,-1.9798,-1.9798,-1.9824,-1.9837,-1.9851,-1.9788,-1.9686,-1.9456,-1.9403,-1.9272,-1.9063,-1.8993,-1.8993,-1.9154,-1.9307,-1.9406,-1.9595,-1.9378,-1.9063,-1.9344,-1.9664,-1.9247,-1.8883,-1.9094,-1.9263,-1.9397,-1.9549,-1.9637,-1.9814,-2.0693,-2.0858,-2.0683,-2.0605,-2.0615,-2.0595,-2.0693,-2.0858,-2.0858,-2.1012,-2.1156,-2.1205,-2.1205,-2.132,-2.1617,-2.1769,-2.1769,-2.2187,-2.2289,-2.2327,-2.2413,-2.2665,-2.2859,-2.3057,-2.3233,-2.342,-2.3694,-2.3857,-2.3906,-2.4107,-2.3892,-2.3666,-2.3824,-2.397,-2.4152,-2.4347,-2.4376,-2.4097,-2.4059,-2.3844,-2.3525,-2.3266,-2.3059,-2.2982,-2.2774,-2.2604,-2.2567,-2.2433,-2.2195,-2.1682,-2.1475,-2.1113,-2.0541,-2.0153,-1.9953,-1.98,-1.9603,-1.9642,-1.9682,-1.963,-1.9656,-1.9734,-1.9773,-1.9747,-1.9798,-1.9798,-1.9798,-1.9798,-1.9798,-1.9798,-1.9798,-1.9798,-1.9798,-1.9798,-1.9798,-1.9798,-1.9798,-1.9798,-1.9798,-1.9798,-1.9798,-1.9798,-1.9837,-1.9837,-1.9837,-1.9837,-1.9862,-1.9862,-1.9952,-2.0003,-2.0067,-2.0093,-2.0118,-2.0067,-2.0117,-1.9987,-1.9877,-1.9923,-1.9984,-2.0227,-2.0484,-2.0533,-2.0272,-2.0397,-2.023,-2.0594,-2.0737,-2.0156,-1.9843,-2.0,-2.0117,-2.011,-2.0231,-2.037,-2.0522,-2.1012,-2.1051,-2.1012,-2.0964,-2.0974,-2.0964,-2.1012,-2.1051,-2.1099,-2.1282,-2.1578,-2.1578,-2.1693,-2.1921,-2.2063,-2.2176,-2.2214,-2.244,-2.2639,-2.2934,-2.3177,-2.353,-2.3807,-2.4185,-2.4615,-2.4759,-2.496,-2.5024,-2.4989,-2.4956,-2.4747,-2.4533,-2.4441,-2.4454,-2.4634,-2.4826,-2.4933,-2.5025,-2.5033,-2.4931,-2.4517,-2.435,-2.4002,-2.3382,-2.3303,-2.2985,-2.2751,-2.272,-2.2573,-2.2376,-2.2093,-2.1695,-2.1243,-2.0776,-2.0409,-2.0232,-1.9995,-1.9859,-1.981,-1.9772,-1.9747,-1.9773,-1.9798,-1.9798,-1.9798,-1.9798,-1.9798,-1.9798,-1.9798,-1.9798,-1.9798,-1.9798,-1.9798,-1.9798,-1.9798,-1.9798,-1.9798,-1.9798,-1.9798,-1.9798,-1.9798,-1.9798,-1.9837,-1.9901,-1.9862,-1.9837,-1.9888,-1.9952,-2.0067,-2.0169,-2.0258,-2.0359,-2.041,-2.0485,-2.0524,-2.0624,-2.0699,-2.0774,-2.081,-2.0947,-2.1035,-2.0934,-2.0799,-2.1044,-2.1155,-2.114,-2.1035,-2.0855,-2.0711,-2.0645,-2.0648,-2.0708,-2.087,-2.1033,-2.116,-2.1244,-2.1272,-2.1359,-2.132,-2.1205,-2.1215,-2.1244,-2.1359,-2.1397,-2.1627,-2.1959,-2.1987,-2.2149,-2.2402,-2.2553,-2.2628,-2.2729,-2.29,-2.3222,-2.3597,-2.4029,-2.4513,-2.4929,-2.5302,-2.5543,-2.5912,-2.6015,-2.5972,-2.5963,-2.5821,-2.5622,-2.5421,-2.5183,-2.5111,-2.5016,-2.5288,-2.5535,-2.5688,-2.5756,-2.5763,-2.5311,-2.5133,-2.492,-2.409,-2.3825,-2.3505,-2.317,-2.304,-2.2848,-2.2712,-2.2513,-2.2258,-2.1919,-2.1528,-2.1072,-2.0813,-2.0591,-2.025,-2.0087,-1.9874,-1.9823,-1.9798,-1.9798,-1.9798,-1.9811,-1.9811,-1.9798,-1.9798,-1.9798,-1.9823,-1.9836,-1.9798,-1.9798,-1.9798,-1.9798,-1.9798,-1.9798,-1.9798,-1.9798,-1.9798,-1.9837,-1.9913,-1.9977,-2.0054,-2.0143,-2.008,-2.0029,-2.0131,-2.0271,-2.0372,-2.0448,-2.0574,-2.0674,-2.0787,-2.0886,-2.0976,-2.1076,-2.1008,-2.1082,-2.118,-2.1242,-2.1271,-2.1282,-2.1399,-2.1471,-2.1434,-2.1407,-2.1328,-2.1221,-2.1104,-2.1182,-2.1222,-2.1229,-2.1364,-2.1589,-2.1359,-2.1502,-2.1693,-2.1578,-2.1292,-2.1205,-2.1474,-2.1769,-2.1807,-2.2025,-2.2365,-2.2402,-2.2553,-2.274,-2.2964,-2.3113,-2.3261,-2.3505,-2.388,-2.4438,-2.4767,-2.5268,-2.5793,-2.6178,-2.648,-2.6326,-2.6585,-2.6823,-2.6875,-2.6586,-2.6469,-2.6359,-2.6078,-2.5656,-2.5383,-2.5688,-2.5875,-2.5875,-2.591,-2.5884,-2.583,-2.5565,-2.5335,-2.4946,-2.4496,-2.4135,-2.3679,-2.3367,-2.318,-2.298,-2.2955,-2.271,-2.2351,-2.2176,-2.1841,-2.1493,-2.1421,-2.1131,-2.0729,-2.015,-1.9987,-1.9949,-1.9999,-2.0012,-1.9911,-1.9911,-2.0024,-2.0225,-2.0075,-1.9987,-1.9899,-1.9899,-1.9999,-2.0049,-2.01,-2.0125,-2.0175,-2.0188,-2.0275,-2.0378,-2.0205,-2.0067,-2.0131,-2.0246,-2.0374,-2.0374,-2.0246,-2.0335,-2.0603,-2.0925,-2.1144,-2.1336,-2.1503,-2.1591,-2.1718,-2.1473,-2.1415,-2.1345,-2.1551,-2.1904,-2.2027,-2.2092,-2.2069,-2.1935,-2.2149,-2.245,-2.2176,-2.1876,-2.209,-2.2275,-2.1786,-2.1718,-2.1684,-2.1894,-2.2311,-2.2025,-2.2111,-2.2187,-2.2101,-2.1987,-2.1997,-2.2111,-2.2203,-2.2327,-2.2553,-2.2777,-2.2927,-2.3113,-2.3298,-2.3482,-2.3641,-2.3751,-2.4091,-2.4538,-2.5096,-2.5509,-2.6123,-2.6702,-2.7199,-2.7494,-2.7762,-2.7855,-2.7772,-2.7847,-2.7492,-2.7323,-2.7189,-2.6766,-2.629,-2.5926,-2.5945,-2.6097,-2.6131,-2.6236,-2.628,-2.6267,-2.6102,-2.5886,-2.5515,-2.5151,-2.4707,-2.4142,-2.3803,-2.3484,-2.3208,-2.3158,-2.2982,-2.2719,-2.2581,-2.2259,-2.1945,-2.1807,-2.1458,-2.1245,-2.0993,-2.0779,-2.0552,-2.0388,-2.0566,-2.0828,-2.0903,-2.0916,-2.0853,-2.0765,-2.079,-2.0941,-2.0941,-2.0991,-2.1004,-2.1029,-2.1029,-2.1041,-2.1029,-2.1081,-2.1216,-2.1145,-2.1192,-2.126,-2.1198,-2.1264,-2.1381,-2.1355,-2.1237,-2.1367,-2.1917,-2.2299,-2.2469,-2.2613,-2.2635,-2.2615,-2.2458,-2.2517,-2.2635,-2.2876,-2.3211,-2.3242,-2.3024,-2.3154,-2.3189,-2.335,-2.3484,-2.3248,-2.3122,-2.3449,-2.3495,-2.3003,-2.263,-2.2564,-2.2979,-2.3589,-2.2366,-2.2515,-2.2665,-2.2703,-2.2703,-2.2553,-2.2553,-2.2729,-2.2927,-2.3113,-2.3309,-2.3457,-2.3666,-2.3897,-2.4055,-2.4164,-2.4236,-2.4465,-2.5162,-2.5716,-2.6219,-2.6952,-2.7639,-2.8163,-2.8397,-2.8736,-2.8819,-2.8756,-2.8654,-2.847,-2.8126,-2.7692,-2.7305,-2.6882,-2.6524,-2.641,-2.6305,-2.6327,-2.6396,-2.6452,-2.6452,-2.6411,-2.6298,-2.5963,-2.5611,-2.5247,-2.4657,-2.4205,-2.3853,-2.3484,-2.3246,-2.3133,-2.2982,-2.2819,-2.2585,-2.2447,-2.2121,-2.182,-2.1757,-2.1509,-2.1292,-2.1345,-2.1119,-2.1169,-2.1446,-2.1355,-2.138,-2.1405,-2.1531,-2.1518,-2.1518,-2.1556,-2.1581,-2.1568,-2.1584,-2.1559,-2.1589,-2.1579,-2.1648,-2.1794,-2.2014,-2.2166,-2.2371,-2.235,-2.2326,-2.2445,-2.2565,-2.2405,-2.2272,-2.2777,-2.3218,-2.3377,-2.3466,-2.3432,-2.3492,-2.3562,-2.3666,-2.3872,-2.4061,-2.4275,-2.4061,-2.3837,-2.4152,-2.4344,-2.4216,-2.4145,-2.4305,-2.4412,-2.4373,-2.4362,-2.4216,-2.3851,-2.3579,-2.3961,-2.4551,-2.2276,-2.2723,-2.3128,-2.3276,-2.3261,-2.299,-2.3038,-2.3335,-2.3519,-2.3751,-2.3897,-2.3934,-2.4116,-2.4418,-2.4502,-2.4598,-2.4754,-2.4825,-2.5596,-2.6338,-2.6825,-2.7688,-2.8387,-2.887,-2.8973,-2.9052,-2.9106,-2.9147,-2.928,-2.9021,-2.86,-2.8161,-2.7761,-2.7385,-2.712,-2.6806,-2.6556,-2.6502,-2.6452,-2.6487,-2.6487,-2.6474,-2.6436,-2.6235,-2.5984,-2.5661,-2.5172,-2.472,-2.428,-2.3891,-2.3509,-2.3283,-2.3145,-2.3108,-2.3108,-2.2945,-2.2518,-2.238,-2.2272,-2.1945,-2.197,-2.2071,-2.1845,-2.1656,-2.1669,-2.1845,-2.1907,-2.1882,-2.1907,-2.1782,-2.1694,-2.1744,-2.181,-2.1798,-2.1826,-2.1857,-2.1929,-2.2013,-2.211,-2.226,-2.2495,-2.2714,-2.2999,-2.3096,-2.3352,-2.3568,-2.369,-2.3784,-2.3661,-2.3566,-2.3944,-2.4049,-2.4124,-2.414,-2.4269,-2.458,-2.4664,-2.4859,-2.4895,-2.5012,-2.4794,-2.4816,-2.516,-2.5268,-2.4866,-2.4851,-2.529,-2.5221,-2.4934,-2.4977,-2.5283,-2.4981,-2.4662,-2.4776,-2.5221,-2.2371,-2.2814,-2.3041,-2.3377,-2.3728,-2.3886,-2.3909,-2.3787,-2.408,-2.4273,-2.4345,-2.449,-2.4598,-2.4718,-2.4849,-2.5016,-2.5159,-2.5468,-2.6203,-2.6834,-2.7236,-2.8081,-2.8697,-2.9067,-2.9197,-2.9275,-2.9353,-2.9443,-2.9586,-2.9426,-2.91,-2.87,-2.8411,-2.7996,-2.7517,-2.7153,-2.6839,-2.6575,-2.6499,-2.6487,-2.6487,-2.6487,-2.6487,-2.6386,-2.6311,-2.6034,-2.5561,-2.5297,-2.4908,-2.4531,-2.4054,-2.3766,-2.3753,-2.3358,-2.3095,-2.3095,-2.2932,-2.2869,-2.2844,-2.2706,-2.2656,-2.2732,-2.2619,-2.2681,-2.2644,-2.2531,-2.2506,-2.2447,-2.2422,-2.2372,-2.2388,-2.2414,-2.2472,-2.2517,-2.2546,-2.2604,-2.2706,-2.2821,-2.292,-2.3191,-2.3401,-2.3612,-2.3847,-2.4121,-2.4394,-2.4641,-2.4792,-2.4901,-2.49,-2.4747,-2.4732,-2.4851,-2.4998,-2.5083,-2.5402,-2.5721,-2.5735,-2.5802,-2.5796,-2.589,-2.5962,-2.6068,-2.6309,-2.6221,-2.5901,-2.6097,-2.6517,-2.629,-2.5832,-2.625,-2.6546,-2.6127,-2.5807,-2.5865,-2.5977,-2.2434,-2.2877,-2.328,-2.3765,-2.4263,-2.4598,-2.4622,-2.4514,-2.4586,-2.4634,-2.473,-2.4909,-2.5064,-2.5171,-2.5336,-2.5477,-2.5535,-2.569,-2.6235,-2.6858,-2.7508,-2.8137,-2.8693,-2.9227,-2.9443,-2.9521,-2.956,-2.9611,-2.9779,-2.9767,-2.9528,-2.9264,-2.9076,-2.8423,-2.7808,-2.7392,-2.6977,-2.6675,-2.6487,-2.6487,-2.6487,-2.6487,-2.6487,-2.6487,-2.6487,-2.6248,-2.5971,-2.5787,-2.5423,-2.5109,-2.4607,-2.4205,-2.4004,-2.3446,-2.3108,-2.3095,-2.3083,-2.3045,-2.3032,-2.3058,-2.307,-2.3108,-2.3108,-2.3058,-2.3032,-2.2932,-2.2957,-2.2945,-2.3007,-2.3058,-2.3143,-2.3228,-2.3335,-2.3399,-2.3471,-2.3501,-2.3619,-2.3738,-2.3989,-2.4266,-2.4511,-2.4684,-2.4922,-2.5146,-2.5328,-2.5398,-2.5479,-2.5628,-2.5669,-2.5585,-2.5597,-2.5678,-2.5909,-2.6085,-2.6406,-2.6527,-2.6465,-2.6457,-2.6585,-2.674,-2.7,-2.6967,-2.6839,-2.6924,-2.7023,-2.7093,-2.7059,-2.7078,-2.6909,-2.7192,-2.7244,-2.6876,-2.6583,-2.6645,-2.6799,-2.2422,-2.291,-2.3709,-2.4284,-2.4803,-2.5052,-2.5218,-2.5324,-2.5028,-2.4992,-2.5182,-2.5288,-2.543,-2.5535,-2.5723,-2.5805,-2.5875,-2.5935,-2.6276,-2.6782,-2.7556,-2.8213,-2.8786,-2.9363,-2.9613,-2.974,-2.9779,-2.974,-2.9779,-2.9767,-2.9767,-2.9754,-2.9327,-2.8699,-2.8047,-2.7657,-2.7203,-2.6587,-2.6487,-2.6487,-2.6487,-2.6487,-2.6487,-2.6487,-2.6487,-2.6424,-2.6323,-2.6059,-2.5661,-2.5498,-2.5159,-2.4644,-2.4142,-2.3597,-2.3333,-2.3158,-2.3183,-2.3095,-2.3095,-2.3095,-2.3138,-2.3138,-2.3138,-2.3168,-2.3228,-2.3198,-2.3198,-2.3198,-2.3228,-2.3288,-2.336,-2.339,-2.348,-2.3599,-2.3688,-2.3806,-2.3923,-2.4128,-2.4419,-2.4706,-2.4905,-2.5103,-2.5314,-2.5508,-2.5647,-2.5866,-2.6029,-2.6165,-2.626,-2.626,-2.6286,-2.6367,-2.6474,-2.6592,-2.6724,-2.687,-2.6989,-2.7063,-2.7155,-2.7181,-2.7181,-2.7207,-2.7244,-2.7295,-2.7346,-2.7295,-2.724,-2.7295,-2.7321,-2.7295,-2.7321,-2.7335,-2.7295,-2.7255,-2.728,-2.2072,-2.2632,-2.3863,-2.4546,-2.4886,-2.5448,-2.5711,-2.5758,-2.5688,-2.5665,-2.57,-2.5758,-2.5758,-2.5828,-2.5898,-2.598,-2.6097,-2.6156,-2.6571,-2.7042,-2.7674,-2.815,-2.8787,-2.9352,-2.9704,-2.9779,-2.9779,-2.9779,-2.9779,-2.9779,-2.9779,-2.9779,-2.9465,-2.9001,-2.8147,-2.7808,-2.7344,-2.6562,-2.6487,-2.6487,-2.6487,-2.6487,-2.6487,-2.6487,-2.6487,-2.6487,-2.6424,-2.6373,-2.6273,-2.6197,-2.5686,-2.5172,-2.4625,-2.4061,-2.3828,-2.3728,-2.3389,-2.3238,-2.3138,-2.3155,-2.3228,-2.33,-2.333,-2.339,-2.342,-2.336,-2.3318,-2.3348,-2.3378,-2.348,-2.3539,-2.3569,-2.3628,-2.3776,-2.3923,-2.4057,-2.4203,-2.4492,-2.4806,-2.5047,-2.5257,-2.5439,-2.5647,-2.5839,-2.5975,-2.6138,-2.6312,-2.6472,-2.6633,-2.6659,-2.6659,-2.6727,-2.6806,-2.6937,-2.7041,-2.7104,-2.7181,-2.7248,-2.7284,-2.731,-2.735,-2.7386,-2.7423,-2.7473,-2.7524,-2.7448,-2.7448,-2.7499,-2.7499,-2.7448,-2.7423,-2.7448,-2.7473,-2.7433,-2.7499,-2.2197,-2.2639,-2.3615,-2.4232,-2.4624,-2.524,-2.5576,-2.5694,-2.5904,-2.6084,-2.6154,-2.6097,-2.6027,-2.605,-2.6119,-2.6188,-2.6292,-2.6327,-2.6511,-2.7005,-2.7532,-2.7996,-2.8586,-2.9139,-2.9528,-2.9679,-2.9754,-2.9779,-2.9779,-2.9779,-2.9779,-2.9716,-2.9553,-2.8988,-2.8134,-2.7846,-2.7392,-2.6537,-2.6499,-2.6521,-2.6521,-2.6487,-2.6487,-2.6487,-2.6487,-2.6487,-2.6487,-2.6487,-2.6487,-2.6336,-2.5896,-2.5548,-2.5096,-2.4612,-2.4255,-2.401,-2.3721,-2.3505,-2.3329,-2.3288,-2.3348,-2.345,-2.348,-2.3539,-2.3599,-2.3539,-2.3599,-2.3599,-2.3497,-2.3556,-2.3776,-2.3878,-2.4041,-2.4187,-2.4303,-2.4405,-2.4607,-2.4835,-2.5174,-2.5481,-2.5661,-2.5771,-2.5948,-2.615,-2.6285,-2.6474,-2.6645,-2.6762,-2.6922,-2.7015,-2.7041,-2.7067,-2.7093,-2.7144,-2.7248,-2.7284,-2.7321,-2.7386,-2.7412,-2.7463,-2.7488,-2.7524,-2.76,-2.76,-2.76,-2.7575,-2.756,-2.7585,-2.7585,-2.7549,-2.7549,-2.7575,-2.7585,-2.7585,-2.7575,-2.2525,-2.2764,-2.3311,-2.3747,-2.4202,-2.4821,-2.5185,-2.5443,-2.59,-2.6264,-2.6418,-2.6292,-2.6236,-2.6292,-2.6396,-2.6452,-2.6487,-2.6418,-2.6537,-2.67,-2.714,-2.7582,-2.8059,-2.8549,-2.9051,-2.949,-2.9704,-2.9754,-2.9779,-2.9666,-2.9541,-2.9553,-2.9114,-2.8536,-2.8021,-2.7593,-2.7122,-2.6706,-2.6589,-2.6589,-2.6555,-2.6521,-2.6521,-2.6521,-2.6568,-2.6568,-2.6568,-2.6555,-2.6555,-2.6417,-2.6211,-2.6022,-2.5731,-2.5353,-2.4797,-2.4476,-2.4196,-2.386,-2.356,-2.348,-2.3569,-2.3628,-2.3628,-2.3688,-2.3789,-2.3865,-2.3894,-2.3894,-2.3793,-2.3822,-2.4083,-2.42,-2.4403,-2.4563,-2.4635,-2.4778,-2.5005,-2.5202,-2.5536,-2.5866,-2.5975,-2.6056,-2.6272,-2.6445,-2.6618,-2.6806,-2.6937,-2.7067,-2.7155,-2.7207,-2.7248,-2.7258,-2.731,-2.7361,-2.7412,-2.7437,-2.7423,-2.7473,-2.7524,-2.7575,-2.7585,-2.7585,-2.7585,-2.7585,-2.7585,-2.7585,-2.7585,-2.7585,-2.7585,-2.7585,-2.7585,-2.7585,-2.7585,-2.7585,-2.7585,-2.2647,-2.2757,-2.338,-2.3728,-2.3901,-2.4551,-2.5123,-2.5507,-2.5632,-2.6013,-2.6327,-2.6487,-2.643,-2.6418,-2.6452,-2.6487,-2.6487,-2.6487,-2.6487,-2.6587,-2.6977,-2.7256,-2.7632,-2.816,-2.8586,-2.9001,-2.9415,-2.9716,-2.944,-2.9202,-2.9089,-2.9051,-2.8536,-2.8009,-2.758,-2.7321,-2.7224,-2.6844,-2.6807,-2.6841,-2.6807,-2.676,-2.6645,-2.6726,-2.6807,-2.6888,-2.6922,-2.6909,-2.6922,-2.6871,-2.6761,-2.6638,-2.6447,-2.6115,-2.5593,-2.5046,-2.4752,-2.4264,-2.3974,-2.3752,-2.376,-2.3907,-2.3966,-2.407,-2.4187,-2.4319,-2.4376,-2.4447,-2.4376,-2.4376,-2.4534,-2.4534,-2.4649,-2.4835,-2.4977,-2.523,-2.5481,-2.5647,-2.5852,-2.6056,-2.6192,-2.6353,-2.6606,-2.675,-2.6855,-2.7015,-2.7119,-2.7233,-2.7335,-2.7386,-2.7412,-2.7448,-2.7473,-2.7524,-2.7549,-2.7524,-2.7549,-2.756,-2.7585,-2.7585,-2.7585,-2.7585,-2.7585,-2.7585,-2.7585,-2.7585,-2.7585,-2.7585,-2.7585,-2.7585,-2.7585,-2.7585,-2.7585,-2.7585,-2.7585]},{"header":{"parameterUnit":"m.s-1","parameterCategory":1,"la1":31.0,"la2":29.5877,"lo1":-88.7671,"lo2":-86.6584,"dy":0.0162,"dx":0.0185,"nx":115,"ny":88,"refTime":"2023-08-30T06:00:00:Z","depth":0,"parameterNumber":3,"parameterNumberName":"V-component_of_WINDS"},"data":[0.0,0.0,0.0,0.0,0.0,0.0,0.0,0.0,0.0,0.0,0.0,0.0,0.0,0.0,0.0,0.0,0.0,0.0,0.0,0.0,0.0,0.0,0.0,0.0,0.0,0.0,0.0,0.0,0.0,0.0,0.0,0.0,0.0,0.0,0.0,0.0,0.0,0.0,0.0,0.0,0.0,0.0,0.0,0.0,0.0,0.0,0.0,0.0,0.0,0.0,0.0,0.0,0.0,0.0,0.0,0.0,0.0,0.0,0.0,0.0,0.0,0.0,0.0,0.0,0.0,0.0,0.0,0.0,0.0,0.0,0.0,0.0,0.0,0.0,0.0,0.0,0.0,0.0,0.0,0.0,0.0,0.0,0.0,0.0,0.0,0.0,0.0,0.0,0.0,0.0,0.0,0.0,0.0,0.0,0.0,0.0,0.0,0.0,0.0,0.0,0.0,0.0,0.0,0.0,0.0,0.0,0.0,0.0,0.0,0.0,0.0,0.0,0.0,0.0,0.0,0.0,0.0,0.0,0.0,0.0,0.0,0.0,0.0,0.0,0.0,0.0,0.0,0.0,0.0,0.0,0.0,0.0,0.0,0.0,0.0,0.0,0.0,0.0,0.0,0.0,0.0,0.0,0.0,0.0,0.0,0.0,0.0,0.0,0.0,0.0,0.0,0.0,0.0,0.0,0.0,0.0,0.0,0.0,0.0,0.0,0.0,0.0,0.0,0.0,0.0,0.0,0.0,0.0,0.0,0.0,0.0,0.0,0.0,0.0,0.0,0.0,0.0,0.0,0.0,0.0,0.0,0.0,0.0,0.0,0.0,0.0,0.0,0.0,0.0,0.0,0.0,0.0,0.0,0.0,0.0,0.0,0.0,0.0,0.0,0.0,0.0,0.0,0.0,0.0,0.0,0.0,0.0,0.0,0.0,0.0,0.0,0.0,0.0,0.0,0.0,0.0,0.0,0.0,0.0,0.0,0.0,0.0,0.0,0.0,0.0,0.0,0.0,0.0,0.0,0.0,0.0,0.0,0.0,0.0,0.0,0.0,0.0,0.0,0.0,0.0,0.0,0.0,0.0,0.0,0.0,0.0,0.0,0.0,0.0,0.0,0.0,0.0,0.0,0.0,0.0,0.0,0.0,0.0,0.0,0.0,0.0,0.0,0.0,0.0,0.0,0.0,0.0,0.0,0.0,0.0,0.0,0.0,0.0,0.0,0.0,0.0,0.0,0.0,0.0,0.0,0.0,0.0,0.0,0.0,0.0,0.0,0.0,0.0,0.0,0.0,0.0,0.0,0.0,0.0,0.0,0.0,0.0,0.0,0.0,0.0,0.0,0.0,0.0,0.0,0.0,0.0,0.0,0.0,0.0,0.0,0.0,0.0,0.0,0.0,0.0,0.0,0.0,0.0,0.0,0.0,0.0,0.0,0.0,0.0,0.0,0.0,0.0,0.0,0.0,0.0,0.0,0.0,0.0,0.0,0.0,0.0,0.0,0.0,0.0,0.0,0.0,0.0,0.0,0.0,0.0,0.0,0.0,0.0,0.0,0.0,0.0,0.0,0.0,0.0,0.0,0.0,0.0,0.0,0.0,0.0,0.0,0.0,0.0,0.0,0.0,0.0,0.0,0.0,0.0,0.0,0.0,0.0,0.0,0.0,0.0,0.0,0.0,0.0,0.0,0.0,0.0,0.0,0.0,0.0,0.0,0.0,0.0,0.0,0.0,0.0,0.0,0.0,0.0,0.0,0.0,0.0,0.0,0.0,0.0,0.0,0.0,0.0,0.0,0.0,0.0,0.0,0.0,0.0,0.0,0.0,0.0,0.0,0.0,0.0,0.0,0.0,0.0,0.0,0.0,0.0,0.0,0.0,0.0,0.0,0.0,0.0,0.0,0.0,0.0,0.0,0.0,0.0,0.0,0.0,0.0,0.0,0.0,0.0,0.0,0.0,0.0,0.0,0.0,0.0,0.0,0.0,0.0,0.0,0.0,0.0,0.0,0.0,0.0,0.0,0.0,0.0,0.0,0.0,0.0,0.0,0.0,0.0,0.0,0.0,0.0,0.0,0.0,0.0,0.0,0.0,0.0,0.0,0.0,0.0,0.0,0.0,0.0,0.0,0.0,0.0,0.0,0.0,0.0,0.0,0.0,0.0,0.0,0.0,0.0,0.0,0.0,0.0,0.0,0.0,0.0,0.0,0.0,0.0,0.0,0.0,0.0,0.0,0.0,0.0,0.0,0.0,0.0,0.0,0.0,0.0,0.0,0.0,0.0,0.0,0.0,0.0,0.0,0.0,0.0,0.0,0.0,0.0,0.0,0.0,0.0,0.0,0.0,0.0,0.0,0.0,0.0,0.0,0.0,0.0,0.0,0.0,0.0,0.0,0.0,0.0,0.0,0.0,0.0,0.0,0.0,0.0,0.0,0.0,0.0,0.0,0.0,0.0,0.0,0.0,0.0,0.0,0.0,0.0,0.0,0.0,0.0,0.0,0.0,0.0,0.0,0.0,0.0,0.0,0.0,0.0,0.0,0.0,0.0,0.0,0.0,0.0,0.0,0.0,0.0,0.0,0.0,0.0,0.0,0.0,0.0,0.0,0.0,0.0,0.0,0.0,0.0,0.0,0.0,0.0,0.0,0.0,0.0,0.0,0.0,0.0,0.0,0.0,0.0,0.0,0.0,0.0,0.0,0.0,0.0,0.0,0.0,0.0,0.0,0.0,0.0,0.0,0.0,0.0,0.0,0.0,0.0,0.0,0.0,0.0,0.0,0.0,0.0,0.0,0.0,0.0,0.0,0.0,0.0,0.0,0.0,0.0,0.0,0.0,0.0,0.0,0.0,0.0,0.0,0.0,0.0,0.0,0.0,0.0,0.0,0.0,0.0,0.0,0.0,0.0,0.0,0.0,0.0,0.0,0.0,0.0,0.0,0.0,0.0,0.0,0.0,0.0,0.0,0.0,0.0,0.0,0.0,0.0,0.0,0.0,0.0,0.0,0.0,0.0,0.0,0.0,0.0,0.0,0.0,0.0,0.0,0.0,0.0,0.0,0.0,0.0,0.0,0.0,0.0,0.0,0.0,0.0,0.0,0.0,0.0,0.0,0.0,0.0,0.0,0.0,0.0,0.0,0.0,0.0,0.0,0.0,0.0,0.0,0.0,0.0,0.0,0.0,0.0,0.0,0.0,0.0,0.0,0.0,0.0,0.0,0.0,0.0,0.0,0.0,0.0,0.0,0.0,0.0,0.0,0.0,0.0,0.0,0.0,0.0,0.0,0.0,0.0,0.0,0.0,0.0,0.0,0.0,0.0,0.0,0.0,0.0,0.0,0.0,0.0,0.0,0.0,0.0,0.0,0.0,0.0,0.0,0.0,0.0,0.0,0.0,0.0,0.0,0.0,0.0,0.0,0.0,0.0,0.0,0.0,0.0,0.0,0.0,0.0,0.0,0.0,0.0,0.0,0.0,0.0,0.0,0.0,0.0,0.0,0.0,0.0,0.0,0.0,0.0,0.0,0.0,0.0,0.0,0.0,0.0,0.0,0.0,0.0,0.0,0.0,0.0,0.0,0.0,0.0,0.0,0.0,0.0,0.0,0.0,0.0,0.0,0.0,0.0,0.0,0.0,0.0,0.0,0.0,0.0,0.0,0.0,0.0,0.0,0.0,0.0,0.0,0.0,0.0,0.0,0.0,0.0,0.0,0.0,0.0,0.0,0.0,0.0,0.0,0.0,0.0,0.0,0.0,0.0,0.0,0.0,0.0,0.0,0.0,0.0,0.0,0.0,0.0,0.0,0.0,0.0,0.0,0.0,0.0,0.0,0.0,0.0,0.0,0.0,0.0,0.0,0.0,0.0,0.0,0.0,0.0,0.0,0.0,0.0,0.0,0.0,0.0,0.0,0.0,0.0,0.0,0.0,0.0,0.0,0.0,0.0,0.0,0.0,0.0,0.0,0.0,0.0,0.0,0.0,0.0,0.0,0.0,0.0,0.0,0.0,0.0,0.0,0.0,0.0,0.0,0.0,0.0,0.0,0.0,0.0,0.0,0.0,0.0,0.0,0.0,0.0,0.0,0.0,0.0,0.0,0.0,0.0,0.0,0.0,0.0,0.0,0.0,0.0,0.0,0.0,0.0,0.0,0.0,0.0,0.0,0.0,0.0,0.0,0.0,0.0,0.0,0.0,0.0,0.0,0.0,0.0,0.0,0.0,0.0,0.0,0.0,0.0,0.0,0.0,0.0,0.0,0.0,0.0,0.0,0.0,0.0,0.0,0.0,0.0,0.9081,0.0,0.0,0.0,0.0,0.0,0.0,0.0,0.0,0.0,0.0,0.0,0.0,0.0,0.0,0.0,0.0,0.0,0.0,0.0,0.0,0.0,0.0,0.0,0.0,0.0,0.0,0.0,0.0,0.0,0.0,0.0,0.0,0.0,0.0,0.0,0.0,0.0,0.0,0.0,0.0,0.0,0.0,0.0,0.0,0.0,0.0,0.0,0.0,0.0,0.0,0.0,0.0,0.0,0.0,0.0,0.0,0.0,0.0,0.0,0.0,0.0,0.0,0.0,0.0,0.0,0.0,0.0,0.0,0.0,0.0,0.0,0.0,0.0,0.0,0.0,0.0,0.0,0.0,0.0,0.0,0.0,0.0,0.0,0.0,0.0,0.0,0.0,0.0,0.0,0.0,0.0,0.0,0.0,0.0,0.0,0.0,0.0,0.0,0.0,0.0,0.0,0.0,0.0,0.0,0.0,0.0,0.0,0.0,0.0,0.0,0.8835,0.8919,0.8975,0.904,0.9085,0.0,0.0,0.0,0.0,0.0,0.0,0.0,0.0,0.0,0.0,0.0,0.0,0.0,0.0,0.0,0.0,0.0,0.0,0.0,0.0,0.0,0.0,0.0,0.0,0.0,0.0,0.0,0.0,0.0,0.0,0.0,0.0,0.0,0.0,0.0,0.0,0.0,0.0,0.0,0.0,0.0,0.0,0.0,0.0,0.0,0.0,0.0,0.0,0.0,0.0,0.0,0.0,0.0,0.0,0.0,0.0,0.0,0.0,0.0,0.0,0.0,0.0,0.0,0.0,0.0,0.0,0.0,0.0,0.0,0.0,0.0,0.0,0.0,0.0,0.0,0.0,0.0,0.0,0.0,0.0,0.0,0.0,0.0,0.0,0.0,0.0,0.0,0.0,0.0,0.0,0.0,0.0,0.0,0.0,0.0,0.0,0.0,0.0,0.0,0.0,0.0,0.0,0.0,0.0,0.0,0.0,0.0,0.0,0.0,0.0,0.0,0.0,0.8975,0.9034,0.9069,0.0,0.0,0.0,0.0,0.0,0.0,0.0,0.0,0.0,0.0,0.0,0.0,0.0,0.0,0.0,0.0,0.0,0.0,0.0,0.0,0.0,0.0,0.0,0.0,0.0,0.0,0.0,0.0,0.0,0.0,0.0,0.0,0.0,0.0,0.0,0.0,0.0,0.0,0.0,0.0,0.0,0.0,0.0,0.0,0.0,0.0,0.0,0.0,0.0,0.0,0.0,0.0,0.0,0.0,0.0,0.0,0.0,0.0,0.0,0.0,0.0,0.0,0.0,0.0,0.0,0.0,0.0,0.0,0.0,0.0,0.0,0.0,0.0,0.0,0.0,0.0,0.0,0.0,0.0,0.0,0.0,0.0,0.0,0.0,0.0,0.0,0.0,0.0,0.0,0.0,0.0,0.0,0.0,0.0,0.0,0.0,0.0,0.0,0.0,0.0,0.0,0.0,0.0,0.0,0.0,0.0,0.0,0.0,0.0,0.0,0.892,0.8992,0.8997,0.0,0.9144,0.0,0.0,0.0,0.0,0.0,0.0,0.0,0.0,0.0,0.0,0.0,0.0,0.0,0.0,0.0,0.0,0.0,0.0,0.0,0.0,0.0,0.0,0.0,0.0,0.0,0.0,0.0,0.0,0.0,0.0,0.0,0.0,0.0,0.0,0.0,0.0,0.0,0.0,0.0,0.0,0.0,0.0,0.0,0.0,0.0,0.0,0.0,0.0,0.0,0.0,0.0,0.0,0.0,0.0,0.0,0.0,0.0,0.0,0.0,0.0,0.0,0.0,0.0,0.0,0.0,0.0,0.0,0.0,0.0,0.0,0.0,0.0,0.0,0.0,0.0,0.0,0.0,0.0,0.0,0.0,0.0,0.0,0.0,0.0,0.0,0.0,0.0,0.0,0.0,0.0,0.0,0.0,0.0,0.0,0.0,0.0,0.0,0.0,0.0,0.0,0.0,0.0,0.0,0.0,0.0,0.0,0.0,0.0,0.0,0.0,0.8936,0.8997,0.9084,0.9173,0.0,0.0,0.0,0.0,0.0,0.0,0.0,0.0,0.0,0.0,0.0,0.0,0.0,0.0,0.0,0.0,0.0,0.0,0.0,0.0,0.0,0.0,0.0,0.0,0.0,0.0,0.0,0.0,0.0,0.0,0.0,0.0,0.0,0.0,0.0,0.0,0.0,0.0,0.0,0.0,0.0,0.0,0.0,0.0,0.0,0.0,0.0,0.0,0.0,0.0,0.0,0.0,0.0,0.0,0.0,0.0,0.0,0.0,0.0,0.0,0.0,0.0,0.0,0.0,0.0,0.0,0.0,0.0,0.0,0.0,0.0,0.0,0.0,0.0,0.0,0.0,0.0,0.0,0.0,0.0,0.0,0.0,0.0,0.0,0.0,0.0,0.0,0.0,0.0,0.0,0.0,0.0,0.0,0.0,0.0,0.0,0.0,0.0,0.0,0.0,0.0,0.0,0.0,0.0,0.0,0.0,0.0,0.0,0.0,0.0,0.8914,0.8964,0.9024,0.9135,0.9226,0.9297,0.0,0.0,0.0,0.0,0.0,0.0,0.0,0.0,0.0,0.0,0.0,0.0,0.0,0.0,0.0,0.0,0.0,0.0,0.0,0.0,0.0,0.0,0.0,0.0,0.0,0.0,0.0,0.0,0.0,0.0,0.0,0.0,0.0,0.0,0.0,0.0,0.0,0.0,0.0,0.0,0.0,0.0,0.0,0.0,0.0,0.0,0.0,0.0,0.0,0.0,0.0,0.0,0.0,0.0,0.0,0.0,0.0,0.0,0.0,0.0,0.0,0.0,0.0,0.0,0.0,0.0,0.0,0.0,0.0,0.0,0.0,0.0,0.0,0.0,0.0,0.0,0.0,0.0,0.0,0.0,0.0,0.0,0.0,0.0,0.0,0.0,0.0,0.0,0.0,0.0,0.0,0.0,0.0,0.0,0.0,0.0,0.0,0.0,0.0,0.0,0.0,0.0,0.0,0.0,0.0,0.0,0.0,0.0,0.8914,0.897,0.9031,0.9093,0.9157,0.9223,0.0,0.0,0.0,0.0,0.0,0.0,0.0,0.0,0.0,0.0,0.0,0.0,0.0,0.0,0.0,0.0,0.0,0.0,0.0,0.0,0.0,0.0,0.0,0.0,0.0,0.0,0.0,0.0,0.0,0.0,0.0,0.0,0.0,0.0,0.0,0.0,0.0,0.0,0.0,0.0,0.0,0.0,0.0,0.0,0.0,0.0,0.0,0.0,0.0,0.0,0.0,0.0,0.0,0.0,0.0,0.0,0.0,0.0,0.0,0.0,0.0,0.0,0.0,0.0,0.0,0.0,0.0,0.0,0.0,0.0,0.0,0.0,0.0,0.0,0.0,0.0,0.0,0.0,0.0,0.0,0.0,0.0,0.0,0.0,0.0,0.0,0.0,0.0,0.0,0.0,0.0,0.0,0.0,0.0,0.0,0.0,0.0,0.0,0.0,0.0,0.0,0.0,0.0,0.0,0.0,0.0,0.0,0.0,0.0,0.8976,0.9036,0.9088,0.9154,0.9229,0.9301,0.0,0.0,0.0,0.0,0.0,0.0,0.0,0.0,0.0,0.0,0.0,0.0,0.0,0.0,0.0,0.0,0.0,0.0,0.0,0.0,0.0,0.0,0.0,0.0,0.0,0.0,0.0,0.0,0.0,0.0,0.0,0.0,0.0,0.0,0.0,0.0,0.0,0.0,0.0,0.0,0.0,0.0,0.0,0.0,0.0,0.0,0.0,0.0,0.0,0.0,0.0,0.0,0.0,0.0,0.0,0.0,0.0,0.0,0.0,0.0,0.0,0.0,0.0,0.0,0.0,0.0,0.0,0.0,0.0,0.0,0.0,0.0,0.0,0.0,0.0,0.0,0.0,0.0,0.0,0.0,0.0,0.0,0.0,0.0,0.0,0.0,0.0,0.0,0.0,0.0,0.0,0.0,0.0,0.0,0.0,0.0,0.0,0.0,0.0,0.0,0.0,0.0,0.0,0.0,0.0,0.0,0.0,0.0,0.0,0.9073,0.0,0.9154,0.0,0.9292,0.9366,0.0,0.0,0.0,0.0,0.0,0.0,0.0,0.0,0.0,0.0,0.0,0.0,0.0,0.0,0.0,0.0,0.0,0.0,0.0,0.0,0.0,0.0,0.0,0.0,0.0,0.0,0.0,0.0,0.0,0.0,0.0,0.0,0.0,0.0,0.0,0.0,0.0,0.0,0.0,0.0,0.0,0.0,0.0,0.0,0.0,0.0,0.0,0.0,0.0,0.0,0.0,0.0,0.0,0.0,0.0,0.0,0.0,0.0,0.0,0.0,0.0,0.0,0.0,0.0,0.0,0.0,0.0,0.0,0.0,0.0,0.0,0.0,0.0,0.0,0.0,0.0,0.0,0.0,0.0,0.0,0.0,0.0,0.0,0.0,0.0,0.0,0.0,0.0,0.0,0.0,0.0,0.0,0.0,0.0,0.0,0.0,0.0,0.0,0.0,0.0,0.0,0.0,0.0,0.0,0.0,0.0,0.0,0.0,0.9099,0.9201,0.9231,0.9291,0.9325,0.942,0.9475,0.0,0.0,0.0,0.0,0.0,0.0,0.0,0.0,0.0,0.0,0.0,0.0,0.0,0.0,0.0,0.0,0.0,0.0,0.0,0.0,0.0,0.0,0.0,0.0,0.0,0.0,0.0,0.0,0.0,0.0,0.0,0.0,0.0,0.0,0.0,0.0,0.0,0.0,0.0,0.0,0.0,0.0,0.0,0.0,0.0,0.0,0.0,0.0,0.0,0.0,0.0,0.0,0.0,0.0,0.0,0.0,0.0,0.0,0.0,0.0,0.0,0.0,0.0,0.0,0.0,0.0,0.0,0.0,0.0,0.0,0.0,0.0,0.0,0.0,0.0,0.0,0.0,0.0,0.0,0.0,0.0,0.0,0.0,0.0,0.0,0.0,0.0,0.0,0.0,0.0,0.0,0.0,0.0,0.0,0.0,0.0,0.0,0.0,0.0,0.0,0.0,0.0,0.0,0.0,0.0,0.0,0.0,0.0,0.0,0.9308,0.9819,1.014,1.025,1.0284,1.0331,0.0,0.0,0.0,0.0,0.0,0.0,0.0,0.0,0.0,0.0,0.0,0.0,0.0,0.0,0.0,0.0,0.0,0.0,0.0,0.0,0.0,0.0,0.0,0.0,0.0,0.0,0.0,0.0,0.0,0.0,0.0,0.0,0.0,0.0,0.0,0.0,0.0,0.0,0.0,0.0,0.0,0.0,0.0,0.0,0.0,0.0,0.0,0.0,0.0,0.0,0.0,0.0,0.0,0.0,0.0,0.0,0.0,0.0,0.0,0.0,0.0,0.0,0.0,0.0,0.0,0.0,0.0,0.0,0.0,0.0,0.0,0.0,0.0,0.0,0.0,0.0,0.0,0.0,0.0,0.0,0.0,0.0,0.0,0.0,0.0,0.0,0.0,0.0,0.0,0.0,0.0,0.0,0.0,0.0,0.0,0.0,0.0,0.0,0.0,0.0,0.0,0.0,0.0,0.0,0.0,0.0,0.0,0.0,0.0,0.9938,1.0615,1.1072,1.1183,1.0893,1.0772,1.0808,0.0,0.0,0.0,0.0,0.0,0.0,0.0,0.0,0.0,0.0,0.0,0.0,0.0,0.0,0.0,0.0,0.0,0.0,0.0,0.0,0.0,0.0,0.0,0.0,0.0,0.0,0.0,0.0,0.0,0.0,0.0,0.0,0.0,0.0,0.0,0.0,0.0,0.0,0.0,0.0,0.0,0.0,0.0,0.0,0.0,0.0,0.0,0.0,0.0,0.0,0.0,0.0,0.0,0.0,0.0,0.0,0.0,0.0,0.0,0.0,0.0,0.0,0.0,0.0,0.0,0.0,0.0,0.0,0.0,0.0,0.0,0.0,0.0,0.0,0.0,0.0,0.0,0.0,0.0,0.0,0.0,0.0,0.0,0.0,0.0,0.0,0.0,0.0,0.0,0.0,0.0,0.0,0.0,0.0,0.0,0.0,0.0,0.0,0.0,0.0,0.0,0.0,0.0,0.0,0.0,0.0,0.0,0.0,1.1047,1.1693,1.2074,1.2079,1.1361,1.0958,0.0,0.0,0.0,0.0,0.0,0.0,0.0,0.0,0.0,0.0,0.0,0.0,0.0,0.0,0.0,0.0,0.0,0.0,0.0,0.0,0.0,0.0,0.0,0.0,0.0,0.0,0.0,0.0,0.0,0.0,0.0,0.0,0.0,0.0,0.0,0.0,0.0,0.0,0.0,0.0,0.0,0.0,0.0,0.0,0.0,0.0,0.0,0.0,0.0,0.0,0.0,0.0,0.0,0.0,0.0,0.0,0.0,0.0,0.0,0.0,0.0,0.0,0.0,0.0,0.0,0.0,0.0,0.0,0.0,0.0,0.0,0.0,0.0,0.0,0.0,0.0,0.0,0.0,0.0,0.0,0.0,0.0,0.0,0.0,0.0,0.0,0.0,0.0,0.0,0.0,0.0,0.0,0.0,0.0,0.0,0.0,0.0,0.0,0.0,0.0,0.0,0.0,0.0,0.0,0.0,0.0,0.0,0.0,0.0,1.2812,1.3574,1.3684,1.3062,1.2835,1.2456,0.0,0.0,0.0,0.0,0.0,0.0,0.0,0.0,0.0,0.0,0.0,0.0,0.0,0.0,0.0,0.0,0.0,0.0,0.0,0.0,0.0,0.0,0.0,0.0,0.0,0.0,0.0,0.0,0.0,0.0,0.0,0.0,0.0,0.0,0.0,0.0,0.0,0.0,0.0,0.0,0.0,0.0,0.0,0.0,0.0,0.0,0.0,0.0,0.0,0.0,0.0,0.0,0.0,0.0,0.0,0.0,0.0,0.0,0.0,0.0,0.0,0.0,0.0,0.0,0.0,0.0,0.0,0.0,0.0,0.0,0.0,0.0,0.0,0.0,0.0,0.0,0.0,0.0,0.0,0.0,0.0,0.0,0.0,0.0,0.0,0.0,0.0,0.0,0.0,0.0,0.0,0.0,0.0,0.0,0.0,0.0,0.0,0.0,0.0,0.0,0.0,0.0,0.0,0.0,0.0,0.0,0.0,0.0,1.3225,1.4117,1.4926,1.5104,1.4593,1.3873,1.3277,0.0,0.0,0.0,0.0,0.0,0.0,0.0,0.0,0.0,0.0,0.0,0.0,0.0,0.0,0.0,0.0,0.0,0.0,0.0,0.0,0.0,0.0,0.0,0.0,0.0,0.0,0.0,0.0,0.0,0.0,0.0,0.0,0.0,0.0,0.0,0.0,0.0,0.0,0.0,0.0,0.0,0.0,0.0,0.0,0.0,0.0,0.0,0.0,0.0,0.0,0.0,0.0,0.0,0.0,0.0,0.0,0.0,0.0,0.0,0.0,0.0,0.0,0.0,0.0,0.0,0.0,0.0,0.0,0.0,0.0,0.0,0.0,0.0,0.0,0.0,0.0,0.0,0.0,0.0,0.0,0.0,0.0,0.0,0.0,0.0,0.0,0.0,0.0,0.0,0.0,0.0,0.0,0.0,0.0,0.0,0.0,0.0,0.0,0.0,0.0,0.0,0.0,0.0,0.0,0.0,0.0,0.0,0.0,1.4113,1.512,1.5856,1.625,1.6282,1.474,1.3781,0.0,0.0,0.0,0.0,0.0,0.0,0.0,0.0,0.0,0.0,0.0,0.0,0.0,0.0,0.0,0.0,0.0,0.0,0.0,0.0,0.0,0.0,0.0,0.0,0.0,0.0,0.0,0.0,0.0,0.0,0.0,0.0,0.0,0.0,0.0,0.0,0.0,0.0,0.0,0.0,0.0,0.0,0.0,0.0,0.0,0.0,0.0,0.0,0.0,0.0,0.0,0.0,0.0,0.0,0.0,0.0,0.0,0.0,0.0,0.0,0.0,0.0,0.0,0.0,0.0,0.0,0.0,0.0,0.0,0.0,0.0,0.0,0.0,0.0,0.0,0.0,0.0,0.0,0.0,0.0,0.0,0.0,0.0,0.0,0.0,0.0,0.0,0.0,0.0,0.0,0.0,0.0,0.0,0.0,0.0,0.0,0.0,0.0,0.0,0.0,0.0,0.0,0.0,0.0,0.0,0.0,0.0,0.0,1.4479,1.5987,1.6254,1.6663,1.7273,1.6215,1.5022,0.0,0.0,0.0,0.0,0.0,0.0,0.0,0.0,0.0,0.0,0.0,0.0,0.0,0.0,0.0,0.0,0.0,0.0,0.0,0.0,0.0,0.0,0.0,0.0,0.0,0.0,0.0,0.0,0.0,0.0,0.0,0.0,0.0,0.0,0.0,0.0,0.0,0.0,0.0,0.0,0.0,0.0,0.0,0.0,0.0,0.0,0.0,0.0,1.1513,0.0,0.0,0.0,0.0,0.0,0.0,0.0,0.0,0.0,0.0,0.0,0.0,0.0,0.0,0.0,0.0,0.0,0.0,0.0,0.0,0.0,0.0,0.0,0.0,0.0,0.0,0.0,0.0,0.0,0.0,0.0,0.0,0.0,0.0,0.0,0.0,0.0,0.0,0.0,0.0,0.0,0.0,0.0,0.0,0.0,0.0,0.0,0.0,0.0,0.0,0.0,0.0,0.0,0.0,0.0,0.0,0.0,0.0,0.0,1.5225,1.6881,1.6979,1.7205,1.76,1.7152,1.6288,0.0,0.0,0.0,0.0,0.0,0.0,0.0,0.0,0.0,0.0,0.0,0.0,0.0,0.0,0.0,0.0,0.0,0.0,0.0,0.0,0.0,0.0,0.0,0.0,0.0,0.0,0.0,0.0,0.0,0.0,0.0,0.0,0.0,0.0,0.0,0.0,0.0,0.0,0.0,0.0,0.0,0.0,0.0,0.0,0.0,0.0,0.0,0.0,0.0,0.0,0.0,0.0,0.0,0.0,0.0,0.0,0.0,0.0,0.0,0.0,0.0,0.0,0.0,0.0,0.0,0.0,0.0,0.0,0.0,0.0,0.0,0.0,0.0,0.0,0.0,0.0,0.0,0.0,0.0,0.0,0.0,0.0,0.0,0.0,0.0,0.0,0.0,0.0,0.0,0.0,0.0,0.0,0.0,0.0,0.0,0.0,0.0,0.0,0.0,0.0,0.0,0.0,0.0,0.0,0.0,0.0,0.0,1.4667,1.5885,1.7432,1.751,1.7578,1.7693,1.7577,1.7184,1.642,0.0,0.0,0.0,0.0,0.0,0.0,0.0,0.0,0.0,0.0,0.0,0.0,0.0,0.0,0.0,0.0,0.0,0.0,0.0,0.0,0.0,0.0,0.0,0.0,0.0,0.0,0.0,0.0,0.0,0.0,0.0,0.0,0.0,0.0,0.0,0.0,0.0,0.0,1.0195,1.0309,0.0,0.0,0.0,0.0,0.0,0.0,0.0,0.0,1.418,0.0,0.0,0.0,0.0,0.0,0.0,0.0,0.0,0.0,0.0,0.0,0.0,0.0,0.0,0.0,0.0,0.0,0.0,0.0,0.0,0.0,0.0,0.0,0.0,0.0,0.0,0.0,0.0,0.0,0.0,0.0,0.0,0.0,0.0,0.0,0.0,0.0,0.0,0.0,0.0,0.0,0.0,0.0,0.0,0.0,0.0,0.0,0.0,0.0,0.0,0.0,0.0,0.0,0.0,0.0,0.0,1.3898,1.4731,1.5681,1.6659,1.6703,1.7054,1.773,1.7081,1.6629,1.6427,0.0,0.0,0.0,0.0,0.0,0.0,0.0,0.0,0.0,0.0,0.0,0.0,0.0,0.0,0.0,0.0,0.0,0.0,0.0,0.0,0.0,0.0,0.0,0.0,0.0,0.0,0.0,0.0,0.0,0.0,0.0,0.0,0.0,0.0,0.0,0.0,0.0,0.0,0.0,1.0319,1.0291,0.0,0.0,0.0,0.0,0.0,0.0,0.0,0.0,1.5106,0.0,0.0,0.0,0.0,0.0,0.0,0.0,0.0,0.0,0.0,0.0,0.0,0.0,0.0,0.0,0.0,0.0,0.0,0.0,0.0,0.0,0.0,0.0,0.0,0.0,0.0,0.0,0.0,0.0,0.0,0.0,0.0,0.0,0.0,0.0,0.0,0.0,0.0,0.0,0.0,0.0,0.0,0.0,0.0,0.0,0.0,0.0,0.0,0.0,0.0,0.0,0.0,0.0,0.0,0.0,1.4652,1.504,1.5676,1.6522,1.6546,1.6759,1.7169,1.6772,1.636,0.0,0.0,0.0,0.0,0.0,0.0,0.0,0.0,0.0,0.0,0.0,0.0,0.0,0.0,0.0,0.0,0.0,0.0,0.0,0.0,0.0,0.0,0.0,0.0,0.0,0.0,0.0,0.0,0.0,0.0,0.0,0.0,0.0,0.0,0.0,0.0,0.0,0.0,0.0,0.0,1.0246,1.0409,1.0824,0.0,0.0,0.0,0.0,0.0,0.0,1.4973,1.5388,0.0,0.0,0.0,0.0,0.0,0.0,0.0,0.0,0.0,0.0,0.0,0.0,0.0,0.0,0.0,0.0,0.0,0.0,0.0,0.0,0.0,0.0,0.0,0.0,0.0,0.0,0.0,0.0,0.0,0.0,0.0,0.0,0.0,0.0,0.0,0.0,0.0,0.0,0.0,0.0,0.0,0.0,0.0,0.0,0.0,0.0,0.0,0.0,0.0,0.0,0.0,0.0,0.0,0.0,0.0,1.5287,1.5323,1.5668,1.632,1.6345,1.6368,1.6368,1.6357,1.6039,0.0,0.0,0.0,0.0,0.0,0.0,0.0,0.0,0.0,0.0,0.0,0.0,0.0,0.0,0.0,0.0,0.0,0.0,0.0,0.0,0.0,0.0,0.0,0.0,0.0,0.0,0.0,0.0,0.0,0.0,0.0,0.0,0.0,0.0,0.0,0.0,0.0,0.0,0.0,0.0,0.0,1.0941,1.1618,1.1872,0.0,0.0,0.0,0.0,1.5083,1.5171,0.0,0.0,0.0,0.0,0.0,0.0,0.0,0.0,0.0,0.0,0.0,0.0,0.0,0.0,0.0,0.0,0.0,0.0,0.0,0.0,0.0,0.0,0.0,0.0,0.0,0.0,0.0,0.0,0.0,0.0,0.0,0.0,0.0,0.0,0.0,0.0,0.0,0.0,0.0,0.0,0.0,0.0,0.0,0.0,0.0,0.0,0.0,0.0,0.0,0.0,0.0,0.0,0.0,0.0,0.0,0.0,1.5289,1.5357,1.5449,1.5538,1.5539,1.5539,1.5539,1.5528,1.5481,0.0,0.0,0.0,0.0,0.0,0.0,0.0,0.0,0.0,0.0,0.0,0.0,0.0,0.0,0.0,0.0,0.0,0.0,0.0,0.0,0.0,0.0,0.0,0.0,0.0,0.0,0.0,0.0,0.0,0.0,0.0,0.0,0.0,0.0,0.0,0.0,0.0,0.0,0.0,0.0,0.0,1.2438,1.2463,1.3115,1.3715,0.0,0.0,1.4996,1.5114,1.5101,0.0,0.0,0.0,0.0,0.0,0.0,0.0,0.0,0.0,0.0,0.0,0.0,0.0,0.0,0.0,0.0,0.0,0.0,0.0,0.0,0.0,0.0,0.0,0.0,0.0,0.0,0.0,0.0,0.0,0.0,0.0,0.0,0.0,0.0,0.0,0.0,0.0,0.0,0.0,0.0,0.0,0.0,0.0,0.0,0.0,0.0,0.0,0.0,0.0,0.0,0.0,0.0,0.0,0.0,0.0,1.6546,1.6111,1.6118,1.589,1.5424,1.5406,1.5406,1.5405,1.5402,1.5418,0.0,0.0,0.0,0.0,0.0,0.0,0.0,0.0,0.0,0.0,0.0,0.0,0.0,0.0,0.0,0.0,0.0,0.0,0.0,0.0,0.0,0.0,0.0,0.0,0.0,0.0,0.0,0.0,0.0,0.0,0.0,0.0,0.0,0.0,0.0,0.0,0.0,0.0,0.0,0.0,0.0,0.0,1.322,1.3605,0.0,0.0,0.0,1.5053,1.5038,0.0,0.0,0.0,0.0,0.0,0.0,0.0,0.0,0.0,0.0,0.0,0.0,0.0,0.0,0.0,0.0,0.0,0.0,0.0,0.0,0.0,0.0,0.0,0.0,0.0,0.0,0.0,0.0,0.0,0.0,0.0,0.0,0.0,0.0,0.0,0.0,0.0,0.0,0.0,0.0,0.0,0.0,0.0,0.0,0.0,0.0,0.0,0.0,0.0,0.0,0.0,0.0,0.0,0.0,0.0,0.0,0.0,1.7029,1.6816,1.6387,1.5761,1.5507,1.5409,1.541,1.541,0.0,0.0,0.0,0.0,0.0,0.0,0.0,0.0,0.0,0.0,0.0,0.0,0.0,0.0,0.0,0.0,0.0,0.0,0.0,0.0,0.0,0.0,0.0,0.0,0.0,0.0,0.0,1.0195,0.0,0.0,0.0,0.0,0.0,0.0,0.0,0.0,0.0,0.0,0.0,0.0,0.0,0.0,1.3408,1.3998,1.4072,1.4282,0.0,0.0,1.494,1.494,1.5117,1.575,0.0,0.0,0.0,0.0,0.0,0.0,0.0,0.0,0.0,0.0,0.0,0.0,0.0,0.0,0.0,0.0,0.0,0.0,0.0,0.0,0.0,0.0,0.0,0.0,0.0,0.0,0.0,0.0,0.0,0.0,0.0,0.0,0.0,0.0,0.0,0.0,0.0,0.0,0.0,0.0,0.0,0.0,0.0,0.0,0.0,0.0,0.0,0.0,0.0,0.0,0.0,0.0,0.0,0.0,0.0,1.7887,1.7102,1.6667,1.6582,1.5821,1.5412,1.5412,1.5415,1.5399,0.0,0.0,0.0,0.0,0.0,0.0,0.0,0.0,0.0,0.0,0.0,0.0,0.0,0.0,0.0,0.0,0.0,0.0,0.0,0.0,0.0,0.0,0.0,0.0,0.0,0.0,0.0,0.0,0.0,0.0,0.0,0.0,0.0,0.0,0.0,0.0,0.0,0.0,0.0,0.0,0.0,1.4821,1.4833,1.4833,1.4816,0.0,0.0,1.4813,1.4813,1.5438,1.6251,1.7258,0.0,0.0,0.0,0.0,0.0,0.0,0.0,0.0,0.0,0.0,0.0,0.0,0.0,0.0,0.0,0.0,0.0,0.0,0.0,0.0,0.0,0.0,0.0,0.0,0.0,0.0,0.0,0.0,0.0,0.0,0.0,0.0,0.0,0.0,0.0,0.0,0.0,0.0,0.0,0.0,0.0,0.0,0.0,0.0,0.0,0.0,0.0,0.0,0.0,0.0,0.0,0.0,0.0,1.9279,1.8742,1.789,1.7176,1.6642,1.5784,1.5338,1.5322,1.536,1.5343,0.0,0.0,0.0,0.0,0.0,0.0,0.0,0.0,0.0,0.0,0.0,0.0,0.0,0.0,0.0,0.0,0.0,0.0,0.0,0.0,0.0,0.0,0.0,0.0,0.0,0.0,0.0,0.0,1.1531,1.1971,1.3152,0.0,0.0,0.0,0.0,0.0,0.0,0.0,0.0,0.0,0.0,1.547,1.4874,1.4785,0.0,0.0,1.5149,1.5466,1.5485,1.6142,1.698,1.7878,1.8259,0.0,0.0,0.0,0.0,0.0,0.0,0.0,0.0,0.0,0.0,0.0,0.0,0.0,0.0,0.0,0.0,0.0,0.0,0.0,0.0,0.0,0.0,0.0,0.0,0.0,0.0,0.0,0.0,0.0,0.0,0.0,0.0,0.0,0.0,0.0,0.0,0.0,0.0,0.0,0.0,0.0,0.0,0.0,0.0,0.0,0.0,0.0,0.0,0.0,0.0,0.0,0.0,2.0161,1.9558,1.8699,1.7978,1.7366,1.6236,1.5676,1.5662,1.5404,1.5266,0.0,0.0,0.0,0.0,0.0,0.0,0.0,0.0,0.0,0.0,0.0,0.0,0.0,0.0,0.0,0.0,0.0,0.0,0.0,0.0,0.0,0.0,0.0,0.0,0.0,0.0,0.0,0.0,1.2546,1.3044,1.3892,0.0,0.0,0.0,0.0,0.0,0.0,0.0,0.0,0.0,0.0,1.5673,1.4809,1.486,1.4995,1.4999,1.5683,1.6201,1.6195,1.6892,1.7633,1.8253,0.0,0.0,0.0,0.0,0.0,0.0,0.0,0.0,0.0,0.0,0.0,0.0,0.0,0.0,0.0,0.0,0.0,0.0,0.0,0.0,0.0,0.0,0.0,0.0,0.0,0.0,0.0,0.0,0.0,0.0,1.7229,0.0,0.0,0.0,0.0,0.0,0.0,0.0,0.0,0.0,0.0,0.0,0.0,0.0,0.0,0.0,0.0,0.0,0.0,0.0,0.0,0.0,0.0,2.0376,2.0359,1.948,1.9049,1.8974,1.7363,1.649,1.6468,1.5649,1.5197,1.52,0.0,0.0,0.0,0.0,0.0,0.0,0.0,0.0,0.0,0.0,0.0,0.0,0.0,0.0,0.0,0.0,0.0,0.0,0.0,0.0,0.0,0.0,0.0,0.0,0.0,0.0,1.23,1.2923,1.3746,0.0,0.0,0.0,0.0,0.0,0.0,0.0,0.0,0.0,0.0,1.5904,1.5534,1.4748,1.5232,1.5667,1.5692,1.637,1.689,1.689,1.7596,1.8172,0.0,0.0,0.0,0.0,0.0,0.0,0.0,0.0,0.0,0.0,0.0,0.0,0.0,0.0,0.0,0.0,0.0,0.0,0.0,0.0,0.0,0.0,0.0,0.0,0.0,0.0,0.0,1.7415,1.754,0.0,0.0,0.0,0.0,0.0,0.0,0.0,0.0,0.0,0.0,0.0,2.2243,2.2481,0.0,0.0,0.0,0.0,0.0,0.0,0.0,0.0,0.0,0.0,0.0,0.0,2.0328,2.0224,1.9458,1.9016,1.8953,1.7882,1.7311,1.7292,1.6445,1.5696,1.5084,0.0,0.0,0.0,0.0,0.0,0.0,0.0,0.0,0.0,0.0,0.0,0.0,0.0,0.0,0.0,0.0,0.0,0.0,0.0,0.0,0.0,0.0,0.0,0.0,0.0,1.3996,0.0,0.0,0.0,0.0,0.0,0.0,0.0,0.0,0.0,0.0,0.0,1.8758,1.7603,1.7338,1.6963,1.6179,1.6221,1.6366,0.0,0.0,0.0,0.0,0.0,0.0,0.0,0.0,0.0,0.0,0.0,0.0,0.0,0.0,1.9394,1.9464,1.9435,1.9552,2.0018,0.0,0.0,0.0,0.0,0.0,0.0,0.0,0.0,0.0,0.0,0.0,0.0,0.0,0.0,1.8654,0.0,1.9541,0.0,0.0,0.0,0.0,0.0,0.0,0.0,0.0,2.3061,2.3043,2.3033,2.3285,2.3406,0.0,2.4206,2.4319,0.0,0.0,0.0,0.0,0.0,0.0,0.0,0.0,2.0631,2.0561,1.9763,1.9328,1.9282,1.8509,1.8072,1.8053,1.719,1.6278,1.5373,1.5249,1.508,0.0,0.0,0.0,0.0,0.0,0.0,0.0,0.0,0.0,0.0,0.0,0.0,0.0,0.0,0.0,0.0,0.0,0.0,0.0,0.0,0.0,0.0,0.0,1.5013,0.0,0.0,0.0,0.0,0.0,0.0,0.0,0.0,0.0,1.9532,1.9469,1.9081,1.8181,1.796,1.7604,1.6798,0.0,0.0,0.0,0.0,0.0,0.0,0.0,1.9046,1.9019,1.9025,1.9041,1.9023,1.9058,1.9111,1.9119,0.0,0.0,1.9698,1.9682,1.9847,2.059,2.0717,2.0834,2.1218,2.1277,2.1275,0.0,0.0,0.0,0.0,0.0,0.0,0.0,0.0,2.039,2.0842,0.0,2.1604,0.0,0.0,0.0,0.0,0.0,2.3163,0.0,0.0,2.3148,2.3045,2.307,2.3857,2.4181,2.4184,2.4897,2.5255,2.5274,2.5339,0.0,0.0,0.0,0.0,0.0,0.0,2.132,2.1257,2.0459,2.0054,2.0041,1.9273,1.883,1.8768,1.7831,1.6932,1.6073,1.5915,1.5453,1.4672,1.4632,0.0,0.0,0.0,0.0,0.0,0.0,0.0,0.0,0.0,0.0,0.0,0.0,0.0,0.0,0.0,0.0,0.0,0.0,0.0,0.0,1.5303,0.0,0.0,0.0,0.0,0.0,0.0,0.0,0.0,0.0,0.0,1.9259,1.9217,1.8864,1.7958,0.0,0.0,0.0,0.0,1.763,1.7612,1.8298,1.877,1.8788,1.8833,1.887,1.8887,0.0,0.0,1.8878,1.8887,1.8887,1.8966,1.9552,2.0145,2.0264,2.0318,2.0545,2.1169,2.1301,2.1279,2.1202,2.127,2.1185,2.2224,0.0,0.0,0.0,0.0,2.221,2.2237,2.2223,2.2232,2.2376,2.2595,2.2596,0.0,0.0,0.0,0.0,0.0,0.0,2.4849,2.4803,2.4754,2.4673,2.4617,2.4817,2.4874,2.4842,2.4992,2.5097,2.5086,2.5109,2.5045,2.4903,0.0,0.0,0.0,0.0,2.1787,2.1177,2.09,2.0492,1.9881,1.9674,1.9287,1.8679,1.829,1.7669,1.6762,1.6582,1.6122,1.5285,1.5156,0.0,0.0,0.0,0.0,0.0,0.0,0.0,0.0,0.0,0.0,0.0,0.0,0.0,0.0,0.0,0.0,0.0,0.0,0.0,1.5993,1.5799,1.6028,0.0,0.0,0.0,0.0,0.0,0.0,0.0,0.0,0.0,1.8816,1.8922,1.8884,0.0,0.0,1.827,1.8029,1.8142,1.8255,1.8237,1.8431,0.0,1.859,1.8592,1.8582,1.8544,1.8506,1.8462,1.8479,1.8526,1.8565,1.863,1.9277,1.9995,2.0606,2.0805,2.11,2.1646,2.1757,2.1883,2.2259,2.2416,2.2405,2.3975,2.3938,2.33,2.3023,2.3005,2.3007,2.3008,2.3008,2.3007,2.3201,2.3514,2.3514,2.3727,2.4096,2.4105,0.0,0.0,0.0,2.5479,2.5429,2.5343,2.5288,2.5219,2.5113,2.5062,2.5032,2.4954,2.4914,2.4933,2.4898,2.4907,2.4955,0.0,0.0,2.4182,2.3243,2.2496,2.1966,2.162,2.1069,2.0276,1.9963,1.9567,1.9074,1.8908,1.8383,1.7487,1.7311,1.6794,1.5918,1.5724,1.5597,0.0,0.0,0.0,0.0,0.0,0.0,0.0,0.0,0.0,0.0,0.0,2.0112,2.0035,0.0,0.0,0.0,1.7353,1.656,1.6124,1.6521,0.0,0.0,0.0,0.0,0.0,0.0,0.0,1.9225,1.8864,1.8601,1.8499,1.8558,1.8605,1.8593,1.8536,1.8467,1.8443,0.0,1.8373,1.84,1.8373,1.8383,1.8383,1.8383,1.8363,1.8322,1.8301,1.8263,1.8263,1.8301,1.8325,1.851,1.9311,2.0225,2.0743,2.1321,2.1867,2.2276,2.2316,2.2429,2.2768,2.2842,2.2838,2.5589,2.546,2.392,2.3263,2.3202,2.3215,2.3206,2.3217,2.3212,2.3641,2.4385,2.4402,2.4847,2.5582,2.5593,0.0,2.5483,2.5425,2.5363,2.5298,2.5219,2.5145,2.5082,2.4947,2.4861,2.487,2.4802,2.4757,2.4757,2.47,2.4642,2.4583,2.4693,2.4768,2.4738,2.3846,2.3353,2.3271,2.2492,2.1722,2.0989,2.0253,1.9881,1.9885,1.969,1.9202,1.8346,1.8109,1.7531,1.6578,1.6366,1.6563,1.7168,0.0,0.0,0.0,0.0,0.0,0.0,0.0,0.0,0.0,0.0,0.0,0.0,0.0,0.0,0.0,1.8448,0.0,1.6312,1.7534,0.0,0.0,0.0,2.0969,2.0997,2.0308,1.9832,1.978,0.0,0.0,1.8384,1.827,1.8208,1.8259,1.827,1.8256,1.8183,1.82,1.8172,1.8172,1.819,1.819,1.82,1.8183,1.8172,1.8162,1.8179,1.8168,1.8168,1.8179,1.8208,1.8246,1.9521,2.0576,2.0633,2.1751,2.2803,2.2803,2.282,2.2799,2.2703,2.2619,2.2623,2.6356,2.6249,2.5275,2.4872,2.4902,2.4841,2.4871,2.4915,2.4894,2.5033,2.5207,2.5227,2.5305,2.5455,2.5441,2.5418,2.535,2.5337,2.5248,2.5153,2.5069,2.4993,2.4858,2.4731,2.4681,2.466,2.4553,2.4493,2.4493,2.4476,2.4451,2.4436,2.4462,2.4513,2.4553,2.4285,2.3835,2.3223,2.2979,2.2461,2.1686,2.1493,2.1356,2.136,2.0709,2.0215,1.9924,1.9223,1.8368,1.7454,1.717,1.6834,1.6404,1.6983,0.0,0.0,0.0,0.0,0.0,0.0,0.0,0.0,0.0,2.1909,2.1825,0.0,2.1188,0.0,2.0049,1.9476,1.9344,1.9625,0.0,0.0,2.0514,2.078,2.0853,2.0595,2.0406,2.0383,1.9589,1.9005,1.8994,1.8435,1.8042,1.8003,1.8085,1.8134,1.8048,1.8055,1.8055,1.8055,1.8037,1.8055,1.8055,1.8005,1.7977,1.7966,1.7922,1.7906,1.7906,1.7933,1.7977,1.8078,1.9241,2.0185,2.0347,2.1546,2.2466,2.2542,2.2528,2.2487,2.2422,2.2436,2.2463,2.6902,2.6507,2.6051,2.5649,2.5339,2.5359,2.5375,2.541,2.5393,2.5417,2.541,2.5427,2.5388,2.5308,2.5308,2.5259,2.5179,2.5157,2.5081,2.4973,2.4938,2.4853,2.4715,2.4613,2.4539,2.4525,2.44,2.4347,2.4347,2.4347,2.4357,2.4321,2.4294,2.4339,2.4375,2.4321,2.41,2.3656,2.3252,2.2846,2.2402,2.207,2.1885,2.1847,2.1381,2.1103,2.1036,2.0505,1.9911,1.9309,1.9051,1.87,1.8193,1.858,1.9064,0.0,0.0,0.0,0.0,0.0,0.0,0.0,0.0,0.0,0.0,0.0,2.1601,2.094,2.0506,2.0281,2.0364,2.0632,2.0862,2.1001,2.1356,2.1605,2.16,2.125,2.0977,2.0958,2.0161,1.9599,1.9599,1.9199,1.888,1.8839,1.8863,1.8677,1.8036,1.7917,1.7917,1.79,1.79,1.7917,1.79,1.7878,1.7867,1.7856,1.7822,1.7789,1.78,1.7833,1.7969,1.8382,1.9369,2.0325,2.0691,2.1621,2.2429,2.2405,2.238,2.2338,2.2327,2.2338,2.2366,2.7471,2.6771,2.6498,2.5951,2.524,2.5276,2.5264,2.5278,2.5283,2.5283,2.5278,2.5271,2.5215,2.5189,2.5164,2.5093,2.4987,2.4993,2.4921,2.4779,2.4772,2.4695,2.4572,2.4517,2.4438,2.4358,2.4321,2.4294,2.4294,2.4294,2.4247,2.4192,2.421,2.4191,2.4199,2.4191,2.4192,2.4192,2.3511,2.3152,2.3134,2.2534,2.2174,2.2112,2.2011,2.1921,2.1862,2.1689,2.1506,2.1257,2.1108,2.0958,2.0769,2.077,2.0855,0.0,2.1921,0.0,0.0,0.0,0.0,0.0,0.0,0.0,0.0,2.2854,2.1963,2.0935,2.0651,2.0511,2.0565,2.1169,2.1563,2.1636,2.2254,2.2646,2.2561,2.2,2.1597,2.1532,2.0769,2.0238,2.0213,2.0111,1.9972,1.9875,1.9807,1.9387,1.8362,1.8137,1.8149,1.7963,1.7828,1.776,1.776,1.776,1.776,1.7766,1.7766,1.7777,1.7777,1.7766,1.8025,1.8799,1.9568,2.0374,2.1173,2.1881,2.2332,2.2349,2.2293,2.2265,2.2296,2.231,2.2324,2.8517,2.8244,2.6885,2.618,2.5944,2.5323,2.5075,2.513,2.5149,2.5136,2.513,2.5081,2.5044,2.5032,2.4968,2.4929,2.4919,2.4858,2.4813,2.4723,2.4602,2.4547,2.4498,2.4339,2.4238,2.4247,2.4237,2.4218,2.4218,2.4218,2.4218,2.4209,2.4209,2.4199,2.4199,0.0,0.0,0.0,2.4062,2.3961,2.3961,2.3841,2.375,2.3731,2.3116,0.0,2.2639,2.1972,2.1543,2.1439,2.1275,0.0,0.0,0.0,0.0,0.0,0.0,0.0,0.0,0.0,0.0,0.0,2.34,2.3412,2.3359,2.2961,2.2603,2.2319,2.215,2.2057,2.2088,2.2194,2.2293,2.231,2.2443,2.2542,2.2528,2.2337,2.2228,2.2197,2.1481,2.094,2.0823,2.0312,1.9937,1.9935,1.9826,1.9709,1.9474,1.9387,1.9182,1.8633,1.8054,1.7669,1.7652,1.7635,1.7647,1.7635,1.7635,1.7647,1.7647,1.7647,1.7903,1.867,1.937,2.0122,2.0891,2.1583,2.2087,2.2087,2.2056,2.2118,2.2282,2.2296,2.2313,2.9091,0.0,2.7786,2.6929,0.0,2.5726,2.5298,2.4959,2.4974,2.5006,2.5012,2.4961,2.4933,2.4903,2.4863,2.4827,2.4795,2.4764,2.4684,2.4607,2.4541,2.4445,2.4339,2.4257,2.421,2.42,2.4209,2.4199,2.4199,2.4199,2.418,2.4151,2.4151,2.4141,2.4094,2.4103,2.4123,2.4199,2.4199,2.418,2.4133,2.4151,2.4141,2.4094,2.3709,0.0,0.0,0.0,0.0,0.0,0.0,0.0,0.0,2.2354,0.0,2.2814,2.291,2.3059,2.3324,2.3424,2.3366,2.3132,2.302,2.2995,2.3057,2.2842,2.2672,2.2592,2.2515,2.246,2.2446,2.2419,2.2391,2.2408,2.2391,2.2391,2.2391,2.238,2.2335,2.2318,2.1975,2.1666,2.1591,2.1233,2.0968,2.0896,2.0827,2.0755,2.0719,2.021,1.9549,1.8826,1.8425,1.8019,1.7684,1.7612,1.7601,1.7612,1.7612,1.7612,1.7612,1.7612,1.7935,1.8972,1.9558,2.0123,2.1211,2.1747,2.1998,2.1998,2.1998,2.2027,2.2149,2.2147,2.2147,2.945,2.8793,2.8634,2.777,2.6467,2.6185,2.5566,2.4757,0.0,0.0,0.0,2.4875,2.4832,2.4783,2.4768,2.4729,2.4666,2.4658,2.4593,2.4482,2.4465,2.4348,2.4201,2.4192,2.4209,2.4199,2.4199,2.4208,2.418,2.418,2.4161,2.4094,2.4084,2.4046,2.4006,2.3988,2.4054,2.4151,2.4151,2.4141,2.4084,2.4084,2.4046,2.4006,2.3996,2.3968,2.3976,2.3966,2.3915,2.3792,2.3764,2.3736,2.3607,2.3585,2.3522,2.3424,2.3448,2.3372,2.3193,2.3217,2.3119,2.2868,2.2672,2.2636,2.2747,2.2632,2.2542,2.2487,2.2436,2.2377,2.2394,2.2321,2.2313,2.2313,2.2313,2.2296,2.2296,2.2282,2.2282,2.2282,2.2209,2.2154,2.2106,2.1965,2.1955,2.1909,2.1709,2.1736,2.1587,2.0669,1.9774,1.9258,1.8963,1.8572,1.7947,1.7752,1.7693,1.7552,1.7547,1.7559,1.7559,1.7547,1.8126,1.9401,1.9727,2.0314,2.1528,2.188,2.1943,2.1943,2.1911,2.1926,2.1926,2.1943,2.194,2.9641,2.9472,2.8751,2.8247,2.7884,2.6524,2.5439,2.4631,2.4726,2.4738,2.473,2.4718,2.4732,2.4725,2.4666,2.4607,2.4539,2.4542,2.4482,2.4412,2.4294,2.422,2.4201,2.42,2.4199,2.4199,2.4218,2.417,2.4113,2.4132,2.4084,2.4034,2.4034,2.4024,2.3988,2.3988,2.3986,2.3937,2.3988,2.4016,2.4016,2.4006,2.4016,2.3996,2.3955,2.3886,2.3827,2.3821,2.3786,2.3721,2.3703,2.3696,2.3596,2.3585,2.3539,2.3424,2.3348,2.3265,2.3132,2.3003,2.285,2.2659,2.2515,2.2487,2.2623,2.2515,2.2436,2.2405,2.2352,2.2324,2.2324,2.231,2.2313,2.2313,2.2313,2.2313,2.2313,2.224,2.2211,2.2214,2.2089,2.1998,2.1974,2.1869,2.1812,2.1769,2.1664,2.1572,2.138,2.0868,2.0404,2.0188,1.9695,1.9038,1.8394,1.8201,1.7967,1.7424,1.7354,1.7338,1.7338,1.7404,1.793,1.92,1.9479,2.0087,2.1368,2.1649,2.1664,2.1664,2.1679,2.1648,2.1663,2.1679,2.1738,2.9608,2.9542,2.9158,2.8708,2.8157,2.6898,2.6154,2.5801,2.5782,2.534,2.4655,2.4596,2.4582,2.4584,2.4534,2.4464,2.442,2.4847,2.5033,2.5032,2.5398,2.5543,2.5513,2.5472,2.5452,2.5452,2.5411,2.538,2.5304,2.4902,2.4663,2.4564,2.413,2.3881,2.3831,2.385,2.3821,2.3789,2.3886,2.3925,2.3891,2.3891,2.3881,2.3831,2.3768,2.3714,2.3682,2.3656,2.3611,2.3589,2.3589,2.3573,2.3505,2.3471,2.3372,2.3253,2.318,2.307,2.2889,2.2725,2.2596,2.2501,2.2408,2.2363,2.2432,2.2394,2.2352,2.2335,2.231,2.2313,2.2313,2.2313,2.2313,2.2313,2.2313,2.2282,2.224,2.2228,2.2168,2.2092,2.1972,2.1884,2.1838,2.1753,2.1664,2.1556,2.145,2.1357,2.1262,2.1004,2.0678,2.0379,2.0036,1.9565,1.8868,1.841,1.8101,1.7759,1.7382,1.717,1.717,1.7402,1.8147,1.9058,1.9563,2.0231,2.1288,2.1434,2.1434,2.145,2.1434,2.145,2.1481,2.1526,2.1664,2.9443,2.9443,2.9433,2.8937,2.8096,2.7385,2.6975,2.678,2.6712,2.6088,2.5148,2.501,2.5002,2.4985,2.494,2.4894,2.4949,2.5493,2.575,2.5782,2.6379,2.6612,2.657,2.6508,2.6469,2.6458,2.6421,2.6388,2.6285,2.5739,2.5368,2.523,2.4436,2.3992,2.3936,2.3775,2.3656,2.3627,2.3728,2.3779,2.3761,2.3739,2.3718,2.3645,2.3578,2.3569,2.3528,2.3471,2.3418,2.3413,2.3407,2.3389,2.3313,2.3253,2.3268,2.3315,2.3244,2.3172,2.3113,2.2999,2.2816,2.2618,2.2575,2.2465,2.2313,2.2313,2.2313,2.2313,2.2313,2.2313,2.2313,2.2313,2.2296,2.2282,2.2268,2.224,2.2183,2.2137,2.2077,2.1972,2.184,2.1768,2.1708,2.1619,2.1481,2.134,2.1215,2.1103,2.1038,2.1022,2.0783,2.0462,2.0346,2.0102,1.941,1.8941,1.8554,1.8331,1.7845,1.7619,1.7619,1.7977,1.8522,1.9274,1.9793,2.0375,2.1053,2.1262,2.1262,2.1262,2.1262,2.1278,2.1325,2.1388,2.1559,2.9323,2.9304,2.9272,2.8767,2.8062,2.793,2.7458,2.6821,2.671,2.6655,2.6509,2.649,2.649,2.6509,2.6443,2.6395,2.6401,2.6557,2.6523,2.6431,2.6464,2.6487,2.6494,2.6446,2.641,2.6465,2.649,2.6511,2.6436,2.6202,2.6037,2.5829,2.5104,2.4692,2.4628,2.3983,2.3569,2.3436,2.3441,2.3505,2.3607,2.3544,2.3528,2.351,2.3459,2.3401,2.3307,2.3247,2.3205,2.3156,2.3161,2.3119,2.3057,2.3033,2.3339,2.3942,2.3825,2.3907,2.4339,2.4397,2.4043,2.3391,2.3308,2.3021,2.2415,2.233,2.2313,2.2313,2.2313,2.2313,2.2313,2.2296,2.2268,2.2211,2.2211,2.2152,2.203,2.1955,2.1899,2.1842,2.1738,2.1664,2.1479,2.1388,2.1262,2.1135,2.099,2.0893,2.0827,2.0794,2.0711,2.0568,2.0732,2.0623,2.0063,1.9886,1.9392,1.8928,1.8753,1.8546,1.85,1.8658,1.9055,1.9505,1.9967,2.0367,2.0815,2.1103,2.1087,2.1087,2.1087,2.1119,2.1135,2.1151,2.1278,2.995,2.9902,2.9403,2.8979,2.8614,2.8498,2.8281,2.794,2.7951,2.7951,2.794,2.794,2.7493,2.6714,2.6626,2.6576,2.6628,2.7035,2.7193,2.7214,2.7641,2.7855,2.7813,2.7796,2.7761,2.7683,2.7659,2.761,2.7476,2.6987,2.6446,2.5893,2.5492,2.5317,2.5219,2.4484,2.4027,2.3961,2.3446,2.3193,2.3241,2.3289,2.3318,2.3247,2.3205,2.3156,2.3119,2.307,2.3003,2.303,2.3419,2.3637,2.3541,2.3935,2.4278,2.4491,2.4347,2.4366,2.4584,2.4554,2.442,2.4051,2.4051,2.3729,2.3038,2.2953,2.2784,2.2381,2.2313,2.2313,2.2296,2.2254,2.2225,2.22,2.2137,2.2032,2.1884,2.1869,2.1796,2.1709,2.1557,2.145,2.1308,2.1135,2.099,2.0875,2.0745,2.0663,2.0628,2.0595,2.0561,2.0543,2.0661,2.0617,2.0319,1.9925,1.961,1.9295,1.8902,1.8681,1.8759,1.9043,1.9374,1.9688,2.002,2.0335,2.0665,2.0744,2.0744,2.0776,2.0826,2.0859,2.0859,2.0908,2.1022,3.0642,3.052,2.998,2.9694,2.9606,2.9509,2.9454,2.9454,2.9454,2.9454,2.9435,2.9235,2.8565,2.7633,2.7277,2.7134,2.7207,2.7691,2.7911,2.793,2.8494,2.8724,2.8687,2.865,2.86,2.8536,2.8448,2.8388,2.8259,2.7723,2.7014,2.6405,2.6096,2.5941,2.5773,2.5046,2.4633,2.4572,2.3924,2.3598,2.3615,2.3649,2.3478,2.3098,2.3008,2.297,2.2919,2.3059,2.3124,2.3119,2.3846,2.4233,2.4146,2.4637,2.4957,2.5058,2.5173,2.5197,2.5164,2.5133,2.4998,2.4829,2.4812,2.4491,2.3833,2.3513,2.3144,2.2673,2.2372,2.2206,2.2268,2.2242,2.22,2.2123,2.2017,2.1899,2.1796,2.1768,2.1678,2.1527,2.1403,2.1246,2.1135,2.0909,2.0695,2.0661,2.0543,2.0443,2.0426,2.0392,2.0357,2.0342,2.0357,2.0409,2.0446,2.0185,1.981,1.97,1.9404,1.9202,1.9045,1.9529,1.9762,2.0095,2.0357,2.0481,2.0578,2.0544,2.051,2.0543,2.0577,2.0644,2.0661,2.0711,2.0745,3.1221,3.1151,3.1102,3.1011,3.1089,3.1021,3.1039,3.0904,3.099,3.1039,3.0862,3.0237,2.9866,2.9615,2.8961,2.8688,2.8658,2.8628,2.8585,2.8504,2.8576,2.8536,2.8437,2.8424,2.8442,2.8488,2.8434,2.8286,2.8144,2.8059,2.7957,2.7642,2.6975,2.6588,2.6384,2.5659,2.522,2.5147,2.5014,2.4986,2.493,2.489,2.4209,2.3141,2.2958,2.2933,2.2863,2.3419,2.3712,2.3585,2.4306,2.4686,2.4688,2.4722,2.5084,2.5635,2.6349,2.669,2.6555,2.6488,2.6234,2.5677,2.5542,2.5236,2.4477,2.3875,2.3424,2.3222,2.254,2.2157,2.2168,2.2168,2.2094,2.1943,2.1855,2.1783,2.1693,2.1619,2.1511,2.1372,2.1277,2.1119,2.086,2.0645,2.0527,2.0477,2.039,2.0304,2.0287,2.0148,2.0061,2.0076,2.0078,2.0131,2.0409,2.0286,2.0303,2.0225,2.002,2.0195,2.0353,2.0448,2.0416,2.0383,2.0379,2.041,2.0477,2.0494,2.046,2.0443,2.0426,2.046,2.0441,2.0477,2.0512,3.1659,3.1137,3.1084,3.1048,3.1007,3.0966,3.0952,3.0952,3.0934,3.0934,3.0898,3.0627,3.0505,3.0477,3.0216,2.9538,2.8654,2.8562,2.8528,2.8471,2.8471,2.8676,2.9098,2.9084,2.9029,2.8927,2.8881,2.8529,2.7957,2.7847,2.7792,2.7657,2.737,2.7168,2.7001,2.6312,2.5857,2.5717,2.5293,2.4944,2.4905,2.4827,2.4536,2.4099,2.4047,2.4033,2.3993,2.425,2.434,2.4296,2.5047,2.5423,2.5395,2.5756,2.608,2.6335,2.6623,2.6742,2.6708,2.6708,2.659,2.6303,2.6236,2.5866,2.5177,2.4725,2.4223,2.3368,2.2951,2.2553,2.2045,2.1991,2.1959,2.184,2.1783,2.1648,2.1511,2.1419,2.1357,2.1199,2.1071,2.086,2.0611,2.0441,2.0339,2.0272,2.0168,2.0113,2.0096,2.0041,1.9973,1.9988,2.0005,2.0058,2.0146,2.0183,2.0168,2.0168,2.012,2.0074,2.017,2.0202,2.0154,2.0156,2.022,2.022,2.0252,2.0252,2.0237,2.022,2.0235,2.0252,2.0183,2.0254,2.0306,3.2281,3.1804,3.1711,3.1625,3.1585,3.1523,3.1512,3.1479,3.1464,3.1479,3.1446,3.1213,3.1073,3.1004,3.079,3.0145,2.9151,2.9115,2.9098,2.9038,2.9056,2.9304,2.9694,2.9703,2.963,2.949,2.9463,2.9072,2.8458,2.8132,2.7951,2.7912,2.7589,2.7386,2.7269,2.6742,2.6423,2.6275,2.5851,2.555,2.5456,2.5425,2.5409,2.5409,2.5377,2.5106,2.4728,2.4899,2.5002,2.5106,2.5751,2.6111,2.608,2.6454,2.6708,2.6708,2.6691,2.6674,2.6674,2.6657,2.664,2.6589,2.6555,2.6269,2.5732,2.543,2.4762,2.3945,2.3197,2.2702,2.2198,2.1917,2.1783,2.1723,2.1632,2.1511,2.1324,2.1278,2.1167,2.1006,2.0826,2.0594,2.039,2.0304,2.02,2.008,1.999,1.9937,1.9919,1.9919,1.9902,1.9902,1.9902,1.9884,1.9937,1.9937,2.0008,2.0041,2.0043,1.999,1.9955,1.9973,1.9973,1.9973,1.9988,1.9988,1.9988,1.9973,1.9973,1.9973,2.0025,2.0096,2.0061,2.0061,2.0131,3.3119,3.3104,3.3086,3.3075,3.2997,3.2981,3.2965,3.2918,3.2846,3.2759,3.2652,3.2065,3.1662,3.1491,3.0978,3.0437,3.0371,3.0469,3.0377,3.0196,3.0216,3.0224,3.0291,3.0178,3.0115,3.0084,2.9938,2.9823,2.9567,2.894,2.8563,2.831,2.766,2.7284,2.7085,2.6987,2.6956,2.6905,2.6786,2.6854,2.6975,2.6738,2.6672,2.6723,2.6622,2.5979,2.4788,2.5365,2.5689,2.5709,2.6268,2.6674,2.6623,2.6691,2.6708,2.6708,2.6708,2.6674,2.6623,2.6606,2.6572,2.6502,2.6502,2.6434,2.6216,2.568,2.5162,2.4729,2.3703,2.2766,2.2506,2.195,2.1588,2.1589,2.145,2.1324,2.1262,2.1167,2.1006,2.081,2.0577,2.0388,2.0287,2.0168,2.0063,1.999,1.9869,1.9797,1.9797,1.978,1.9726,1.9726,1.9777,1.9795,1.9759,1.9741,1.9848,1.9935,1.9937,1.9937,1.9919,1.9902,1.9902,1.9902,1.9902,1.9902,1.9902,1.9902,1.9902,1.9919,1.9937,1.9937,1.9937,1.9955,1.9973,3.409,3.4474,3.4475,3.4423,3.4337,3.432,3.4303,3.4214,3.3771,3.354,3.3364,3.2654,3.2284,3.2201,3.1921,3.1733,3.1634,3.1648,3.117,3.037,3.0229,3.0448,3.0722,3.0725,3.0693,3.0555,3.0087,2.976,2.9608,2.9332,2.892,2.8287,2.7979,2.7552,2.7074,2.7007,2.6992,2.6925,2.6942,2.6892,2.6792,2.6775,2.6758,2.6758,2.6708,2.6454,2.6098,2.6267,2.6369,2.6336,2.6573,2.6708,2.6708,2.6708,2.6708,2.6708,2.6657,2.6623,2.6589,2.6571,2.6468,2.6365,2.6328,2.6257,2.617,2.5883,2.5416,2.4953,2.3932,2.3145,2.2492,2.1762,2.1405,2.1388,2.1324,2.1183,2.099,2.0811,2.0645,2.0543,2.0407,2.0287,2.0168,2.0013,1.9904,1.9884,1.978,1.9726,1.9726,1.9726,1.9723,1.9723,1.9723,1.9723,1.9723,1.9723,1.9777,1.983,1.9848,1.9866,1.9848,1.9848,1.983,1.9815,1.9815,1.9815,1.9797,1.9797,1.983,1.9812,1.9812,1.9812,1.9797,1.9815,1.9866,3.464,3.4978,3.4942,3.4853,3.4763,3.4745,3.4744,3.4655,3.4233,3.4022,3.3899,3.3512,3.3055,3.2827,3.2757,3.2512,3.2196,3.2161,3.1655,3.0884,3.0812,3.1077,3.1376,3.1324,3.1237,3.1096,3.0681,3.0386,3.0227,2.9952,2.9522,2.9023,2.8629,2.8118,2.7436,2.73,2.7182,2.6893,2.6826,2.6775,2.6725,2.6708,2.6708,2.6708,2.6708,2.6708,2.6708,2.6708,2.6708,2.6708,2.6708,2.6708,2.6708,2.6674,2.6674,2.664,2.6589,2.6537,2.6486,2.6415,2.6345,2.6206,2.6133,2.6043,2.5919,2.5846,2.5546,2.5047,2.4343,2.356,2.2779,2.197,2.1456,2.1103,2.1103,2.099,2.0728,2.056,2.0458,2.0388,2.027,2.0166,2.001,1.9904,1.9797,1.9762,1.9744,1.9723,1.9723,1.9723,1.9723,1.9723,1.9723,1.9723,1.9723,1.9723,1.9723,1.9741,1.9741,1.9759,1.9759,1.9759,1.9759,1.9759,1.9759,1.9777,1.9744,1.9744,1.9759,1.9723,1.9723,1.9741,1.9744,1.9744,1.9762,3.4868,3.4884,3.4792,3.4804,3.4765,3.4782,3.4814,3.4613,3.4492,3.4493,3.4476,3.4284,3.39,3.3359,3.3256,3.289,3.2246,3.2158,3.2,3.1791,3.1775,3.1863,3.1862,3.1718,3.1589,3.1514,3.142,3.138,3.121,3.0714,3.0421,3.013,2.9444,2.8779,2.8167,2.7927,2.7554,2.6979,2.6843,2.6826,2.6725,2.6708,2.6708,2.6708,2.6708,2.6708,2.6708,2.6708,2.6708,2.6708,2.6708,2.6708,2.6691,2.6623,2.6623,2.6589,2.652,2.6434,2.6329,2.624,2.6133,2.5992,2.5917,2.5844,2.5701,2.5645,2.557,2.5255,2.4654,2.3991,2.3245,2.2391,2.1621,2.0936,2.0794,2.0695,2.0527,2.0424,2.0339,2.0285,2.0166,2.0028,1.9866,1.9797,1.9762,1.9744,1.9708,1.9708,1.9723,1.9723,1.9723,1.9723,1.9723,1.9723,1.9723,1.9723,1.9723,1.9723,1.9723,1.9723,1.9723,1.9723,1.9723,1.9723,1.9723,1.9723,1.9723,1.9723,1.9723,1.9723,1.9723,1.9723,1.9708,1.9708,1.9726,3.5712,3.6175,3.6173,3.6153,3.6133,3.6095,3.6095,3.5986,3.5412,3.5183,3.5116,3.4629,3.4276,3.396,3.3811,3.3373,3.2764,3.2532,3.2115,3.1665,3.1649,3.1651,3.1668,3.1595,3.1574,3.1519,3.1498,3.1426,3.1351,3.113,3.0751,3.0183,3.0012,2.9468,2.8825,2.8688,2.8264,2.7621,2.7503,2.7232,2.6776,2.6742,2.6708,2.6708,2.6708,2.6708,2.6708,2.6708,2.6708,2.6708,2.6708,2.6674,2.6623,2.6589,2.6571,2.6486,2.6399,2.6312,2.6222,2.6099,2.5956,2.5793,2.5715,2.5619,2.5492,2.5432,2.5336,2.5093,2.4503,2.3951,2.3493,2.2472,2.144,2.0665,2.054,2.0475,2.0373,2.0252,2.015,2.0078,1.9957,1.9869,1.9815,1.9762,1.9726,1.9708,1.9723,1.9723,1.9723,1.9723,1.9723,1.9723,1.9723,1.9723,1.9723,1.9723,1.9723,1.9723,1.9723,1.9723,1.9723,1.9723,1.9723,1.9723,1.9723,1.9723,1.9723,1.9723,1.9723,1.9723,1.9723,1.9723,1.9723,1.9708,1.9708,3.6189,3.6523,3.6499,3.6457,3.6398,3.6416,3.6416,3.6329,3.5932,3.5707,3.5604,3.5272,3.4835,3.4502,3.4407,3.3914,3.3237,3.3109,3.2849,3.2471,3.2144,3.182,3.1564,3.1443,3.1423,3.1423,3.1385,3.1327,3.1271,3.1254,3.0978,3.0685,3.0565,3.0176,2.9517,2.9431,2.9076,2.845,2.8298,2.7943,2.7232,2.713,2.6894,2.6759,2.664,2.6623,2.6623,2.6623,2.6623,2.664,2.664,2.6623,2.6555,2.6486,2.6451,2.638,2.6258,2.6134,2.6078,2.5917,2.5789,2.5659,2.5543,2.5394,2.5278,2.5182,2.5103,2.4847,2.4422,2.408,2.3537,2.2362,2.135,2.0813,2.0419,2.025,2.0218,2.0131,2.001,1.9937,1.9866,1.9797,1.9762,1.9726,1.9708,1.9723,1.9723,1.9723,1.9723,1.9723,1.9723,1.9723,1.9723,1.9723,1.9723,1.9723,1.9723,1.9723,1.9723,1.9723,1.9723,1.9723,1.9723,1.9723,1.9723,1.9723,1.9723,1.9723,1.9723,1.9723,1.9723,1.9723,1.9723,1.9723,1.9723,3.6398,3.6259,3.6208,3.6122,3.6019,3.6014,3.6058,3.6019,3.5989,3.5989,3.5955,3.5985,3.5527,3.5023,3.501,3.4575,3.382,3.3779,3.3659,3.3332,3.2863,3.2332,3.1915,3.1448,3.131,3.131,3.1249,3.121,3.121,3.121,3.119,3.1072,3.1106,3.0835,3.0309,3.019,2.9785,2.921,2.9021,2.8614,2.7989,2.7767,2.748,2.6874,2.6588,2.652,2.652,2.652,2.6537,2.6538,2.6572,2.6554,2.6485,2.633,2.6259,2.6169,2.6061,2.5954,2.586,2.5694,2.5543,2.5486,2.5352,2.5162,2.5005,2.4946,2.4866,2.4666,2.4569,2.416,2.3483,2.2269,2.1603,2.1201,2.0591,2.0193,2.0137,2.0071,1.9937,1.9812,1.9797,1.9762,1.9726,1.9723,1.9723,1.9723,1.9723,1.9723,1.9723,1.9723,1.9723,1.9723,1.9723,1.9723,1.9723,1.9723,1.9723,1.9723,1.9723,1.9723,1.9723,1.9723,1.9723,1.9723,1.9723,1.9723,1.9723,1.9723,1.9723,1.9723,1.9723,1.9723,1.9723,1.9723,1.9723,3.6101,3.6062,3.6041,3.6019,3.6014,3.6014,3.5997,3.5997,3.5997,3.5975,3.6014,3.6014,3.5895,3.5702,3.5547,3.5197,3.4534,3.4347,3.4067,3.3452,3.333,3.316,3.2723,3.1924,3.1314,3.1314,3.1244,3.1224,3.1258,3.136,3.1207,3.1241,3.1272,3.1123,3.0934,3.0738,3.0446,2.9806,2.9614,2.9187,2.8582,2.8394,2.8024,2.7271,2.6769,2.6501,2.6485,2.6485,2.6451,2.6416,2.6434,2.645,2.6329,2.6258,2.6151,2.6026,2.5864,2.5735,2.5656,2.5524,2.5336,2.5178,2.5084,2.4966,2.471,2.4706,2.4645,2.4523,2.4426,2.4025,2.334,2.2888,2.233,2.1785,2.1133,2.0635,2.0578,2.0168,1.9827,1.9744,1.9726,1.9726,1.9723,1.9723,1.9723,1.9723,1.9723,1.9723,1.9723,1.9723,1.9723,1.9723,1.9723,1.9723,1.9723,1.9723,1.9723,1.9723,1.9723,1.9723,1.9723,1.9723,1.9723,1.9723,1.9723,1.9723,1.9723,1.9723,1.9723,1.9723,1.9723,1.9723,1.9723,1.9723,1.9723,3.5954,3.591,3.5905,3.5866,3.5822,3.5805,3.5805,3.5822,3.5822,3.5805,3.5805,3.5822,3.5822,3.5822,3.5717,3.5457,3.5181,3.5035,3.4827,3.4421,3.415,3.3931,3.3744,3.2882,3.2239,3.2239,3.2256,3.2239,3.2222,3.2154,3.2084,3.1635,3.1601,3.1395,3.1122,3.1009,3.0754,3.0448,3.0291,2.9881,2.9242,2.8996,2.8298,2.7448,2.6849,2.6586,2.6254,2.6205,2.6187,2.6152,2.6187,2.6205,2.617,2.6097,2.5989,2.5807,2.5733,2.5584,2.5486,2.5298,2.5178,2.5005,2.4886,2.4706,2.4528,2.4446,2.44,2.4276,2.4177,2.3926,2.3502,2.3031,2.2723,2.238,2.1682,2.1229,2.1083,2.0377,1.9762,1.9726,1.9723,1.9708,1.9723,1.9887,1.9813,1.9842,1.9798,1.9798,1.9723,1.9723,1.9723,1.9723,1.9723,1.9723,1.9723,1.9723,1.9723,1.9723,1.9723,1.9723,1.9723,1.9723,1.9723,1.9723,1.9723,1.9723,1.9723,1.9723,1.9723,1.9723,1.9723,1.9723,1.9723,1.9723,1.9723,3.5951,3.5943,3.5824,3.5689,3.5622,3.5622,3.5622,3.5622,3.5616,3.5644,3.5616,3.5616,3.5644,3.5639,3.5622,3.56,3.5583,3.5549,3.538,3.5295,3.4895,3.4687,3.4462,3.404,3.3681,3.3685,3.3275,3.3229,3.3212,3.3292,3.2719,3.2307,3.2257,3.1879,3.1281,3.1018,3.0911,3.0727,3.0599,3.0375,2.9822,2.9549,2.8781,2.7761,2.6965,2.6653,2.6245,2.6012,2.5844,2.586,2.5842,2.5844,2.5881,2.5862,2.5787,2.5581,2.5505,2.5391,2.5256,2.5064,2.4926,2.4906,2.469,2.4487,2.4338,2.4276,2.4193,2.4088,2.3988,2.3967,2.3879,2.3432,2.3038,2.2791,2.2294,2.1924,2.162,2.0756,2.0277,2.0157,2.0352,2.0427,2.0303,2.0333,2.0124,1.9992,1.9977,1.9917,1.9887,1.9842,1.9932,1.9753,1.9723,1.9723,1.9723,1.9723,1.9723,1.9723,1.9723,1.9723,1.9723,1.9723,1.9723,1.9723,1.9723,1.9723,1.9723,1.9723,1.9723,1.9723,1.9723,1.9723,1.9723,1.9723,1.9768,3.6056,3.6581,3.5915,3.5622,3.5616,3.5616,3.5616,3.5616,3.5616,3.5616,3.5616,3.5616,3.5616,3.5616,3.5616,3.5616,3.5616,3.5616,3.56,3.5594,3.5357,3.5284,3.515,3.4976,3.4914,3.4667,3.4017,3.3422,3.335,3.3084,3.3175,3.2914,3.2847,3.2474,3.1892,3.1591,3.1165,3.0763,3.0575,3.0342,3.0107,2.9908,2.9484,2.8421,2.7512,2.6857,2.6499,2.6005,2.564,2.5654,2.5562,2.5508,2.5511,2.5581,2.5543,2.5413,2.524,2.5139,2.5025,2.4826,2.4666,2.4564,2.4446,2.4338,2.4213,2.4109,2.4046,2.3967,2.3882,2.3797,2.3674,2.3494,2.3473,2.3287,2.2942,2.2538,2.2373,2.1909,2.138,2.137,2.135,2.1186,2.1006,2.0917,2.0887,2.0861,2.0876,2.0711,2.0557,2.0453,2.0378,2.0079,1.9723,1.9723,1.9723,1.9723,1.9723,1.9723,1.9723,1.9723,1.9723,1.9723,1.9723,1.9723,1.9723,1.9723,1.9723,1.9723,1.9723,1.9723,1.9723,1.9723,1.9872,1.9974,1.9977,3.5819,3.6129,3.5752,3.5616,3.5616,3.5616,3.5616,3.5616,3.5616,3.5616,3.5616,3.5616,3.5616,3.5616,3.5616,3.5616,3.56,3.5549,3.5566,3.5543,3.5498,3.5452,3.54,3.54,3.536,3.5113,3.4521,3.4158,3.427,3.4259,3.3862,3.3473,3.34,3.299,3.2332,3.1995,3.1556,3.1019,3.0708,3.0424,3.0092,3.0011,2.9518,2.8704,2.8031,2.7332,2.6538,2.6276,2.5802,2.549,2.5301,2.5259,2.522,2.5182,2.5217,2.5162,2.5064,2.4926,2.4826,2.4609,2.4523,2.44,2.4276,2.4151,2.4024,2.3925,2.3882,2.3818,2.376,2.3674,2.3631,2.3595,2.3595,2.355,2.3295,2.3161,2.3092,2.2838,2.2673,2.2443,2.1979,2.168,2.156,2.1545,2.1635,2.1695,2.1724,2.153,2.1276,2.1141,2.1021,2.0722,2.0378,2.0228,2.0202,2.0082,2.0034,1.9956,1.9926,1.9911,1.9851,1.9907,1.9824,1.9723,1.9723,1.9893,1.9738,1.9738,1.9723,1.9768,1.9842,1.9929,2.0139,2.0258,2.0299,3.5684,3.5819,3.5667,3.5616,3.5616,3.5616,3.5616,3.5616,3.5616,3.5616,3.5616,3.5616,3.5616,3.5616,3.5594,3.5571,3.5554,3.5498,3.5469,3.5446,3.536,3.5291,3.5268,3.5222,3.5198,3.5071,3.4901,3.5065,3.4975,3.4951,3.4602,3.4147,3.3935,3.3456,3.2695,3.2478,3.2021,3.1521,3.1079,3.0622,2.9998,2.9655,2.9307,2.8572,2.8385,2.771,2.6893,2.6486,2.6025,2.5612,2.5318,2.5144,2.4953,2.4806,2.4786,2.4846,2.4866,2.4751,2.4589,2.4462,2.4359,2.4234,2.4166,2.4003,2.3882,2.3797,2.3717,2.3616,2.3595,2.3595,2.361,2.3595,2.3595,2.3595,2.358,2.358,2.352,2.3415,2.3355,2.3026,2.2458,2.2293,2.2293,2.2368,2.2517,2.2517,2.2568,2.2269,2.2009,2.1904,2.1754,2.1485,2.1216,2.0976,2.0812,2.0621,2.0583,2.0527,2.0497,2.0478,2.0329,2.021,2.0139,2.018,2.0221,2.0366,2.005,1.9944,2.0198,2.0303,2.0139,2.027,2.0665,2.084,2.088,3.6011,3.6586,3.587,3.5616,3.5616,3.5616,3.5616,3.5616,3.5616,3.5616,3.56,3.5616,3.5616,3.5571,3.552,3.5514,3.5469,3.5383,3.5314,3.5291,3.5245,3.5158,3.5105,3.4994,3.4899,3.4787,3.4667,3.4732,3.4828,3.4804,3.4675,3.4373,3.421,3.3957,3.3136,3.2951,3.2466,3.1701,3.0996,3.0238,2.9555,2.9414,2.9243,2.8883,2.8413,2.7904,2.7473,2.6989,2.6412,2.578,2.5649,2.5295,2.4806,2.463,2.4508,2.4462,2.4462,2.4503,2.4343,2.4276,2.4172,2.4051,2.394,2.3861,2.3782,2.3696,2.3616,2.3595,2.3595,2.3595,2.3595,2.3595,2.3595,2.3595,2.3595,2.3595,2.3595,2.3595,2.3595,2.3565,2.3011,2.3116,2.3221,2.331,2.34,2.3385,2.3317,2.2987,2.2763,2.2607,2.2482,2.2207,2.1829,2.159,2.1327,2.1138,2.0984,2.0985,2.0985,2.0951,2.0813,2.069,2.0897,2.0956,2.0941,2.0912,2.0797,2.078,2.0927,2.0893,2.0776,2.101,2.1342,2.1446,2.1455,3.5802,3.6079,3.5718,3.5616,3.5616,3.5616,3.5616,3.5616,3.5616,3.5616,3.5577,3.5566,3.552,3.5435,3.5383,3.54,3.5377,3.5245,3.5135,3.5041,3.4994,3.4883,3.4763,3.4691,3.4594,3.4497,3.4382,3.4325,3.4399,3.4423,3.4399,3.4275,3.4201,3.3962,3.3458,3.334,3.2839,3.2091,3.126,3.0409,2.9792,2.9548,2.9368,2.8936,2.8553,2.8201,2.7788,2.7522,2.6947,2.6302,2.5923,2.5433,2.4967,2.4626,2.4297,2.4156,2.4172,2.4193,2.413,2.4103,2.4003,2.3919,2.3818,2.376,2.3696,2.3638,2.3595,2.3595,2.3595,2.3595,2.3595,2.3595,2.3595,2.3595,2.3595,2.3595,2.3595,2.3595,2.3595,2.3595,2.3595,2.3595,2.3595,2.3565,2.352,2.3505,2.3475,2.3325,2.3236,2.3236,2.3088,2.2927,2.2518,2.2125,2.1821,2.1593,2.1321,2.1266,2.1232,2.1232,2.1211,2.125,2.1419,2.1395,2.1206,2.1252,2.1421,2.1361,2.1258,2.1346,2.143,2.1662,2.1857,2.1946,2.2028,3.5577,3.5577,3.5577,3.5616,3.5616,3.5616,3.5577,3.5571,3.5554,3.5549,3.5526,3.5475,3.54,3.5308,3.5245,3.5175,3.5158,3.5018,3.4899,3.4804,3.4691,3.4594,3.4497,3.4423,3.4325,3.4217,3.4109,3.4025,3.3924,3.3949,3.4,3.4016,3.3873,3.3729,3.3591,3.3349,3.2928,3.2155,3.1546,3.0829,3.0142,2.9757,2.9406,2.9024,2.8659,2.8341,2.7868,2.7752,2.7427,2.6763,2.6301,2.5828,2.5201,2.4738,2.4301,2.4095,2.3982,2.3946,2.3925,2.3903,2.3861,2.3797,2.3754,2.3696,2.3616,2.3595,2.3595,2.3595,2.3595,2.3595,2.3595,2.3595,2.3595,2.3595,2.3595,2.3595,2.3595,2.3595,2.3595,2.3595,2.3595,2.3595,2.3595,2.3595,2.3595,2.3595,2.3595,2.3595,2.3573,2.3537,2.3397,2.3169,2.2999,2.263,2.2469,2.217,2.1833,2.1609,2.1609,2.1649,2.1775,2.1791,2.1858,2.1711,2.1547,2.1768,2.2032,2.1802,2.1627,2.2013,2.2306,2.2216,2.2291,2.2343,2.2395,3.5571,3.5498,3.5554,3.56,3.5616,3.5583,3.5571,3.5498,3.5498,3.5406,3.5297,3.5291,3.5291,3.5222,3.5018,3.4923,3.4923,3.4659,3.457,3.4546,3.4513,3.4488,3.4454,3.4345,3.4203,3.4076,3.4076,3.3914,3.3592,3.3641,3.365,3.3642,3.3555,3.345,3.3319,3.3129,3.2718,3.2123,3.1711,3.1285,3.0521,2.9981,2.9448,2.9087,2.8503,2.8039,2.7993,2.7951,2.7716,2.7076,2.6817,2.6306,2.5537,2.4998,2.4531,2.4126,2.3833,2.3775,2.3717,2.376,2.3739,2.3674,2.3616,2.3638,2.3595,2.3595,2.3595,2.3595,2.3595,2.3595,2.3595,2.3595,2.3595,2.3595,2.3595,2.3595,2.3595,2.3595,2.3595,2.3595,2.3595,2.3595,2.3588,2.3588,2.3588,2.3588,2.3566,2.3566,2.3516,2.3473,2.3392,2.3267,2.3245,2.3135,2.3142,2.2841,2.2418,2.2273,2.2244,2.2366,2.2502,2.2457,2.222,2.2211,2.2126,2.2376,2.2483,2.2141,2.2134,2.2856,2.3091,2.2681,2.2468,2.2475,2.2494,3.5406,3.5383,3.5406,3.5412,3.5429,3.5412,3.5406,3.5383,3.5377,3.5245,3.5041,3.5041,3.497,3.4828,3.4715,3.4643,3.4618,3.4472,3.4366,3.4404,3.4524,3.4639,3.4639,3.4781,3.491,3.4711,3.4591,3.4207,3.3771,3.365,3.3368,3.3307,3.3181,3.3123,3.2989,3.2796,3.242,3.2175,3.1897,3.1554,3.096,3.0544,2.9972,2.9068,2.8905,2.8384,2.8096,2.7995,2.7813,2.757,2.7221,2.6613,2.6,2.5372,2.4814,2.4327,2.4041,2.3773,2.3661,2.3668,2.3638,2.3616,2.3595,2.3595,2.3595,2.3595,2.3595,2.3595,2.3595,2.3595,2.3595,2.3595,2.3595,2.3595,2.3595,2.3595,2.3595,2.3595,2.3595,2.3595,2.3595,2.3595,2.3588,2.356,2.3566,2.3588,2.3545,2.3516,2.3444,2.3356,2.3253,2.3164,2.312,2.3053,2.3045,2.2955,2.2888,2.282,2.276,2.2661,2.2606,2.2646,2.2452,2.2518,2.244,2.2374,2.2312,2.2267,2.2454,2.2778,2.2881,2.2748,2.2626,2.2555,2.2543,3.5268,3.5228,3.5198,3.5222,3.5291,3.5308,3.5268,3.5198,3.5175,3.5034,3.4804,3.4763,3.4683,3.4497,3.4399,3.4349,3.4259,3.4192,3.4187,3.4333,3.4557,3.4766,3.495,3.5067,3.5157,3.5178,3.5077,3.4623,3.4066,3.388,3.3466,3.3054,3.2745,3.2652,3.2676,3.2441,3.2247,3.215,3.202,3.1814,3.1326,3.0967,3.0637,2.955,2.9161,2.8641,2.8233,2.8012,2.784,2.7674,2.7433,2.7061,2.6531,2.5942,2.528,2.4859,2.4485,2.4133,2.3939,2.3684,2.3625,2.3595,2.3595,2.3595,2.361,2.361,2.3595,2.3595,2.3595,2.3625,2.364,2.3595,2.3595,2.3595,2.3595,2.3595,2.3595,2.3595,2.3595,2.3595,2.3588,2.3575,2.3546,2.3532,2.3533,2.351,2.3451,2.3363,2.3268,2.3179,2.3112,2.3,2.291,2.2834,2.2743,2.2741,2.2701,2.2578,2.2509,2.2417,2.2385,2.2464,2.2427,2.2208,2.2137,2.2147,2.2119,2.2086,2.2216,2.2434,2.2468,2.2511,2.237,2.2268,2.2405,3.5198,3.5088,3.497,3.5041,3.5261,3.5291,3.5128,3.4923,3.4899,3.4739,3.4521,3.4497,3.4399,3.4275,3.4126,3.4025,3.3924,3.3803,3.3946,3.434,3.4562,3.4778,3.5096,3.5297,3.5462,3.5016,3.5041,3.4957,3.4398,3.4029,3.35,3.2989,3.2638,3.2326,3.2416,3.215,3.2025,3.2025,3.1996,3.1892,3.1684,3.122,3.0802,3.0262,2.9519,2.8955,2.8471,2.8096,2.787,2.763,2.76,2.7245,2.6756,2.6546,2.6087,2.5615,2.5472,2.5128,2.4649,2.4014,2.3819,2.3774,2.3834,2.3849,2.3729,2.3729,2.3864,2.4103,2.3924,2.3819,2.3714,2.3714,2.3834,2.3894,2.3954,2.3984,2.4044,2.4059,2.4163,2.4179,2.3814,2.3547,2.3518,2.3496,2.3489,2.3437,2.3341,2.329,2.3236,2.3342,2.338,2.3285,2.3211,2.3103,2.3037,2.2677,2.2517,2.2395,2.2414,2.2534,2.2414,2.2432,2.2263,2.1983,2.2101,2.2352,2.2128,2.1876,2.2187,2.2471,2.2267,2.2197,2.2066,2.2134,2.2408,3.4739,3.4707,3.4659,3.4691,3.4763,3.478,3.4707,3.4602,3.4546,3.4399,3.425,3.4151,3.4025,3.3899,3.3771,3.3684,3.3607,3.3388,3.3619,3.4227,3.4553,3.5143,3.5515,3.585,3.5993,3.5936,3.5814,3.5308,3.4775,3.4408,3.4044,3.3575,3.276,3.2393,3.2159,3.1968,3.187,3.1841,3.1756,3.1668,3.1653,3.1384,3.1056,3.0679,3.0041,2.9445,2.8771,2.8368,2.8049,2.772,2.766,2.745,2.7136,2.6971,2.6527,2.6153,2.5989,2.5516,2.5262,2.4963,2.4709,2.4492,2.4298,2.4455,2.4822,2.4911,2.4926,2.4852,2.4747,2.4777,2.4956,2.4956,2.5016,2.5031,2.5061,2.5061,2.5076,2.5061,2.5068,2.5005,2.4758,2.4486,2.4349,2.4013,2.3877,2.3851,2.3821,2.3638,2.3574,2.3866,2.4018,2.3885,2.3777,2.3593,2.3368,2.3003,2.2863,2.2884,2.2976,2.311,2.294,2.2576,2.2555,2.2491,2.2549,2.2579,2.2402,2.228,2.2447,2.254,2.2458,2.2336,2.232,2.2483,2.278,3.4194,3.4423,3.4325,3.43,3.43,3.4399,3.4399,3.4259,3.4151,3.4025,3.3915,3.3813,3.3642,3.3503,3.3414,3.3335,3.3282,3.3139,3.3619,3.4204,3.4558,3.5203,3.5858,3.6292,3.6183,3.6289,3.6149,3.5749,3.5228,3.5001,3.4424,3.3668,3.3051,3.2539,3.2176,3.1966,3.1698,3.1655,3.1597,3.1524,3.1524,3.1406,3.1271,3.0941,3.0522,3.0088,2.9385,2.8846,2.8427,2.8049,2.7764,2.763,2.745,2.7255,2.6916,2.6752,2.6363,2.6004,2.5929,2.5576,2.5375,2.5382,2.5113,2.5173,2.5501,2.545,2.548,2.551,2.5659,2.5644,2.5644,2.5689,2.5719,2.5704,2.5666,2.5636,2.5559,2.5491,2.5458,2.5462,2.5324,2.5165,2.5009,2.4713,2.4365,2.4335,2.4304,2.4132,2.3936,2.4159,2.436,2.4207,2.3984,2.3689,2.3492,2.3255,2.3205,2.3357,2.3388,2.3391,2.3134,2.2719,2.2869,2.2951,2.283,2.2763,2.2764,2.2764,2.2778,2.2818,2.283,2.2733,2.2621,2.2788,2.3045,3.3575,3.4169,3.3968,3.3866,3.3924,3.4084,3.4075,3.3873,3.3745,3.3607,3.3503,3.3477,3.3346,3.315,3.3112,3.3016,3.2924,3.287,3.3584,3.4247,3.4412,3.5201,3.5768,3.6133,3.61,3.6037,3.5943,3.5834,3.5599,3.5205,3.4464,3.3711,3.3231,3.2781,3.2392,3.2018,3.1718,3.1584,3.1524,3.1496,3.1496,3.1481,3.1436,3.1197,3.0898,3.0582,2.9998,2.946,2.8936,2.8472,2.8079,2.7809,2.7645,2.76,2.76,2.7405,2.6896,2.6731,2.6542,2.6153,2.6183,2.6303,2.6033,2.5809,2.5824,2.6033,2.6108,2.6078,2.6108,2.5959,2.5854,2.5914,2.5935,2.592,2.5896,2.5819,2.5732,2.566,2.5603,2.555,2.537,2.5226,2.5099,2.4876,2.4824,2.4781,2.4747,2.4575,2.4395,2.4297,2.4419,2.426,2.4019,2.367,2.3538,2.3581,2.3663,2.3798,2.3419,2.3324,2.307,2.299,2.3106,2.3103,2.2935,2.2922,2.3022,2.301,2.2948,2.2988,2.3117,2.3041,2.2897,2.3003,2.3212,3.2474,3.3117,3.2983,3.3154,3.3575,3.3487,3.3519,3.3581,3.3372,3.3256,3.3203,3.3096,3.3016,3.2951,3.2827,3.2676,3.2566,3.2598,3.3238,3.3735,3.4163,3.4988,3.5596,3.5975,3.5894,3.5831,3.5767,3.5718,3.5574,3.5224,3.4911,3.4279,3.3858,3.3365,3.2721,3.2288,3.1914,3.16,3.1511,3.1496,3.1496,3.1496,3.1496,3.1376,3.1286,3.0957,3.0462,3.0148,2.9684,2.9235,2.8667,2.8323,2.8308,2.7899,2.7585,2.7585,2.739,2.7315,2.7285,2.7121,2.7061,2.7151,2.7016,2.7091,2.7046,2.6911,2.6881,2.6752,2.6722,2.6662,2.6623,2.6652,2.6603,2.6539,2.6515,2.6466,2.6352,2.6253,2.6193,2.5926,2.5763,2.5543,2.5405,2.5307,2.5261,2.524,2.5119,2.4901,2.4791,2.464,2.4517,2.4368,2.4245,2.3959,2.4106,2.4195,2.4209,2.4166,2.3742,2.3465,2.3531,2.3472,2.3379,2.3301,2.3219,2.3293,2.3409,2.3311,2.3208,2.3327,2.3434,2.3319,2.3237,2.3289,2.3339,3.1379,3.1999,3.219,3.2635,3.3166,3.3016,3.2973,3.3054,3.3,3.2989,3.2893,3.2757,3.2664,3.2582,3.2428,3.2318,3.2247,3.2224,3.2688,3.339,3.3819,3.4515,3.5197,3.5693,3.5718,3.5653,3.5621,3.5604,3.5489,3.5474,3.519,3.4953,3.4728,3.3873,3.314,3.2572,3.2079,3.172,3.1496,3.1496,3.1496,3.1496,3.1496,3.1496,3.1496,3.1212,3.0883,3.0731,3.0298,2.9924,2.9325,2.8846,2.8607,2.8004,2.76,2.7585,2.757,2.7525,2.751,2.754,2.7555,2.76,2.76,2.754,2.751,2.739,2.742,2.7405,2.748,2.754,2.7519,2.7499,2.7382,2.7276,2.724,2.7214,2.7111,2.7008,2.6759,2.6481,2.6228,2.6011,2.5864,2.5757,2.555,2.5232,2.5038,2.4857,2.4788,2.4762,2.4665,2.4581,2.448,2.4378,2.4463,2.4361,2.4197,2.4032,2.3832,2.3658,2.3835,2.3754,2.3486,2.3508,2.3542,2.3551,2.3471,2.3539,2.3495,2.3586,2.3526,2.3414,2.3364,2.347,2.3502,3.0302,3.0961,3.1534,3.2153,3.2691,3.2574,3.2496,3.2413,3.2691,3.2718,3.2523,3.2441,3.233,3.2247,3.2122,3.2081,3.2025,3.2027,3.2304,3.2999,3.3502,3.415,3.4766,3.5227,3.5527,3.5522,3.5489,3.5522,3.5489,3.5474,3.5474,3.5459,3.4951,3.4203,3.3425,3.2961,3.2348,3.1615,3.1496,3.1496,3.1496,3.1496,3.1496,3.1496,3.1496,3.1421,3.1301,3.0987,3.0582,3.0387,2.9983,2.937,2.8771,2.8184,2.7869,2.766,2.769,2.7585,2.7585,2.7585,2.7575,2.7575,2.7575,2.7549,2.7499,2.7524,2.7524,2.7524,2.7499,2.7448,2.7412,2.7386,2.731,2.7207,2.713,2.7026,2.6922,2.6738,2.6474,2.6206,2.6016,2.5825,2.5591,2.5397,2.5258,2.5033,2.4863,2.4721,2.4649,2.4649,2.462,2.4534,2.4419,2.4261,2.4115,2.3982,2.3878,2.3734,2.3658,2.3628,2.3628,2.3599,2.3526,2.3467,2.3407,2.3467,2.3471,2.3467,2.3437,2.3467,2.3437,2.345,2.3467,2.3484,2.3454,2.9491,3.017,3.1099,3.1559,3.1639,3.1992,3.2107,3.2094,3.215,3.2193,3.2165,3.2094,3.2094,3.2038,3.1981,3.194,3.187,3.1872,3.2162,3.266,3.3201,3.3771,3.4536,3.5058,3.54,3.5489,3.5489,3.5489,3.5489,3.5489,3.5489,3.5489,3.5115,3.4562,3.3544,3.314,3.2587,3.1585,3.1496,3.1496,3.1496,3.1496,3.1496,3.1496,3.1496,3.1496,3.1421,3.1361,3.1241,3.1152,3.0612,2.9998,2.9412,2.8738,2.8397,2.8278,2.7874,2.7694,2.7575,2.7534,2.7499,2.7463,2.7437,2.7386,2.7361,2.7412,2.7423,2.7397,2.7372,2.731,2.7258,2.7233,2.7181,2.7052,2.6922,2.6777,2.6645,2.6379,2.6084,2.588,2.5702,2.5495,2.5258,2.5061,2.492,2.475,2.4536,2.4363,2.4245,2.4216,2.4216,2.4171,2.4083,2.3936,2.3819,2.3717,2.3628,2.3582,2.3509,2.348,2.3463,2.339,2.3318,2.3258,2.3198,2.3288,2.3288,2.3228,2.3228,2.3288,2.3318,2.3288,2.3258,2.3275,2.3228,2.8733,2.9107,2.9955,3.0464,3.075,3.1308,3.1513,3.1518,3.1775,3.1855,3.1798,3.187,3.1927,3.1883,3.1826,3.1769,3.1683,3.1655,3.1806,3.2183,3.2811,3.3365,3.4068,3.4726,3.519,3.537,3.5459,3.5489,3.5489,3.5489,3.5489,3.5415,3.522,3.4547,3.3529,3.3185,3.2572,3.1555,3.1511,3.1467,3.1467,3.1496,3.1496,3.1496,3.1496,3.1496,3.1496,3.1496,3.1496,3.1316,3.0793,3.0447,2.9909,2.9397,2.8906,2.8551,2.8207,2.7827,2.7618,2.7448,2.7397,2.7335,2.731,2.7258,2.7207,2.7258,2.7207,2.7207,2.7269,2.7218,2.7052,2.6989,2.6817,2.6686,2.658,2.6459,2.6272,2.6056,2.5729,2.5425,2.5272,2.5159,2.4948,2.4708,2.4565,2.4419,2.4203,2.4044,2.3923,2.3848,2.3819,2.3789,2.376,2.37,2.3582,2.3509,2.3437,2.339,2.336,2.33,2.3271,2.3198,2.3108,2.3108,2.3108,2.3138,2.3125,2.3095,2.3095,2.3168,2.3168,2.3138,2.3095,2.3095,2.3138,2.8128,2.8111,2.8723,2.9325,2.9887,3.0516,3.0824,3.0865,3.1349,3.158,3.1553,3.1683,3.1756,3.1683,3.1597,3.1524,3.1496,3.1553,3.1555,3.175,3.2273,3.2871,3.344,3.4023,3.4622,3.5145,3.54,3.5459,3.5489,3.5355,3.5205,3.522,3.4696,3.4008,3.3395,3.2811,3.2109,3.1617,3.1409,3.1409,3.1438,3.1467,3.1467,3.1467,3.1453,3.1453,3.1453,3.1438,3.1438,3.1274,3.0962,3.0738,3.0395,2.9948,2.9292,2.8848,2.8393,2.7936,2.7524,2.731,2.7233,2.7181,2.7181,2.713,2.7067,2.6974,2.6948,2.6948,2.7011,2.6985,2.6806,2.67,2.6515,2.634,2.6245,2.6111,2.5893,2.5702,2.537,2.5033,2.492,2.4835,2.4607,2.4392,2.4232,2.4083,2.3936,2.3789,2.3658,2.3599,2.3582,2.3539,2.348,2.342,2.336,2.333,2.3318,2.3258,2.3198,2.3138,2.3095,2.3095,2.3095,2.3095,2.3095,2.3095,2.3095,2.3095,2.3095,2.3095,2.3095,2.3095,2.3095,2.3095,2.3095,2.8029,2.804,2.8616,2.8912,2.9124,2.9651,3.0141,3.0533,3.0683,3.1001,3.1375,3.1496,3.1568,3.1553,3.1524,3.1496,3.1496,3.1496,3.1496,3.1615,3.2079,3.2482,3.2931,3.3559,3.4068,3.4562,3.5055,3.5415,3.5085,3.4801,3.4666,3.4622,3.4008,3.338,3.2796,3.2273,3.1946,3.15,3.1249,3.122,3.1249,3.1263,3.1336,3.1292,3.1249,3.1205,3.1176,3.1161,3.1176,3.1117,3.1057,3.0983,3.076,3.0375,2.9768,2.9131,2.8663,2.7974,2.7579,2.7203,2.7093,2.6963,2.691,2.6791,2.6686,2.6539,2.6486,2.6447,2.6486,2.6486,2.6367,2.6367,2.626,2.6056,2.5921,2.5674,2.5425,2.5258,2.502,2.4835,2.4692,2.452,2.4274,2.4086,2.3969,2.3848,2.373,2.3569,2.345,2.339,2.336,2.3288,2.3258,2.3198,2.3168,2.3198,2.3168,2.3125,2.3095,2.3095,2.3095,2.3095,2.3095,2.3095,2.3095,2.3095,2.3095,2.3095,2.3095,2.3095,2.3095,2.3095,2.3095,2.3095,2.3095]}]]